[[{"header":{"parameterUnit":"m.s-1","parameterCategory":1,"la1":31.0,"la2":29.5877,"lo1":-88.7671,"lo2":-86.6584,"dy":0.0162,"dx":0.0185,"nx":115,"ny":88,"refTime":"2024-06-11T06:00:00:Z","depth":0,"parameterNumber":2,"parameterNumberName":"U-component_of_WINDS"},"data":[0.0,0.0,0.0,0.0,0.0,0.0,0.0,0.0,0.0,0.0,0.0,0.0,0.0,0.0,0.0,0.0,0.0,0.0,0.0,0.0,0.0,0.0,0.0,0.0,0.0,0.0,0.0,0.0,0.0,0.0,0.0,0.0,0.0,0.0,0.0,0.0,0.0,0.0,0.0,0.0,0.0,0.0,0.0,0.0,0.0,0.0,0.0,0.0,0.0,0.0,0.0,0.0,0.0,0.0,0.0,0.0,0.0,0.0,0.0,0.0,0.0,0.0,0.0,0.0,0.0,0.0,0.0,0.0,0.0,0.0,0.0,0.0,0.0,0.0,0.0,0.0,0.0,0.0,0.0,0.0,0.0,0.0,0.0,0.0,0.0,0.0,0.0,0.0,0.0,0.0,0.0,0.0,0.0,0.0,0.0,0.0,0.0,0.0,0.0,0.0,0.0,0.0,0.0,0.0,0.0,0.0,0.0,0.0,0.0,0.0,0.0,0.0,0.0,0.0,0.0,0.0,0.0,0.0,0.0,0.0,0.0,0.0,0.0,0.0,0.0,0.0,0.0,0.0,0.0,0.0,0.0,0.0,0.0,0.0,0.0,0.0,0.0,0.0,0.0,0.0,0.0,0.0,0.0,0.0,0.0,0.0,0.0,0.0,0.0,0.0,0.0,0.0,0.0,0.0,0.0,0.0,0.0,0.0,0.0,0.0,0.0,0.0,0.0,0.0,0.0,0.0,0.0,0.0,0.0,0.0,0.0,0.0,0.0,0.0,0.0,0.0,0.0,0.0,0.0,0.0,0.0,0.0,0.0,0.0,0.0,0.0,0.0,0.0,0.0,0.0,0.0,0.0,0.0,0.0,0.0,0.0,0.0,0.0,0.0,0.0,0.0,0.0,0.0,0.0,0.0,0.0,0.0,0.0,0.0,0.0,0.0,0.0,0.0,0.0,0.0,0.0,0.0,0.0,0.0,0.0,0.0,0.0,0.0,0.0,0.0,0.0,0.0,0.0,0.0,0.0,0.0,0.0,0.0,0.0,0.0,0.0,0.0,0.0,0.0,0.0,0.0,0.0,0.0,0.0,0.0,0.0,0.0,0.0,0.0,0.0,0.0,0.0,0.0,0.0,0.0,0.0,0.0,0.0,0.0,0.0,0.0,0.0,0.0,0.0,0.0,0.0,0.0,0.0,0.0,0.0,0.0,0.0,0.0,0.0,0.0,0.0,0.0,0.0,0.0,0.0,0.0,0.0,0.0,0.0,0.0,0.0,0.0,0.0,0.0,0.0,0.0,0.0,0.0,0.0,0.0,0.0,0.0,0.0,0.0,0.0,0.0,0.0,0.0,0.0,0.0,0.0,0.0,0.0,0.0,0.0,0.0,0.0,0.0,0.0,0.0,0.0,0.0,0.0,0.0,0.0,0.0,0.0,0.0,0.0,0.0,0.0,0.0,0.0,0.0,0.0,0.0,0.0,0.0,0.0,0.0,0.0,0.0,0.0,0.0,0.0,0.0,0.0,0.0,0.0,0.0,0.0,0.0,0.0,0.0,0.0,0.0,0.0,0.0,0.0,0.0,0.0,0.0,0.0,0.0,0.0,0.0,0.0,0.0,0.0,0.0,0.0,0.0,0.0,0.0,0.0,0.0,0.0,0.0,0.0,0.0,0.0,0.0,0.0,0.0,0.0,0.0,0.0,0.0,0.0,0.0,0.0,0.0,0.0,0.0,0.0,0.0,0.0,0.0,0.0,0.0,0.0,0.0,0.0,0.0,0.0,0.0,0.0,0.0,0.0,0.0,0.0,0.0,0.0,0.0,0.0,0.0,0.0,0.0,0.0,0.0,0.0,0.0,0.0,0.0,0.0,0.0,0.0,0.0,0.0,0.0,0.0,0.0,0.0,0.0,0.0,0.0,0.0,0.0,0.0,0.0,0.0,0.0,0.0,0.0,0.0,0.0,0.0,0.0,0.0,0.0,0.0,0.0,0.0,0.0,0.0,0.0,0.0,0.0,0.0,0.0,0.0,0.0,0.0,0.0,0.0,0.0,0.0,0.0,0.0,0.0,0.0,0.0,0.0,0.0,0.0,0.0,0.0,0.0,0.0,0.0,0.0,0.0,0.0,0.0,0.0,0.0,0.0,0.0,0.0,0.0,0.0,0.0,0.0,0.0,0.0,0.0,0.0,0.0,0.0,0.0,0.0,0.0,0.0,0.0,0.0,0.0,0.0,0.0,0.0,0.0,0.0,0.0,0.0,0.0,0.0,0.0,0.0,0.0,0.0,0.0,0.0,0.0,0.0,0.0,0.0,0.0,0.0,0.0,0.0,0.0,0.0,0.0,0.0,0.0,0.0,0.0,0.0,0.0,0.0,0.0,0.0,0.0,0.0,0.0,0.0,0.0,0.0,0.0,0.0,0.0,0.0,0.0,0.0,0.0,0.0,0.0,0.0,0.0,0.0,0.0,0.0,0.0,0.0,0.0,0.0,0.0,0.0,0.0,0.0,0.0,0.0,0.0,0.0,0.0,0.0,0.0,0.0,0.0,0.0,0.0,0.0,0.0,0.0,0.0,0.0,0.0,0.0,0.0,0.0,0.0,0.0,0.0,0.0,0.0,0.0,0.0,0.0,0.0,0.0,0.0,0.0,0.0,0.0,0.0,0.0,0.0,0.0,0.0,0.0,0.0,0.0,0.0,0.0,0.0,0.0,0.0,0.0,0.0,0.0,0.0,0.0,0.0,0.0,0.0,0.0,0.0,0.0,0.0,0.0,0.0,0.0,0.0,0.0,0.0,0.0,0.0,0.0,0.0,0.0,0.0,0.0,0.0,0.0,0.0,0.0,0.0,0.0,0.0,0.0,0.0,0.0,0.0,0.0,0.0,0.0,0.0,0.0,0.0,0.0,0.0,0.0,0.0,0.0,0.0,0.0,0.0,0.0,0.0,0.0,0.0,0.0,0.0,0.0,0.0,0.0,0.0,0.0,0.0,0.0,0.0,0.0,0.0,0.0,0.0,0.0,0.0,0.0,0.0,0.0,0.0,0.0,0.0,0.0,0.0,0.0,0.0,0.0,0.0,0.0,0.0,0.0,0.0,0.0,0.0,0.0,0.0,0.0,0.0,0.0,0.0,0.0,0.0,0.0,0.0,0.0,0.0,0.0,0.0,0.0,0.0,0.0,0.0,0.0,0.0,0.0,0.0,0.0,0.0,0.0,0.0,0.0,0.0,0.0,0.0,0.0,0.0,0.0,0.0,0.0,0.0,0.0,0.0,0.0,0.0,0.0,0.0,0.0,0.0,0.0,0.0,0.0,0.0,0.0,0.0,0.0,0.0,0.0,0.0,0.0,0.0,0.0,0.0,0.0,0.0,0.0,0.0,0.0,0.0,0.0,0.0,0.0,0.0,0.0,0.0,0.0,0.0,0.0,0.0,0.0,0.0,0.0,0.0,0.0,0.0,0.0,0.0,0.0,0.0,0.0,0.0,0.0,0.0,0.0,0.0,0.0,0.0,0.0,0.0,0.0,0.0,0.0,0.0,0.0,0.0,0.0,0.0,0.0,0.0,0.0,0.0,0.0,0.0,0.0,0.0,0.0,0.0,0.0,0.0,0.0,0.0,0.0,0.0,0.0,0.0,0.0,0.0,0.0,0.0,0.0,0.0,0.0,0.0,0.0,0.0,0.0,0.0,0.0,0.0,0.0,0.0,0.0,0.0,0.0,0.0,0.0,0.0,0.0,0.0,0.0,0.0,0.0,0.0,0.0,0.0,0.0,0.0,0.0,0.0,0.0,0.0,0.0,0.0,0.0,0.0,0.0,0.0,0.0,0.0,0.0,0.0,0.0,0.0,0.0,0.0,0.0,0.0,0.0,0.0,0.0,0.0,0.0,0.0,0.0,0.0,0.0,0.0,0.0,0.0,0.0,0.0,0.0,0.0,0.0,0.0,0.0,0.0,0.0,0.0,0.0,0.0,0.0,0.0,0.0,0.0,0.0,0.0,0.0,0.0,0.0,0.0,0.0,0.0,0.0,0.0,0.0,0.0,0.0,0.0,0.0,0.0,0.0,0.0,0.0,0.0,0.0,0.0,0.0,0.0,0.0,0.0,0.0,0.0,0.0,0.0,0.0,0.0,0.0,0.0,0.0,0.0,0.0,0.0,0.0,0.0,0.0,0.0,0.0,0.0,0.0,0.0,0.0,0.0,0.0,0.0,0.0,0.0,0.0,0.0,0.0,0.0,0.0,0.0,0.0,0.0,0.0,0.0,0.0,0.0,0.0,0.0,0.0,2.1464,0.0,0.0,0.0,0.0,0.0,0.0,0.0,0.0,0.0,0.0,0.0,0.0,0.0,0.0,0.0,0.0,0.0,0.0,0.0,0.0,0.0,0.0,0.0,0.0,0.0,0.0,0.0,0.0,0.0,0.0,0.0,0.0,0.0,0.0,0.0,0.0,0.0,0.0,0.0,0.0,0.0,0.0,0.0,0.0,0.0,0.0,0.0,0.0,0.0,0.0,0.0,0.0,0.0,0.0,0.0,0.0,0.0,0.0,0.0,0.0,0.0,0.0,0.0,0.0,0.0,0.0,0.0,0.0,0.0,0.0,0.0,0.0,0.0,0.0,0.0,0.0,0.0,0.0,0.0,0.0,0.0,0.0,0.0,0.0,0.0,0.0,0.0,0.0,0.0,0.0,0.0,0.0,0.0,0.0,0.0,0.0,0.0,0.0,0.0,0.0,0.0,0.0,0.0,0.0,0.0,0.0,0.0,0.0,0.0,0.0,2.2705,2.2705,2.2705,2.2364,2.163,0.0,0.0,0.0,0.0,0.0,0.0,0.0,0.0,0.0,0.0,0.0,0.0,0.0,0.0,0.0,0.0,0.0,0.0,0.0,0.0,0.0,0.0,0.0,0.0,0.0,0.0,0.0,0.0,0.0,0.0,0.0,0.0,0.0,0.0,0.0,0.0,0.0,0.0,0.0,0.0,0.0,0.0,0.0,0.0,0.0,0.0,0.0,0.0,0.0,0.0,0.0,0.0,0.0,0.0,0.0,0.0,0.0,0.0,0.0,0.0,0.0,0.0,0.0,0.0,0.0,0.0,0.0,0.0,0.0,0.0,0.0,0.0,0.0,0.0,0.0,0.0,0.0,0.0,0.0,0.0,0.0,0.0,0.0,0.0,0.0,0.0,0.0,0.0,0.0,0.0,0.0,0.0,0.0,0.0,0.0,0.0,0.0,0.0,0.0,0.0,0.0,0.0,0.0,0.0,0.0,0.0,0.0,0.0,0.0,0.0,0.0,0.0,2.2705,2.2351,2.1575,0.0,0.0,0.0,0.0,0.0,0.0,0.0,0.0,0.0,0.0,0.0,0.0,0.0,0.0,0.0,0.0,0.0,0.0,0.0,0.0,0.0,0.0,0.0,0.0,0.0,0.0,0.0,0.0,0.0,0.0,0.0,0.0,0.0,0.0,0.0,0.0,0.0,0.0,0.0,0.0,0.0,0.0,0.0,0.0,0.0,0.0,0.0,0.0,0.0,0.0,0.0,0.0,0.0,0.0,0.0,0.0,0.0,0.0,0.0,0.0,0.0,0.0,0.0,0.0,0.0,0.0,0.0,0.0,0.0,0.0,0.0,0.0,0.0,0.0,0.0,0.0,0.0,0.0,0.0,0.0,0.0,0.0,0.0,0.0,0.0,0.0,0.0,0.0,0.0,0.0,0.0,0.0,0.0,0.0,0.0,0.0,0.0,0.0,0.0,0.0,0.0,0.0,0.0,0.0,0.0,0.0,0.0,0.0,0.0,0.0,2.2705,2.2705,2.2705,0.0,2.1463,0.0,0.0,0.0,0.0,0.0,0.0,0.0,0.0,0.0,0.0,0.0,0.0,0.0,0.0,0.0,0.0,0.0,0.0,0.0,0.0,0.0,0.0,0.0,0.0,0.0,0.0,0.0,0.0,0.0,0.0,0.0,0.0,0.0,0.0,0.0,0.0,0.0,0.0,0.0,0.0,0.0,0.0,0.0,0.0,0.0,0.0,0.0,0.0,0.0,0.0,0.0,0.0,0.0,0.0,0.0,0.0,0.0,0.0,0.0,0.0,0.0,0.0,0.0,0.0,0.0,0.0,0.0,0.0,0.0,0.0,0.0,0.0,0.0,0.0,0.0,0.0,0.0,0.0,0.0,0.0,0.0,0.0,0.0,0.0,0.0,0.0,0.0,0.0,0.0,0.0,0.0,0.0,0.0,0.0,0.0,0.0,0.0,0.0,0.0,0.0,0.0,0.0,0.0,0.0,0.0,0.0,0.0,0.0,0.0,0.0,2.2705,2.2705,2.2291,2.1631,0.0,0.0,0.0,0.0,0.0,0.0,0.0,0.0,0.0,0.0,0.0,0.0,0.0,0.0,0.0,0.0,0.0,0.0,0.0,0.0,0.0,0.0,0.0,0.0,0.0,0.0,0.0,0.0,0.0,0.0,0.0,0.0,0.0,0.0,0.0,0.0,0.0,0.0,0.0,0.0,0.0,0.0,0.0,0.0,0.0,0.0,0.0,0.0,0.0,0.0,0.0,0.0,0.0,0.0,0.0,0.0,0.0,0.0,0.0,0.0,0.0,0.0,0.0,0.0,0.0,0.0,0.0,0.0,0.0,0.0,0.0,0.0,0.0,0.0,0.0,0.0,0.0,0.0,0.0,0.0,0.0,0.0,0.0,0.0,0.0,0.0,0.0,0.0,0.0,0.0,0.0,0.0,0.0,0.0,0.0,0.0,0.0,0.0,0.0,0.0,0.0,0.0,0.0,0.0,0.0,0.0,0.0,0.0,0.0,0.0,2.2705,0.0,2.2671,2.1995,2.119,2.0339,0.0,0.0,0.0,0.0,0.0,0.0,0.0,0.0,0.0,0.0,0.0,0.0,0.0,0.0,0.0,0.0,0.0,0.0,0.0,0.0,0.0,0.0,0.0,0.0,0.0,0.0,0.0,0.0,0.0,0.0,0.0,0.0,0.0,0.0,0.0,0.0,0.0,0.0,0.0,0.0,0.0,0.0,0.0,0.0,0.0,0.0,0.0,0.0,0.0,0.0,0.0,0.0,0.0,0.0,0.0,0.0,0.0,0.0,0.0,0.0,0.0,0.0,0.0,0.0,0.0,0.0,0.0,0.0,0.0,0.0,0.0,0.0,0.0,0.0,0.0,0.0,0.0,0.0,0.0,0.0,0.0,0.0,0.0,0.0,0.0,0.0,0.0,0.0,0.0,0.0,0.0,0.0,0.0,0.0,0.0,0.0,0.0,0.0,0.0,0.0,0.0,0.0,0.0,0.0,0.0,0.0,0.0,0.0,0.0,2.2705,2.2705,2.2685,2.1971,2.119,0.0,0.0,0.0,0.0,0.0,0.0,0.0,0.0,0.0,0.0,0.0,0.0,0.0,0.0,0.0,0.0,0.0,0.0,0.0,0.0,0.0,0.0,0.0,0.0,0.0,0.0,0.0,0.0,0.0,0.0,0.0,0.0,0.0,0.0,0.0,0.0,0.0,0.0,0.0,0.0,0.0,0.0,0.0,0.0,0.0,0.0,0.0,0.0,0.0,0.0,0.0,0.0,0.0,0.0,0.0,0.0,0.0,0.0,0.0,0.0,0.0,0.0,0.0,0.0,0.0,0.0,0.0,0.0,0.0,0.0,0.0,0.0,0.0,0.0,0.0,0.0,0.0,0.0,0.0,0.0,0.0,0.0,0.0,0.0,0.0,0.0,0.0,0.0,0.0,0.0,0.0,0.0,0.0,0.0,0.0,0.0,0.0,0.0,0.0,0.0,0.0,0.0,0.0,0.0,0.0,0.0,0.0,0.0,0.0,2.2705,2.2705,2.2705,2.2664,2.1486,2.0659,0.0,0.0,0.0,0.0,0.0,0.0,0.0,0.0,0.0,0.0,0.0,0.0,0.0,0.0,0.0,0.0,0.0,0.0,0.0,0.0,0.0,0.0,0.0,0.0,0.0,0.0,0.0,0.0,0.0,0.0,0.0,0.0,0.0,0.0,0.0,0.0,0.0,0.0,0.0,0.0,0.0,0.0,0.0,0.0,0.0,0.0,0.0,0.0,0.0,0.0,0.0,0.0,0.0,0.0,0.0,0.0,0.0,0.0,0.0,0.0,0.0,0.0,0.0,0.0,0.0,0.0,0.0,0.0,0.0,0.0,0.0,0.0,0.0,0.0,0.0,0.0,0.0,0.0,0.0,0.0,0.0,0.0,0.0,0.0,0.0,0.0,0.0,0.0,0.0,0.0,0.0,0.0,0.0,0.0,0.0,0.0,0.0,0.0,0.0,0.0,0.0,0.0,0.0,0.0,0.0,0.0,0.0,0.0,0.0,2.2705,0.0,2.2705,0.0,2.145,2.0606,0.0,0.0,0.0,0.0,0.0,0.0,0.0,0.0,0.0,0.0,0.0,0.0,0.0,0.0,0.0,0.0,0.0,0.0,0.0,0.0,0.0,0.0,0.0,0.0,0.0,0.0,0.0,0.0,0.0,0.0,0.0,0.0,0.0,0.0,0.0,0.0,0.0,0.0,0.0,0.0,0.0,0.0,0.0,0.0,0.0,0.0,0.0,0.0,0.0,0.0,0.0,0.0,0.0,0.0,0.0,0.0,0.0,0.0,0.0,0.0,0.0,0.0,0.0,0.0,0.0,0.0,0.0,0.0,0.0,0.0,0.0,0.0,0.0,0.0,0.0,0.0,0.0,0.0,0.0,0.0,0.0,0.0,0.0,0.0,0.0,0.0,0.0,0.0,0.0,0.0,0.0,0.0,0.0,0.0,0.0,0.0,0.0,0.0,0.0,0.0,0.0,0.0,0.0,0.0,0.0,0.0,0.0,0.0,2.2712,2.2702,2.2705,2.2702,2.2681,2.19,2.1115,0.0,0.0,0.0,0.0,0.0,0.0,0.0,0.0,0.0,0.0,0.0,0.0,0.0,0.0,0.0,0.0,0.0,0.0,0.0,0.0,0.0,0.0,0.0,0.0,0.0,0.0,0.0,0.0,0.0,0.0,0.0,0.0,0.0,0.0,0.0,0.0,0.0,0.0,0.0,0.0,0.0,0.0,0.0,0.0,0.0,0.0,0.0,0.0,0.0,0.0,0.0,0.0,0.0,0.0,0.0,0.0,0.0,0.0,0.0,0.0,0.0,0.0,0.0,0.0,0.0,0.0,0.0,0.0,0.0,0.0,0.0,0.0,0.0,0.0,0.0,0.0,0.0,0.0,0.0,0.0,0.0,0.0,0.0,0.0,0.0,0.0,0.0,0.0,0.0,0.0,0.0,0.0,0.0,0.0,0.0,0.0,0.0,0.0,0.0,0.0,0.0,0.0,0.0,0.0,0.0,0.0,0.0,0.0,0.0,2.2719,2.2705,2.2672,2.2594,2.1905,2.1077,0.0,0.0,0.0,0.0,0.0,0.0,0.0,0.0,0.0,0.0,0.0,0.0,0.0,0.0,0.0,0.0,0.0,0.0,0.0,0.0,0.0,0.0,0.0,0.0,0.0,0.0,0.0,0.0,0.0,0.0,0.0,0.0,0.0,0.0,0.0,0.0,0.0,0.0,0.0,0.0,0.0,0.0,0.0,0.0,0.0,0.0,0.0,0.0,0.0,0.0,0.0,0.0,0.0,0.0,0.0,0.0,0.0,0.0,0.0,0.0,0.0,0.0,0.0,0.0,0.0,0.0,0.0,0.0,0.0,0.0,0.0,0.0,0.0,0.0,0.0,0.0,0.0,0.0,0.0,0.0,0.0,0.0,0.0,0.0,0.0,0.0,0.0,0.0,0.0,0.0,0.0,0.0,0.0,0.0,0.0,0.0,0.0,0.0,0.0,0.0,0.0,0.0,0.0,0.0,0.0,0.0,0.0,0.0,0.0,2.3505,2.3498,2.3484,2.3384,2.2641,2.1833,2.0953,0.0,0.0,0.0,0.0,0.0,0.0,0.0,0.0,0.0,0.0,0.0,0.0,0.0,0.0,0.0,0.0,0.0,0.0,0.0,0.0,0.0,0.0,0.0,0.0,0.0,0.0,0.0,0.0,0.0,0.0,0.0,0.0,0.0,0.0,0.0,0.0,0.0,0.0,0.0,0.0,0.0,0.0,0.0,0.0,0.0,0.0,0.0,0.0,0.0,0.0,0.0,0.0,0.0,0.0,0.0,0.0,0.0,0.0,0.0,0.0,0.0,0.0,0.0,0.0,0.0,0.0,0.0,0.0,0.0,0.0,0.0,0.0,0.0,0.0,0.0,0.0,0.0,0.0,0.0,0.0,0.0,0.0,0.0,0.0,0.0,0.0,0.0,0.0,0.0,0.0,0.0,0.0,0.0,0.0,0.0,0.0,0.0,0.0,0.0,0.0,0.0,0.0,0.0,0.0,0.0,0.0,0.0,0.0,2.4911,2.5065,2.5021,2.4741,2.3974,2.3157,0.0,0.0,0.0,0.0,0.0,0.0,0.0,0.0,0.0,0.0,0.0,0.0,0.0,0.0,0.0,0.0,0.0,0.0,0.0,0.0,0.0,0.0,0.0,0.0,0.0,0.0,0.0,0.0,0.0,0.0,0.0,0.0,0.0,0.0,0.0,0.0,0.0,0.0,0.0,0.0,0.0,0.0,0.0,0.0,0.0,0.0,0.0,0.0,0.0,0.0,0.0,0.0,0.0,0.0,0.0,0.0,0.0,0.0,0.0,0.0,0.0,0.0,0.0,0.0,0.0,0.0,0.0,0.0,0.0,0.0,0.0,0.0,0.0,0.0,0.0,0.0,0.0,0.0,0.0,0.0,0.0,0.0,0.0,0.0,0.0,0.0,0.0,0.0,0.0,0.0,0.0,0.0,0.0,0.0,0.0,0.0,0.0,0.0,0.0,0.0,0.0,0.0,0.0,0.0,0.0,0.0,0.0,0.0,0.0,2.643,2.7453,2.7181,2.552,2.4667,2.3527,0.0,0.0,0.0,0.0,0.0,0.0,0.0,0.0,0.0,0.0,0.0,0.0,0.0,0.0,0.0,0.0,0.0,0.0,0.0,0.0,0.0,0.0,0.0,0.0,0.0,0.0,0.0,0.0,0.0,0.0,0.0,0.0,0.0,0.0,0.0,0.0,0.0,0.0,0.0,0.0,0.0,0.0,0.0,0.0,0.0,0.0,0.0,0.0,0.0,0.0,0.0,0.0,0.0,0.0,0.0,0.0,0.0,0.0,0.0,0.0,0.0,0.0,0.0,0.0,0.0,0.0,0.0,0.0,0.0,0.0,0.0,0.0,0.0,0.0,0.0,0.0,0.0,0.0,0.0,0.0,0.0,0.0,0.0,0.0,0.0,0.0,0.0,0.0,0.0,0.0,0.0,0.0,0.0,0.0,0.0,0.0,0.0,0.0,0.0,0.0,0.0,0.0,0.0,0.0,0.0,0.0,0.0,0.0,2.6871,2.7858,2.9267,2.9177,2.7503,2.6063,2.4682,0.0,0.0,0.0,0.0,0.0,0.0,0.0,0.0,0.0,0.0,0.0,0.0,0.0,0.0,0.0,0.0,0.0,0.0,0.0,0.0,0.0,0.0,0.0,0.0,0.0,0.0,0.0,0.0,0.0,0.0,0.0,0.0,0.0,0.0,0.0,0.0,0.0,0.0,0.0,0.0,0.0,0.0,0.0,0.0,0.0,0.0,0.0,0.0,0.0,0.0,0.0,0.0,0.0,0.0,0.0,0.0,0.0,0.0,0.0,0.0,0.0,0.0,0.0,0.0,0.0,0.0,0.0,0.0,0.0,0.0,0.0,0.0,0.0,0.0,0.0,0.0,0.0,0.0,0.0,0.0,0.0,0.0,0.0,0.0,0.0,0.0,0.0,0.0,0.0,0.0,0.0,0.0,0.0,0.0,0.0,0.0,0.0,0.0,0.0,0.0,0.0,0.0,0.0,0.0,0.0,0.0,0.0,0.0,2.7726,2.9195,3.0511,3.0808,2.9977,2.7743,2.6107,0.0,0.0,0.0,0.0,0.0,0.0,0.0,0.0,0.0,0.0,0.0,0.0,0.0,0.0,0.0,0.0,0.0,0.0,0.0,0.0,0.0,0.0,0.0,0.0,0.0,0.0,0.0,0.0,0.0,0.0,0.0,0.0,0.0,0.0,0.0,0.0,0.0,0.0,0.0,0.0,0.0,0.0,0.0,0.0,0.0,0.0,0.0,0.0,0.0,0.0,0.0,0.0,0.0,0.0,0.0,0.0,0.0,0.0,0.0,0.0,0.0,0.0,0.0,0.0,0.0,0.0,0.0,0.0,0.0,0.0,0.0,0.0,0.0,0.0,0.0,0.0,0.0,0.0,0.0,0.0,0.0,0.0,0.0,0.0,0.0,0.0,0.0,0.0,0.0,0.0,0.0,0.0,0.0,0.0,0.0,0.0,0.0,0.0,0.0,0.0,0.0,0.0,0.0,0.0,0.0,0.0,0.0,0.0,2.8469,2.9931,3.077,3.1052,3.0775,2.8444,2.6488,0.0,0.0,0.0,0.0,0.0,0.0,0.0,0.0,0.0,0.0,0.0,0.0,0.0,0.0,0.0,0.0,0.0,0.0,0.0,0.0,0.0,0.0,0.0,0.0,0.0,0.0,0.0,0.0,0.0,0.0,0.0,0.0,0.0,0.0,0.0,0.0,0.0,0.0,0.0,0.0,0.0,0.0,0.0,0.0,0.0,0.0,0.0,0.0,2.1608,0.0,0.0,0.0,0.0,0.0,0.0,0.0,0.0,0.0,0.0,0.0,0.0,0.0,0.0,0.0,0.0,0.0,0.0,0.0,0.0,0.0,0.0,0.0,0.0,0.0,0.0,0.0,0.0,0.0,0.0,0.0,0.0,0.0,0.0,0.0,0.0,0.0,0.0,0.0,0.0,0.0,0.0,0.0,0.0,0.0,0.0,0.0,0.0,0.0,0.0,0.0,0.0,0.0,0.0,0.0,0.0,0.0,0.0,0.0,2.8863,3.0612,3.0946,3.1062,3.0878,2.8879,2.7014,0.0,0.0,0.0,0.0,0.0,0.0,0.0,0.0,0.0,0.0,0.0,0.0,0.0,0.0,0.0,0.0,0.0,0.0,0.0,0.0,0.0,0.0,0.0,0.0,0.0,0.0,0.0,0.0,0.0,0.0,0.0,0.0,0.0,0.0,0.0,0.0,0.0,0.0,0.0,0.0,0.0,0.0,0.0,0.0,0.0,0.0,0.0,0.0,0.0,0.0,0.0,0.0,0.0,0.0,0.0,0.0,0.0,0.0,0.0,0.0,0.0,0.0,0.0,0.0,0.0,0.0,0.0,0.0,0.0,0.0,0.0,0.0,0.0,0.0,0.0,0.0,0.0,0.0,0.0,0.0,0.0,0.0,0.0,0.0,0.0,0.0,0.0,0.0,0.0,0.0,0.0,0.0,0.0,0.0,0.0,0.0,0.0,0.0,0.0,0.0,0.0,0.0,0.0,0.0,0.0,0.0,0.0,2.7691,2.9128,3.1089,3.1082,3.0982,3.0885,2.913,2.7428,2.5777,0.0,0.0,0.0,0.0,0.0,0.0,0.0,0.0,0.0,0.0,0.0,0.0,0.0,0.0,0.0,0.0,0.0,0.0,0.0,0.0,0.0,0.0,0.0,0.0,0.0,0.0,0.0,0.0,0.0,0.0,0.0,0.0,0.0,0.0,0.0,0.0,0.0,0.0,2.181,2.2249,0.0,0.0,0.0,0.0,0.0,0.0,0.0,0.0,2.2488,0.0,0.0,0.0,0.0,0.0,0.0,0.0,0.0,0.0,0.0,0.0,0.0,0.0,0.0,0.0,0.0,0.0,0.0,0.0,0.0,0.0,0.0,0.0,0.0,0.0,0.0,0.0,0.0,0.0,0.0,0.0,0.0,0.0,0.0,0.0,0.0,0.0,0.0,0.0,0.0,0.0,0.0,0.0,0.0,0.0,0.0,0.0,0.0,0.0,0.0,0.0,0.0,0.0,0.0,0.0,0.0,2.6774,2.8144,2.9611,3.1145,3.1077,3.0982,3.0858,2.9141,2.7348,2.5487,0.0,0.0,0.0,0.0,0.0,0.0,0.0,0.0,0.0,0.0,0.0,0.0,0.0,0.0,0.0,0.0,0.0,0.0,0.0,0.0,0.0,0.0,0.0,0.0,0.0,0.0,0.0,0.0,0.0,0.0,0.0,0.0,0.0,0.0,0.0,0.0,0.0,0.0,0.0,2.3251,2.3216,0.0,0.0,0.0,0.0,0.0,0.0,0.0,0.0,2.237,0.0,0.0,0.0,0.0,0.0,0.0,0.0,0.0,0.0,0.0,0.0,0.0,0.0,0.0,0.0,0.0,0.0,0.0,0.0,0.0,0.0,0.0,0.0,0.0,0.0,0.0,0.0,0.0,0.0,0.0,0.0,0.0,0.0,0.0,0.0,0.0,0.0,0.0,0.0,0.0,0.0,0.0,0.0,0.0,0.0,0.0,0.0,0.0,0.0,0.0,0.0,0.0,0.0,0.0,0.0,2.6708,2.8586,3.0072,3.1063,3.1367,3.1256,3.067,2.8977,2.7199,0.0,0.0,0.0,0.0,0.0,0.0,0.0,0.0,0.0,0.0,0.0,0.0,0.0,0.0,0.0,0.0,0.0,0.0,0.0,0.0,0.0,0.0,0.0,0.0,0.0,0.0,0.0,0.0,0.0,0.0,0.0,0.0,0.0,0.0,0.0,0.0,0.0,0.0,0.0,0.0,2.3521,2.3528,2.3746,0.0,0.0,0.0,0.0,0.0,0.0,2.3603,2.3378,0.0,0.0,0.0,0.0,0.0,0.0,0.0,0.0,0.0,0.0,0.0,0.0,0.0,0.0,0.0,0.0,0.0,0.0,0.0,0.0,0.0,0.0,0.0,0.0,0.0,0.0,0.0,0.0,0.0,0.0,0.0,0.0,0.0,0.0,0.0,0.0,0.0,0.0,0.0,0.0,0.0,0.0,0.0,0.0,0.0,0.0,0.0,0.0,0.0,0.0,0.0,0.0,0.0,0.0,0.0,2.6834,2.9119,3.0687,3.1421,3.1799,3.1587,3.0709,2.8893,2.7049,0.0,0.0,0.0,0.0,0.0,0.0,0.0,0.0,0.0,0.0,0.0,0.0,0.0,0.0,0.0,0.0,0.0,0.0,0.0,0.0,0.0,0.0,0.0,0.0,0.0,0.0,0.0,0.0,0.0,0.0,0.0,0.0,0.0,0.0,0.0,0.0,0.0,0.0,0.0,0.0,0.0,2.4071,2.454,2.4551,0.0,0.0,0.0,0.0,2.5188,2.492,0.0,0.0,0.0,0.0,0.0,0.0,0.0,0.0,0.0,0.0,0.0,0.0,0.0,0.0,0.0,0.0,0.0,0.0,0.0,0.0,0.0,0.0,0.0,0.0,0.0,0.0,0.0,0.0,0.0,0.0,0.0,0.0,0.0,0.0,0.0,0.0,0.0,0.0,0.0,0.0,0.0,0.0,0.0,0.0,0.0,0.0,0.0,0.0,0.0,0.0,0.0,0.0,0.0,0.0,0.0,0.0,2.7587,2.9875,3.1672,3.2834,3.2336,3.1832,3.146,2.9155,2.702,0.0,0.0,0.0,0.0,0.0,0.0,0.0,0.0,0.0,0.0,0.0,0.0,0.0,0.0,0.0,0.0,0.0,0.0,0.0,0.0,0.0,0.0,0.0,0.0,0.0,0.0,0.0,0.0,0.0,0.0,0.0,0.0,0.0,0.0,0.0,0.0,0.0,0.0,0.0,0.0,0.0,2.5445,2.5996,2.5895,2.5772,0.0,0.0,2.5845,2.654,2.589,0.0,0.0,0.0,0.0,0.0,0.0,0.0,0.0,0.0,0.0,0.0,0.0,0.0,0.0,0.0,0.0,0.0,0.0,0.0,0.0,0.0,0.0,0.0,0.0,0.0,0.0,0.0,0.0,0.0,0.0,0.0,0.0,0.0,0.0,0.0,0.0,0.0,0.0,0.0,0.0,0.0,0.0,0.0,0.0,0.0,0.0,0.0,0.0,0.0,0.0,0.0,0.0,0.0,0.0,0.0,2.5963,2.7572,3.0289,3.214,3.2976,3.2617,3.205,3.1347,2.8901,2.6789,0.0,0.0,0.0,0.0,0.0,0.0,0.0,0.0,0.0,0.0,0.0,0.0,0.0,0.0,0.0,0.0,0.0,0.0,0.0,0.0,0.0,0.0,0.0,0.0,0.0,0.0,0.0,0.0,0.0,0.0,0.0,0.0,0.0,0.0,0.0,0.0,0.0,0.0,0.0,0.0,0.0,0.0,2.6684,2.7001,0.0,0.0,0.0,2.7615,2.8074,0.0,0.0,0.0,0.0,0.0,0.0,0.0,0.0,0.0,0.0,0.0,0.0,0.0,0.0,0.0,0.0,0.0,0.0,0.0,0.0,0.0,0.0,0.0,0.0,0.0,0.0,0.0,0.0,0.0,0.0,0.0,0.0,0.0,0.0,0.0,0.0,0.0,0.0,0.0,0.0,0.0,0.0,0.0,0.0,0.0,0.0,0.0,0.0,0.0,0.0,0.0,0.0,0.0,0.0,0.0,0.0,0.0,2.7937,3.0838,3.2718,3.3401,3.2968,3.2259,3.1309,2.8775,0.0,0.0,0.0,0.0,0.0,0.0,0.0,0.0,0.0,0.0,0.0,0.0,0.0,0.0,0.0,0.0,0.0,0.0,0.0,0.0,0.0,0.0,0.0,0.0,0.0,0.0,0.0,1.6349,0.0,0.0,0.0,0.0,0.0,0.0,0.0,0.0,0.0,0.0,0.0,0.0,0.0,0.0,2.6651,2.7909,2.854,2.8941,0.0,0.0,2.9534,2.9867,2.9329,2.8351,0.0,0.0,0.0,0.0,0.0,0.0,0.0,0.0,0.0,0.0,0.0,0.0,0.0,0.0,0.0,0.0,0.0,0.0,0.0,0.0,0.0,0.0,0.0,0.0,0.0,0.0,0.0,0.0,0.0,0.0,0.0,0.0,0.0,0.0,0.0,0.0,0.0,0.0,0.0,0.0,0.0,0.0,0.0,0.0,0.0,0.0,0.0,0.0,0.0,0.0,0.0,0.0,0.0,0.0,0.0,2.9354,3.1781,3.364,3.4844,3.3466,3.2455,3.192,2.8979,2.6471,0.0,0.0,0.0,0.0,0.0,0.0,0.0,0.0,0.0,0.0,0.0,0.0,0.0,0.0,0.0,0.0,0.0,0.0,0.0,0.0,0.0,0.0,0.0,0.0,0.0,0.0,0.0,0.0,0.0,0.0,0.0,0.0,0.0,0.0,0.0,0.0,0.0,0.0,0.0,0.0,0.0,2.8887,3.0259,3.0919,3.149,0.0,3.1582,3.1368,3.2067,3.0737,2.908,2.7487,0.0,0.0,0.0,0.0,0.0,0.0,0.0,0.0,0.0,0.0,0.0,0.0,0.0,0.0,0.0,0.0,0.0,0.0,0.0,0.0,0.0,0.0,0.0,0.0,0.0,0.0,0.0,0.0,0.0,0.0,0.0,0.0,0.0,0.0,0.0,0.0,0.0,0.0,0.0,0.0,0.0,0.0,0.0,0.0,0.0,0.0,0.0,0.0,0.0,0.0,0.0,0.0,0.0,2.7366,3.0017,3.1986,3.3583,3.4731,3.3257,3.2186,3.1765,2.8627,2.6167,0.0,0.0,0.0,0.0,0.0,0.0,0.0,0.0,0.0,0.0,0.0,0.0,0.0,0.0,0.0,0.0,0.0,0.0,0.0,0.0,0.0,0.0,0.0,0.0,0.0,0.0,0.0,0.0,1.9302,1.9617,1.9995,0.0,0.0,0.0,0.0,0.0,0.0,0.0,0.0,0.0,0.0,2.9215,3.1118,3.1943,0.0,0.0,3.2665,3.2793,3.298,3.1889,3.0562,2.9284,2.6766,0.0,0.0,0.0,0.0,0.0,0.0,0.0,0.0,0.0,0.0,0.0,0.0,0.0,0.0,0.0,0.0,0.0,0.0,0.0,0.0,0.0,0.0,0.0,0.0,0.0,0.0,0.0,0.0,0.0,0.0,0.0,0.0,0.0,0.0,0.0,0.0,0.0,0.0,0.0,0.0,0.0,0.0,0.0,0.0,0.0,0.0,0.0,0.0,0.0,0.0,0.0,0.0,2.7543,3.0215,3.2139,3.3594,3.4598,3.3237,3.2203,3.1498,2.8795,2.6466,0.0,0.0,0.0,0.0,0.0,0.0,0.0,0.0,0.0,0.0,0.0,0.0,0.0,0.0,0.0,0.0,0.0,0.0,0.0,0.0,0.0,0.0,0.0,0.0,0.0,0.0,0.0,0.0,1.9681,1.9858,2.0314,0.0,0.0,0.0,0.0,0.0,0.0,0.0,0.0,0.0,0.0,3.0136,3.2169,3.3095,3.3545,3.3489,3.3841,3.4051,3.388,3.2759,3.1556,3.0434,0.0,0.0,0.0,0.0,0.0,0.0,0.0,0.0,0.0,0.0,0.0,0.0,0.0,0.0,0.0,0.0,0.0,0.0,0.0,0.0,0.0,0.0,0.0,0.0,0.0,0.0,0.0,1.8102,0.0,0.0,1.794,0.0,0.0,0.0,0.0,0.0,0.0,0.0,0.0,0.0,0.0,0.0,0.0,0.0,0.0,0.0,0.0,0.0,0.0,0.0,0.0,0.0,0.0,2.7744,2.9886,3.2314,3.3852,3.4448,3.3628,3.2589,3.1417,2.967,2.7546,2.5009,0.0,0.0,0.0,0.0,0.0,0.0,0.0,0.0,0.0,0.0,0.0,0.0,0.0,0.0,0.0,0.0,0.0,0.0,0.0,0.0,0.0,0.0,0.0,0.0,0.0,0.0,2.0386,2.0315,2.0284,0.0,0.0,0.0,0.0,0.0,0.0,0.0,0.0,0.0,0.0,2.9946,3.2056,3.3688,3.4588,3.5046,3.519,3.5218,3.5165,3.4873,3.3351,3.178,0.0,0.0,0.0,0.0,0.0,0.0,0.0,0.0,0.0,0.0,0.0,0.0,0.0,0.0,0.0,0.0,0.0,0.0,0.0,0.0,0.0,0.0,0.0,0.0,0.0,0.0,0.0,2.0074,2.023,0.0,0.0,0.0,0.0,0.0,0.0,0.0,0.0,0.0,0.0,0.0,2.4478,2.4293,0.0,0.0,0.0,0.0,0.0,0.0,0.0,0.0,0.0,0.0,0.0,0.0,2.7248,3.0283,3.1882,3.3141,3.4042,3.3255,3.2276,3.1173,2.9368,2.6845,2.3575,0.0,0.0,0.0,0.0,0.0,0.0,0.0,0.0,0.0,0.0,0.0,0.0,0.0,0.0,0.0,0.0,0.0,0.0,0.0,0.0,0.0,0.0,0.0,0.0,0.0,2.1011,0.0,0.0,0.0,0.0,0.0,0.0,0.0,0.0,0.0,0.0,0.0,2.728,2.9474,3.1115,3.2748,3.4476,3.5094,3.5389,0.0,0.0,0.0,0.0,0.0,0.0,0.0,0.0,0.0,0.0,0.0,0.0,0.0,0.0,2.7297,2.7133,2.6727,2.6396,2.6309,0.0,0.0,0.0,0.0,0.0,0.0,0.0,0.0,0.0,0.0,0.0,0.0,0.0,0.0,2.2203,2.2105,2.085,0.0,0.0,0.0,0.0,0.0,0.0,0.0,0.0,2.4679,2.5353,2.5813,2.567,2.5431,0.0,2.502,2.4248,0.0,0.0,0.0,0.0,0.0,0.0,0.0,0.0,2.7496,3.0253,3.1869,3.3003,3.363,3.3119,3.2231,3.0936,2.8885,2.6502,2.3801,2.2423,2.0982,0.0,0.0,0.0,0.0,0.0,0.0,0.0,0.0,0.0,0.0,0.0,0.0,0.0,0.0,0.0,0.0,0.0,0.0,0.0,0.0,0.0,0.0,0.0,2.1587,0.0,0.0,0.0,0.0,0.0,0.0,0.0,0.0,0.0,2.5425,2.6678,2.8503,3.0913,3.1995,3.3101,3.468,0.0,0.0,0.0,0.0,0.0,0.0,0.0,3.3461,3.2671,3.1407,3.0372,2.9999,2.9644,2.9771,3.0745,0.0,0.0,2.9774,2.9237,2.8893,2.8667,2.8612,2.8605,2.8531,2.8564,2.8659,0.0,0.0,0.0,0.0,0.0,0.0,0.0,0.0,2.46,2.4407,0.0,2.3579,0.0,0.0,0.0,0.0,2.1702,2.3409,0.0,0.0,2.6529,2.7357,2.7651,2.7235,2.7124,2.7235,2.6795,2.6495,2.6283,2.4218,0.0,0.0,0.0,0.0,0.0,0.0,2.8445,2.9842,3.2187,3.3379,3.328,3.3273,3.2471,3.0781,2.8382,2.6629,2.5635,2.4343,2.2777,2.0897,2.0079,0.0,0.0,0.0,0.0,0.0,0.0,0.0,0.0,0.0,0.0,0.0,0.0,0.0,0.0,0.0,0.0,0.0,0.0,0.0,0.0,2.1829,0.0,0.0,0.0,0.0,0.0,0.0,0.0,0.0,0.0,0.0,2.6886,2.799,2.9679,3.1911,0.0,0.0,0.0,0.0,3.6105,3.6386,3.6846,3.685,3.5951,3.5311,3.4471,3.3262,0.0,0.0,3.1455,3.1975,3.2572,3.3127,3.3287,3.3087,3.1693,3.1345,3.1176,3.0821,3.0739,3.07,3.0535,3.0647,3.0841,2.5947,0.0,0.0,0.0,0.0,2.5392,2.6168,2.6868,2.6308,2.6091,2.5994,2.4582,0.0,0.0,0.0,0.0,0.0,0.0,2.5922,2.691,2.8163,2.9024,2.9526,2.9541,2.9401,2.9132,2.936,2.923,2.8794,2.8326,2.6761,2.4186,0.0,0.0,0.0,0.0,2.8215,3.0043,3.1523,3.2441,3.2799,3.2933,3.2118,3.0276,2.8965,2.7685,2.636,2.5474,2.4317,2.2826,2.1187,0.0,0.0,0.0,0.0,0.0,0.0,0.0,0.0,0.0,0.0,0.0,0.0,0.0,0.0,0.0,0.0,0.0,0.0,0.0,2.24,2.265,2.2757,0.0,0.0,0.0,0.0,0.0,0.0,0.0,0.0,0.0,3.036,3.1268,3.2056,0.0,0.0,3.4855,3.5603,3.62,3.6669,3.6941,3.7026,0.0,3.6309,3.5719,3.5062,3.4268,3.3584,3.2991,3.2589,3.2721,3.3086,3.3787,3.3975,3.3991,3.4032,3.3203,3.2494,3.2256,3.2311,3.2408,3.2373,3.2616,3.2889,2.8519,2.6876,2.6432,2.6326,2.6511,2.7262,2.7971,2.8582,2.8227,2.8013,2.7814,2.6627,2.5787,2.5263,2.4898,0.0,0.0,0.0,2.7414,2.802,2.907,2.9701,2.998,3.0252,3.033,3.0209,3.0671,3.0847,3.0764,3.0785,2.9799,2.782,0.0,0.0,2.7415,2.8442,2.9574,3.0813,3.1793,3.2316,3.2355,3.2215,3.1446,2.9973,2.9197,2.8228,2.7031,2.6354,2.5369,2.4042,2.2524,2.0991,0.0,0.0,0.0,0.0,0.0,0.0,0.0,0.0,0.0,0.0,0.0,1.6881,1.7877,0.0,0.0,0.0,2.1149,2.243,2.3468,2.3745,0.0,0.0,0.0,0.0,0.0,0.0,0.0,2.7346,2.9656,3.1499,3.2137,3.3313,3.3992,3.3669,3.4442,3.5219,3.5769,0.0,3.7016,3.7277,3.7462,3.7339,3.6694,3.6288,3.5798,3.5064,3.4465,3.3993,3.3737,3.3721,3.391,3.4276,3.4507,3.4715,3.5137,3.4463,3.3769,3.3508,3.3611,3.3753,3.3659,3.4145,3.4567,3.0807,3.018,2.8914,2.8379,2.84,2.8971,2.9332,2.9567,3.0078,2.9898,2.9196,2.912,2.843,2.7274,2.7269,0.0,2.7335,2.8485,2.8891,2.8753,2.9543,2.9804,2.9645,3.0032,3.0362,3.0728,3.1116,3.1672,3.2295,3.2057,3.2069,3.2302,3.0881,3.0082,3.0007,3.1199,3.1875,3.1943,3.2661,3.2733,3.2095,3.1406,3.0662,2.9842,2.9184,2.8478,2.7621,2.701,2.6063,2.4743,2.3957,2.2303,1.963,0.0,0.0,0.0,0.0,0.0,0.0,0.0,0.0,0.0,0.0,0.0,0.0,0.0,0.0,0.0,2.2726,0.0,2.4405,2.494,0.0,0.0,0.0,2.5975,2.6295,2.8073,2.9371,2.966,0.0,0.0,3.2736,3.427,3.5373,3.5239,3.4939,3.4906,3.5357,3.6416,3.7201,3.7507,3.7973,3.7992,3.7077,3.6772,3.6346,3.5516,3.5131,3.477,3.4627,3.4685,3.4779,3.4696,3.4956,3.5164,3.5174,3.5128,3.504,3.4509,3.4687,3.4873,3.4743,3.531,3.5943,3.2215,3.2045,3.1726,3.0833,2.9688,2.9962,3.0297,3.0598,3.0453,3.0165,2.9832,2.9443,2.9074,2.8768,2.8781,2.8781,2.8816,2.9503,2.9791,2.9781,3.0417,3.0702,3.0655,3.09,3.1211,3.1591,3.2095,3.2727,3.3416,3.3804,3.3886,3.375,3.3991,3.335,3.1898,3.2167,3.2594,3.3096,3.3382,3.3282,3.2771,3.2011,3.1034,2.9822,2.9557,2.8839,2.7651,2.7459,2.6749,2.5432,2.447,2.295,2.0774,1.9238,0.0,0.0,0.0,0.0,0.0,0.0,0.0,0.0,0.0,1.823,1.9041,0.0,2.0536,0.0,2.2987,2.4318,2.4954,2.5431,0.0,0.0,2.675,2.7392,2.8168,3.0131,3.1427,3.1404,3.2932,3.4001,3.4023,3.4443,3.4909,3.5343,3.5641,3.5961,3.6326,3.6899,3.7427,3.7725,3.7826,3.7732,3.7301,3.653,3.5815,3.5149,3.4898,3.4675,3.4521,3.449,3.4572,3.4664,3.4748,3.4914,3.5199,3.5082,3.5016,3.5048,3.5513,3.5932,3.5907,3.6534,3.7151,3.2944,3.2708,3.2682,3.2127,3.1287,3.1378,3.1552,3.1734,3.1519,3.1369,3.1251,3.0953,3.0822,3.0822,3.0818,3.0822,3.0839,3.113,3.1255,3.1264,3.1339,3.1369,3.1352,3.1307,3.1458,3.1785,3.2313,3.2873,3.3453,3.4187,3.4509,3.4451,3.5148,3.4943,3.3888,3.3828,3.3873,3.3934,3.3719,3.3329,3.2779,3.2344,3.1346,2.9766,2.9647,2.883,2.7213,2.7101,2.6466,2.5174,2.4393,2.3193,2.1423,2.0144,1.8881,0.0,0.0,0.0,0.0,0.0,0.0,0.0,0.0,0.0,0.0,0.0,2.128,2.2496,2.4359,2.5604,2.5876,2.6646,2.7362,2.7859,2.8172,2.8744,2.9772,3.1231,3.2299,3.271,3.3745,3.4552,3.4904,3.4937,3.5063,3.5474,3.6294,3.6747,3.6482,3.6784,3.7178,3.74,3.7461,3.7402,3.7219,3.6448,3.5939,3.6031,3.5936,3.5898,3.6048,3.6089,3.6124,3.623,3.6096,3.5982,3.6157,3.5792,3.5519,3.5686,3.6181,3.6547,3.6472,3.7253,3.7987,3.331,3.2838,3.2828,3.2838,3.2815,3.2818,3.2779,3.2685,3.2666,3.2636,3.2619,3.2616,3.2619,3.2619,3.2636,3.2669,3.2679,3.2689,3.2682,3.2669,3.2169,3.1915,3.1908,3.1611,3.1586,3.1801,3.2304,3.2772,3.3171,3.4108,3.4678,3.4873,3.5414,3.5678,3.5718,3.5643,3.5271,3.4645,3.3956,3.3342,3.2759,3.2587,3.1637,2.9952,2.9683,2.8733,2.6928,2.6533,2.5815,2.4637,2.4101,2.3146,2.1653,2.1161,2.0127,0.0,1.8392,0.0,0.0,0.0,0.0,0.0,0.0,0.0,0.0,2.1913,2.2695,2.4333,2.6202,2.7259,2.7098,2.8189,2.9085,2.9472,2.9604,3.0054,3.1091,3.1788,3.2588,3.3664,3.4315,3.4921,3.5393,3.5489,3.5511,3.5848,3.6805,3.7325,3.6736,3.6987,3.7381,3.7312,3.7513,3.7825,3.7446,3.6908,3.6804,3.7449,3.7427,3.7593,3.7975,3.8086,3.8154,3.8105,3.7732,3.7541,3.7618,3.6999,3.6524,3.6503,3.698,3.7236,3.6902,3.765,3.855,3.3623,3.351,3.3497,3.3497,3.352,3.351,3.3211,3.2689,3.253,3.233,3.2137,3.2137,3.2124,3.2157,3.236,3.2437,3.247,3.2629,3.2682,3.2682,3.2594,3.2529,3.2515,3.2463,3.2535,3.2749,3.3164,3.3588,3.4003,3.4964,3.5565,3.5755,3.6289,3.6641,3.6758,0.0,0.0,0.0,3.4652,3.4248,3.4106,3.3051,3.2056,3.1152,3.014,0.0,2.809,2.6893,2.5829,2.4939,2.4006,0.0,0.0,0.0,0.0,0.0,0.0,0.0,0.0,0.0,0.0,0.0,2.2306,2.2505,2.2537,2.4217,2.5448,2.583,2.7493,2.8552,2.8532,2.9466,3.0126,3.0219,3.0639,3.1198,3.1856,3.2327,3.3022,3.4124,3.4541,3.4913,3.5473,3.5489,3.5915,3.6911,3.728,3.7824,3.8668,3.8979,3.9378,3.9715,3.9631,3.9523,3.8949,3.8606,3.8321,3.8385,3.8149,3.8139,3.8313,3.8318,3.8246,3.8304,3.8143,3.816,3.8304,3.8167,3.7949,3.7783,3.824,3.8376,3.7286,3.7933,3.8815,3.4383,3.4148,3.4148,3.3984,0.0,3.3702,3.3507,3.3178,3.3086,3.296,3.2846,3.2836,3.2849,3.2836,3.2983,3.3106,3.3232,3.3344,3.3456,3.3509,3.327,3.313,3.313,3.2839,3.2745,3.2873,3.3356,3.3661,3.3825,3.4869,3.5446,3.5547,3.6081,3.6499,3.6775,3.6294,3.5882,3.5496,3.5168,3.4832,3.4481,3.3499,3.2512,3.154,3.0498,0.0,0.0,0.0,0.0,0.0,0.0,0.0,0.0,0.0,0.0,2.1361,2.1714,2.193,2.1969,2.2789,2.3585,2.4147,2.5289,2.5502,2.4434,2.6205,2.7365,2.7339,2.8902,2.9939,2.997,3.0884,3.1543,3.1557,3.1816,3.2241,3.287,3.3154,3.3834,3.5081,3.5435,3.5831,3.682,3.6926,3.733,3.8263,3.899,3.9589,4.0185,4.0031,3.9883,4.0027,3.9959,3.9823,3.957,3.9391,3.9504,3.9648,3.9697,3.978,4.0084,4.0118,4.0133,4.0104,3.9871,3.9678,3.9707,3.9381,3.8976,3.895,3.9031,3.8983,3.8338,3.8704,3.9132,3.5006,3.462,3.4607,3.4339,3.3868,3.3766,3.3664,3.3598,0.0,0.0,0.0,3.3575,3.3598,3.3586,3.3617,3.3757,3.3981,3.4065,3.4191,3.4322,3.3919,3.3741,3.3715,3.3231,3.3009,3.3029,3.3545,3.3696,3.3535,3.4652,3.5203,3.526,3.5763,3.6219,3.6518,3.6324,3.5974,3.5599,3.5451,3.5138,3.4572,3.3954,3.3087,3.2005,3.0986,2.9642,2.7926,2.7213,2.6224,2.4841,2.4278,2.387,2.3613,2.3366,2.3154,2.3043,2.3417,2.3646,2.3672,2.4773,2.5714,2.637,2.7815,2.8105,2.669,2.7987,2.8864,2.8843,3.0251,3.1179,3.1283,3.2225,3.2826,3.2721,3.279,3.312,3.3688,3.3876,3.4476,3.5957,3.6329,3.6941,3.8192,3.8388,3.8779,3.9551,4.0388,4.1414,4.1473,4.1001,4.0533,4.0426,4.0466,4.0159,4.0139,4.0192,4.0373,4.1049,4.1217,4.1493,4.1918,4.2082,4.2082,4.186,4.1599,4.1294,4.1202,4.0585,4.0032,4.0096,3.9833,3.9594,3.971,3.9759,3.972,3.4767,3.469,3.4691,3.4652,3.4539,3.406,3.3606,3.3197,3.3379,3.3345,3.3199,3.3199,3.3188,3.3199,3.3366,3.345,3.3526,3.3918,3.4118,3.4149,3.4249,3.428,3.428,3.4201,3.4162,3.4183,3.4471,3.4505,3.4379,3.5171,3.5615,3.5691,3.6278,3.666,3.6859,3.7139,3.6805,3.5857,3.5265,3.4955,3.4845,3.4355,3.402,3.3774,3.208,3.0924,3.0316,2.8272,2.686,2.6218,2.5278,2.4628,2.4386,2.4658,2.4804,2.4702,2.5152,2.5443,2.5474,2.6498,2.7616,2.8717,2.9475,2.9553,2.893,2.9484,3.0094,3.0591,3.1281,3.1908,3.2431,3.3051,3.3263,3.2842,3.3156,3.3465,3.3453,3.3742,3.4571,3.6132,3.666,3.742,3.8615,3.8831,3.9304,4.0269,4.0902,4.1238,4.2179,4.2694,4.2624,4.2372,4.2387,4.2332,4.1879,4.1973,4.1856,4.192,4.1903,4.1903,4.2049,4.2082,4.2082,4.2082,4.1976,4.1918,4.1903,4.188,4.155,4.1371,4.1199,4.1129,4.0992,4.0982,4.0696,3.5417,3.5156,3.5143,3.4966,3.4678,3.4438,3.4187,3.3972,3.4083,3.3717,3.3126,3.3113,3.3113,3.3113,3.3197,3.3292,3.342,3.3632,3.3844,3.4097,3.4191,3.4306,3.4387,3.4306,3.4233,3.4243,3.4348,3.4272,3.4092,3.4675,3.5046,3.5199,3.6034,3.6586,3.6783,3.6824,3.6721,3.6486,3.5804,3.5272,3.4902,3.4374,3.4098,3.409,3.2692,3.1448,3.0462,2.9077,2.7817,2.6698,2.6007,2.5694,2.5794,2.5948,2.6259,2.6789,2.7082,2.7362,2.7672,2.8438,2.9152,2.9697,3.0258,3.0611,3.0654,3.088,3.1132,3.1438,3.2222,3.2812,3.2965,3.3518,3.3708,3.3292,3.3253,3.3322,3.3661,3.4193,3.5125,3.6476,3.7536,3.8663,4.0042,4.0216,4.0573,4.1592,4.1774,4.2024,4.2473,4.2683,4.2753,4.2591,4.2607,4.2526,4.2294,4.2247,4.2206,4.2117,4.2092,4.2082,4.2082,4.2082,4.2082,4.2082,4.2082,4.2082,4.2082,4.2092,4.2062,4.2086,4.1737,4.1553,4.1542,4.1395,4.0933,3.6118,3.5694,3.5707,3.538,3.488,3.488,3.4816,3.4692,3.469,3.4237,3.3519,3.3456,3.3456,3.3456,3.3456,3.3543,3.3656,3.3607,3.3771,3.4088,3.4043,3.4107,3.4209,3.4073,3.4002,3.4013,3.4023,3.3863,3.3715,3.4052,3.4374,3.4693,3.5582,3.6187,3.6478,3.6371,3.6434,3.6667,3.6188,3.5603,3.4947,3.4327,3.3996,3.3895,3.3066,3.1965,3.0627,2.9941,2.8933,2.7574,2.7173,2.7146,2.7428,2.7339,2.7692,2.8494,2.8599,2.8861,2.9418,2.9857,3.0153,3.0305,3.0846,3.1365,3.1745,3.2068,3.2212,3.2303,3.2968,3.3424,3.3426,3.3584,3.3743,3.3516,3.3159,3.3171,3.3805,3.4661,3.5719,3.7014,3.8308,3.9596,4.0836,4.1278,4.153,4.2143,4.2516,4.2479,4.2366,4.2335,4.2335,4.2345,4.2335,4.2284,4.2113,4.2092,4.2102,4.2082,4.2082,4.2082,4.2082,4.2082,4.2082,4.2082,4.2082,4.2082,4.2082,4.2082,4.2156,4.2249,4.1993,4.175,4.1921,4.1568,4.1129,3.6368,3.633,3.6292,3.5993,3.5457,3.5432,3.518,3.4778,3.4704,3.4653,3.4564,3.4564,3.4551,3.4552,3.4515,3.4512,3.4508,3.4256,3.4159,3.4159,3.3881,3.3744,3.3825,3.3744,3.3723,3.3747,3.3723,3.3632,3.3439,3.3662,3.3989,3.4439,3.4946,3.5406,3.5777,3.6124,3.6139,3.5841,3.5934,3.5709,3.5096,3.4418,3.4016,3.3822,3.3204,3.2567,3.1799,3.0999,3.0176,2.9587,2.9248,2.914,2.9074,2.9052,2.9105,2.9223,2.9227,2.9475,2.9966,3.0052,3.038,3.0878,3.1425,3.1768,3.1902,3.2806,3.3417,3.3374,3.3292,3.3462,3.3892,3.3405,3.3013,3.3002,3.2913,3.3134,3.374,3.4797,3.6088,3.7467,3.8414,3.9534,4.0513,4.0954,4.127,4.1829,4.2115,4.2212,4.2175,4.2164,4.2154,4.2144,4.2133,4.2133,4.2082,4.2082,4.2082,4.2082,4.2082,4.2082,4.2082,4.2082,4.2082,4.2082,4.2082,4.2082,4.2082,4.2092,4.2164,4.2294,4.2269,4.2311,4.2455,4.2074,4.1538,3.6417,3.6417,3.6417,3.6256,3.6043,3.6043,3.5906,3.5716,3.5704,3.5704,3.5704,3.5704,3.5329,3.4704,3.4692,3.4692,3.469,3.4553,3.4564,3.4681,3.4223,3.4085,3.4191,3.372,3.3526,3.3503,3.3398,3.3292,3.3283,3.3418,3.362,3.3831,3.4272,3.4712,3.511,3.5423,3.5674,3.5859,3.5495,3.5218,3.5036,3.4359,3.3781,3.3318,3.2865,3.2282,3.1602,3.0975,3.0338,2.9689,2.9478,2.9502,2.9771,2.9766,2.9932,3.0251,3.0299,3.0417,3.062,3.0928,3.121,3.1454,3.1999,3.2466,3.2832,3.3326,3.3557,3.3431,3.3329,3.333,3.3315,3.2693,3.2316,3.2439,3.2473,3.2766,3.345,3.474,3.5939,3.69,3.8067,3.9182,4.0111,4.0848,4.1325,4.1671,4.1933,4.2071,4.2082,4.2082,4.2082,4.2082,4.2082,4.2082,4.2082,4.2082,4.2082,4.2082,4.2082,4.2082,4.2082,4.2082,4.2082,4.2082,4.2082,4.2082,4.2082,4.2092,4.2148,4.2222,4.2212,4.2253,4.2335,4.2228,4.2017,3.6417,3.6417,3.6417,3.6417,3.6417,3.6417,3.6417,3.6417,3.6417,3.6417,3.6417,3.6417,3.5942,3.5253,3.5153,3.5165,3.5152,3.5004,3.502,3.5126,3.4608,3.4454,3.4546,3.4049,3.3747,3.3749,3.3633,3.3468,3.3339,3.3278,3.3358,3.3452,3.3749,3.4097,3.4429,3.4678,3.5041,3.5386,3.4932,3.4683,3.4572,3.4036,3.3472,3.2931,3.2436,3.1852,3.1191,3.0902,3.0491,2.987,2.9781,2.9937,3.0305,3.0345,3.0555,3.0944,3.1143,3.1231,3.1235,3.1738,3.2042,3.2081,3.2597,3.3127,3.3472,3.3546,3.3452,3.3314,3.3072,3.281,3.2787,3.2275,3.2095,3.2386,3.2543,3.2967,3.3758,3.49,3.5892,3.6636,3.7727,3.8769,3.9678,4.0516,4.1135,4.1426,4.1758,4.204,4.2071,4.2082,4.2082,4.2082,4.2082,4.2082,4.2082,4.2082,4.2082,4.2082,4.2082,4.2082,4.2082,4.2082,4.2082,4.2082,4.2082,4.2082,4.2082,4.2092,4.2107,4.2092,4.2092,4.2102,4.2144,4.2218,4.2275,3.6417,3.6417,3.6417,3.6417,3.6417,3.6417,3.6417,3.6417,3.6417,3.6417,3.6417,3.6417,3.6368,3.6256,3.6205,3.6305,3.6205,3.5694,3.5481,3.5454,3.495,3.4688,3.4699,3.4663,3.4625,3.4522,3.4487,3.4275,3.3859,3.3377,3.3208,3.3424,3.3454,3.3535,3.3787,3.4052,3.417,3.4283,3.4363,3.4169,3.367,3.3394,3.3087,3.2719,3.2033,3.1493,3.1101,3.1017,3.0865,3.0667,3.0759,3.0914,3.0953,3.094,3.0953,3.1061,3.1477,3.1758,3.1833,3.2323,3.2672,3.2748,3.3218,3.3574,3.3609,3.3444,3.3306,3.3273,3.2526,3.2202,3.2577,3.2365,3.242,3.3013,3.3519,3.4008,3.4574,3.5352,3.6189,3.6917,3.7607,3.8372,3.9225,3.9913,4.0531,4.099,4.1426,4.18,4.202,4.2071,4.2082,4.2082,4.2082,4.2082,4.2082,4.2082,4.2082,4.2082,4.2082,4.2082,4.2082,4.2082,4.2082,4.2082,4.2082,4.2082,4.2082,4.2092,4.2092,4.2082,4.2082,4.2092,4.2082,4.2082,4.2144,3.6417,3.6417,3.6417,3.6417,3.6417,3.6417,3.6417,3.6417,3.6417,3.6417,3.6417,3.6417,3.6417,3.6417,3.6417,3.6417,3.638,3.6168,3.6081,3.6018,3.5481,3.5206,3.5169,3.4867,3.4692,3.4692,3.4692,3.4603,3.4388,3.3883,3.3639,3.3629,3.3359,3.3315,3.3484,3.36,3.3717,3.3831,3.3926,3.3831,3.3591,3.3222,3.2946,3.2817,3.2182,3.1785,3.1641,3.1445,3.129,3.1213,3.1073,3.1005,3.1005,3.1005,3.1166,3.1477,3.1689,3.1977,3.2388,3.2924,3.327,3.3313,3.3783,3.4009,3.3869,3.355,3.3183,3.2854,3.2574,3.25,3.2697,3.2483,3.2593,3.347,3.4098,3.464,3.5166,3.581,3.646,3.7058,3.7675,3.8304,3.8778,3.9419,4.002,4.0506,4.1089,4.1528,4.18,4.1974,4.2061,4.2082,4.2082,4.2082,4.2082,4.2082,4.2082,4.2082,4.2082,4.2082,4.2082,4.2082,4.2082,4.2082,4.2082,4.2082,4.2082,4.2082,4.2082,4.2082,4.2082,4.2082,4.2082,4.2082,4.2082,3.6417,3.6417,3.6417,3.6417,3.6417,3.6417,3.6417,3.6417,3.6417,3.6417,3.6417,3.6417,3.6417,3.6417,3.6417,3.6417,3.6417,3.6393,3.6406,3.6368,3.5981,3.5794,3.5719,3.5404,3.5253,3.5228,3.5042,3.4966,3.4892,3.4426,3.4175,3.4135,3.3619,3.3431,3.3523,3.3403,3.3377,3.3481,3.3503,3.3503,3.3441,3.3161,3.297,3.2907,3.2566,3.2202,3.1931,3.1761,3.1696,3.1674,3.1603,3.1554,3.1545,3.1545,3.1715,3.2042,3.2277,3.2558,3.2983,3.3532,3.3849,3.3862,3.41,3.4191,3.3859,3.3214,3.2772,3.2601,3.2511,3.2687,3.3386,3.3422,3.3599,3.435,3.4926,3.5379,3.5744,3.6155,3.6531,3.6932,3.7433,3.7916,3.834,3.8821,3.9386,3.9987,4.0598,4.1029,4.1405,4.1608,4.1835,4.1929,4.1939,4.1995,4.2047,4.2082,4.2082,4.2082,4.2082,4.2082,4.2082,4.2082,4.2082,4.2082,4.2082,4.2082,4.2082,4.2082,4.2082,4.2082,4.2082,4.2082,4.2082,4.2082,4.2102,3.6417,3.6417,3.6417,3.6417,3.6417,3.6417,3.6417,3.6417,3.6417,3.6417,3.6417,3.6417,3.6417,3.6417,3.6417,3.6417,3.6417,3.6417,3.6417,3.638,3.6355,3.633,3.6318,3.6255,3.6217,3.6205,3.5757,3.5519,3.5482,3.4992,3.4703,3.4615,3.4175,3.3932,3.3908,3.3487,3.3174,3.3206,3.3205,3.3133,3.3113,3.3106,3.3079,3.3093,3.3043,3.2651,3.1823,3.2,3.2138,3.2176,3.2415,3.2659,3.2551,3.2551,3.2656,3.2751,3.3231,3.3532,3.3639,3.4071,3.4296,3.4272,3.4204,3.3869,3.3436,3.2595,3.2212,3.2642,3.2653,3.297,3.4413,3.5004,3.5282,3.5545,3.5905,3.6205,3.6318,3.638,3.6487,3.6722,3.7037,3.7341,3.7767,3.8167,3.8664,3.9328,3.987,4.0318,4.0866,4.1064,4.1244,4.1542,4.1733,4.1841,4.196,4.2082,4.2082,4.2082,4.2082,4.2082,4.2082,4.2082,4.2082,4.2082,4.2082,4.2082,4.2082,4.2082,4.2082,4.2082,4.2082,4.2082,4.2082,4.2092,4.2119,3.6417,3.6417,3.6417,3.6417,3.6417,3.6417,3.6417,3.6417,3.6417,3.6417,3.6417,3.6417,3.6417,3.6417,3.6417,3.6417,3.6417,3.6417,3.6417,3.6417,3.6417,3.6417,3.6417,3.6417,3.6417,3.638,3.623,3.6118,3.5994,3.5543,3.5244,3.5143,3.4715,3.4476,3.4426,3.3924,3.3646,3.3619,3.3278,3.3113,3.3113,3.3113,3.3113,3.3113,3.3113,3.2923,3.2693,3.2673,3.2726,3.2843,3.2758,3.2682,3.2695,3.2682,3.2881,3.3284,3.348,3.3793,3.412,3.4293,3.4397,3.4288,3.3892,3.3617,3.3505,3.2822,3.271,3.3383,3.3731,3.434,3.5118,3.578,3.6068,3.6106,3.6305,3.6417,3.6429,3.651,3.6616,3.671,3.6945,3.7178,3.7375,3.7675,3.812,3.8576,3.9215,3.9848,4.0229,4.0631,4.1011,4.1212,4.1437,4.1677,4.1841,4.1995,4.2082,4.2082,4.2082,4.2082,4.2082,4.2082,4.2082,4.2082,4.2082,4.2082,4.2082,4.2082,4.2082,4.2082,4.2082,4.2082,4.2082,4.2123,4.217,3.6417,3.6417,3.6417,3.6417,3.6417,3.6417,3.6417,3.6417,3.6417,3.6417,3.6417,3.6417,3.6417,3.6417,3.6417,3.6417,3.6417,3.6417,3.6417,3.6417,3.6417,3.6417,3.6417,3.6417,3.6417,3.6417,3.6417,3.6417,3.638,3.6043,3.5844,3.5756,3.5269,3.5005,3.4954,3.4477,3.4187,3.4112,3.3684,3.338,3.3343,3.3203,3.3113,3.3113,3.3113,3.3133,3.3193,3.3195,3.3255,3.3369,3.3336,3.3339,3.3326,3.3362,3.3519,3.3793,3.3911,3.4055,3.4345,3.4384,3.429,3.4066,3.3706,3.3413,3.3371,3.2947,3.3217,3.4081,3.4463,3.5028,3.573,3.6143,3.6393,3.6406,3.6393,3.6417,3.6441,3.6498,3.6569,3.6617,3.6723,3.6863,3.7038,3.719,3.7537,3.7817,3.8449,3.9024,3.9366,3.9884,4.0278,4.0734,4.1117,4.1381,4.1667,4.1873,4.2071,4.2082,4.2082,4.2082,4.2082,4.2082,4.2082,4.2082,4.2082,4.2082,4.2082,4.2082,4.2082,4.2082,4.2092,4.2144,4.2175,4.2222,4.2294,3.6417,3.6417,3.6417,3.6417,3.6417,3.6417,3.6417,3.6417,3.6417,3.6417,3.6417,3.6417,3.6417,3.6417,3.6417,3.6417,3.6417,3.6417,3.6417,3.6417,3.6417,3.6417,3.6417,3.6417,3.6417,3.6417,3.6417,3.6417,3.6393,3.633,3.6417,3.6268,3.5819,3.5557,3.5468,3.5029,3.4729,3.4678,3.4236,3.3935,3.3834,3.3431,3.3151,3.3126,3.3113,3.3176,3.3313,3.3503,3.3672,3.3784,3.408,3.4214,3.4332,3.4395,3.4293,3.4332,3.4382,3.4303,3.4356,3.4382,3.4175,3.3739,3.3674,3.3538,3.3276,3.3379,3.3727,3.4626,3.4877,3.5303,3.6117,3.638,3.6417,3.6417,3.6417,3.6417,3.6417,3.6405,3.644,3.6441,3.6417,3.6464,3.6674,3.673,3.6811,3.714,3.7625,3.7972,3.8445,3.9067,3.9566,4.0077,4.0617,4.1075,4.1349,4.1754,4.1964,4.2082,4.2082,4.2082,4.2082,4.2082,4.2082,4.2082,4.2082,4.2082,4.2082,4.2082,4.2082,4.2082,4.2133,4.2216,4.2284,4.2345,4.2469,3.6417,3.6417,3.6417,3.6417,3.6417,3.6417,3.6417,3.6417,3.6417,3.6417,3.6417,3.6417,3.6417,3.6417,3.6417,3.6417,3.6417,3.6417,3.6417,3.6417,3.6417,3.6417,3.6417,3.6417,3.6417,3.6417,3.6417,3.6417,3.6417,3.6417,3.6417,3.6417,3.6243,3.6131,3.6069,3.5569,3.5295,3.5218,3.4778,3.4288,3.3972,3.3809,3.3494,3.3138,3.3136,3.3145,3.3208,3.3513,3.3871,3.4199,3.4301,3.4387,3.4387,3.4387,3.4387,3.4387,3.4374,3.4214,3.3989,3.4214,3.4136,3.3677,3.3772,3.3841,3.4142,3.4237,3.4622,3.5218,3.5656,3.6041,3.6343,3.6417,3.6417,3.6417,3.6417,3.6417,3.6417,3.6417,3.6417,3.6417,3.6417,3.644,3.6386,3.6348,3.639,3.6848,3.7166,3.7419,3.7881,3.8504,3.9122,3.9543,4.0044,4.0606,4.1075,4.1535,4.1841,4.2036,4.2082,4.2082,4.2082,4.2082,4.2082,4.2082,4.2082,4.2082,4.2082,4.2082,4.2082,4.2113,4.2212,4.2325,4.2412,4.2504,4.2678,3.6595,3.6417,3.6417,3.6417,3.6417,3.6417,3.6417,3.6417,3.6417,3.6417,3.6417,3.6417,3.6417,3.6417,3.6417,3.6417,3.6417,3.6417,3.6417,3.6417,3.6417,3.6417,3.6417,3.6417,3.6417,3.6417,3.6417,3.6417,3.6417,3.6417,3.6417,3.6417,3.6417,3.6417,3.6355,3.6093,3.5869,3.5781,3.533,3.4855,3.4603,3.4339,3.4013,3.3653,3.3557,3.3537,3.3568,3.3759,3.4042,3.4314,3.4387,3.4387,3.4387,3.4387,3.4387,3.4387,3.4387,3.4251,3.412,3.4437,3.4478,3.4145,3.4188,3.4565,3.4846,3.501,3.5269,3.5831,3.6218,3.6368,3.6417,3.6417,3.6417,3.6417,3.6417,3.6417,3.6417,3.6417,3.6417,3.6417,3.6393,3.6268,3.6106,3.6056,3.6129,3.6297,3.663,3.6918,3.7292,3.8017,3.8607,3.9,3.9508,4.0085,4.0659,4.1142,4.1556,4.1783,4.2026,4.2036,4.2061,4.2071,4.2082,4.2082,4.2082,4.2092,4.2092,4.2113,4.2175,4.2222,4.2345,4.2484,4.2602,4.2703,4.2875,3.6909,3.6468,3.6443,3.6417,3.6417,3.6417,3.6417,3.6417,3.6417,3.6417,3.6417,3.6417,3.6417,3.6417,3.6417,3.6417,3.6417,3.6417,3.6417,3.6417,3.6417,3.6417,3.6417,3.6417,3.6417,3.6417,3.6417,3.6417,3.6417,3.6417,3.6417,3.6417,3.6417,3.6417,3.6393,3.6343,3.6393,3.6256,3.5868,3.5518,3.5317,3.4999,3.467,3.4336,3.4333,3.436,3.4296,3.427,3.4334,3.4515,3.4447,3.4397,3.4387,3.4387,3.4387,3.4387,3.4387,3.4371,3.4473,3.4842,3.5064,3.4677,3.5128,3.5508,3.5534,3.5613,3.5852,3.6243,3.6393,3.6417,3.6417,3.6417,3.6417,3.6417,3.6417,3.6417,3.6417,3.6417,3.6417,3.6417,3.6417,3.6106,3.5931,3.5916,3.6084,3.6222,3.6423,3.6597,3.6955,3.7508,3.798,3.8313,3.8919,3.9593,4.0175,4.0738,4.1142,4.1493,4.1825,4.1964,4.1995,4.2016,4.2071,4.2082,4.2082,4.2092,4.2107,4.2144,4.2247,4.2366,4.2494,4.2693,4.2855,4.295,4.3086,3.7148,3.6985,3.6593,3.6417,3.6417,3.6417,3.6417,3.6417,3.6417,3.6417,3.6417,3.6417,3.6417,3.6417,3.6417,3.6417,3.6417,3.6417,3.6417,3.6417,3.6417,3.6417,3.6417,3.6417,3.6417,3.6417,3.6417,3.6417,3.6417,3.6417,3.6417,3.6417,3.6417,3.6417,3.6417,3.6417,3.6417,3.638,3.6243,3.5943,3.5677,3.5638,3.5397,3.5016,3.509,3.5273,3.53,3.4969,3.4858,3.4924,3.4724,3.4528,3.4424,3.4387,3.4424,3.4476,3.445,3.4424,3.4528,3.5012,3.5273,3.5269,3.585,3.6275,3.6122,3.6282,3.6369,3.6452,3.6417,3.6417,3.6417,3.6417,3.6417,3.6417,3.6417,3.6417,3.6417,3.6417,3.6417,3.6417,3.6393,3.633,3.618,3.5831,3.5948,3.6183,3.6312,3.6392,3.6708,3.7099,3.7405,3.7754,3.8313,3.8962,3.9516,4.0109,4.0638,4.1057,4.143,4.1706,4.1748,4.1949,4.2005,4.2036,4.2082,4.2092,4.2107,4.2257,4.2355,4.2494,4.2642,4.284,4.3006,4.3125,4.321,3.7675,3.7185,3.6896,3.6632,3.643,3.6417,3.6417,3.6417,3.6417,3.6417,3.6417,3.6417,3.6417,3.6417,3.6417,3.6417,3.6417,3.6417,3.6417,3.6417,3.6417,3.6417,3.6417,3.6417,3.6417,3.6417,3.6417,3.6417,3.6417,3.6417,3.6417,3.6417,3.6417,3.6417,3.6417,3.6417,3.6417,3.6417,3.6405,3.6253,3.6143,3.6197,3.6183,3.5819,3.5806,3.5848,3.5867,3.5661,3.5561,3.5557,3.5365,3.492,3.4489,3.4424,3.4515,3.4787,3.4829,3.4972,3.5236,3.572,3.6125,3.6085,3.6696,3.677,3.6697,3.6722,3.6578,3.6464,3.6417,3.6417,3.6417,3.6417,3.6417,3.6417,3.6417,3.6417,3.6417,3.6417,3.6417,3.6417,3.6417,3.6218,3.5994,3.5869,3.5793,3.6007,3.6332,3.6414,3.6461,3.6802,3.6953,3.7292,3.7789,3.8325,3.8852,3.9439,4.0096,4.0531,4.0919,4.1163,4.1311,4.1608,4.1939,4.1995,4.2061,4.2082,4.2123,4.2284,4.2478,4.2616,4.2759,4.2955,4.3115,4.321,4.325,3.8278,3.7311,3.7223,3.6896,3.6455,3.6417,3.6417,3.6417,3.6417,3.6417,3.6417,3.6417,3.6417,3.6417,3.6417,3.6417,3.6417,3.6417,3.6417,3.6417,3.6417,3.6417,3.6417,3.6417,3.6417,3.6417,3.6417,3.6417,3.6417,3.6417,3.6417,3.6417,3.6417,3.6417,3.6417,3.6417,3.6417,3.6417,3.6464,3.6534,3.6647,3.6727,3.6787,3.6771,3.6612,3.65,3.6508,3.6338,3.6229,3.6227,3.6151,3.5587,3.4972,3.4685,3.4829,3.5414,3.5417,3.5652,3.6085,3.6606,3.6933,3.7091,3.7376,3.7407,3.7177,3.6918,3.671,3.6546,3.6452,3.6417,3.6417,3.6417,3.6417,3.6417,3.6417,3.6417,3.6417,3.6417,3.6417,3.6417,3.6393,3.6256,3.6143,3.6055,3.5918,3.5869,3.6193,3.6429,3.6464,3.6535,3.6698,3.6826,3.7293,3.7698,3.82,3.881,3.9452,3.9804,4.0264,4.0606,4.0838,4.1248,4.1591,4.1922,4.202,4.2061,4.216,4.2351,4.252,4.2703,4.29,4.3095,4.322,4.3305,4.3305,3.8492,3.7826,3.7387,3.6884,3.6455,3.6417,3.6417,3.6417,3.6417,3.6417,3.6417,3.6417,3.6417,3.6417,3.6417,3.6417,3.6417,3.6417,3.6417,3.6417,3.6417,3.6417,3.6417,3.6358,3.6382,3.6417,3.637,3.6346,3.6406,3.6417,3.6417,3.6417,3.6417,3.6417,3.6417,3.6417,3.6405,3.6464,3.6545,3.6663,3.6827,3.713,3.7396,3.7526,3.7433,3.7442,3.739,3.7103,3.6867,3.6815,3.6371,3.6059,3.5876,3.5822,3.5887,3.5916,3.5968,3.624,3.6778,3.6948,3.7299,3.7614,3.779,3.7678,3.7447,3.7191,3.6933,3.6699,3.6523,3.6405,3.6417,3.6417,3.6417,3.6417,3.6417,3.6417,3.6417,3.6417,3.6417,3.6417,3.6393,3.638,3.6292,3.623,3.6168,3.6106,3.6268,3.6417,3.6429,3.6464,3.6534,3.6651,3.6792,3.7166,3.7562,3.8179,3.8767,3.8989,3.9422,3.999,4.0323,4.0806,4.1205,4.156,4.1877,4.2026,4.2176,4.2402,4.2561,4.2713,4.297,4.3235,4.328,4.3305,4.3305,3.8667,3.7977,3.7701,3.7148,3.6481,3.6417,3.6417,3.6417,3.6417,3.6417,3.6417,3.6417,3.6417,3.6417,3.6417,3.6417,3.6417,3.6417,3.6417,3.6417,3.6417,3.6417,3.6358,3.6264,3.6205,3.6158,3.6086,3.6169,3.6382,3.6406,3.6406,3.6417,3.6417,3.6417,3.6417,3.6417,3.6464,3.6545,3.6662,3.6862,3.7097,3.7517,3.776,3.7854,3.7911,3.7911,3.7836,3.7691,3.7469,3.7405,3.7194,3.7063,3.7011,3.6972,3.6856,3.6621,3.6569,3.6817,3.7327,3.7482,3.7639,3.7821,3.7911,3.7772,3.7563,3.7366,3.7168,3.6933,3.6686,3.6545,3.6557,3.6464,3.6417,3.6417,3.6417,3.6417,3.6417,3.6417,3.6441,3.6453,3.6417,3.6404,3.6393,3.6368,3.6393,3.6417,3.6417,3.6417,3.6417,3.6428,3.6464,3.651,3.6628,3.685,3.7166,3.7606,3.8089,3.8293,3.8733,3.9298,3.9804,4.028,4.0774,4.1212,4.1525,4.1897,4.2201,4.2392,4.2551,4.2729,4.302,4.325,4.328,4.3305,4.3305,3.8803,3.8002,3.8002,3.7387,3.6505,3.6417,3.6417,3.6417,3.6417,3.6417,3.6417,3.6417,3.6417,3.6417,3.6417,3.6417,3.6417,3.6417,3.6417,3.6381,3.6323,3.6311,3.6252,3.6027,3.5848,3.5884,3.568,3.5812,3.6193,3.6287,3.6346,3.6394,3.6417,3.6417,3.6417,3.6464,3.6582,3.6675,3.685,3.7132,3.7528,3.7772,3.7911,3.7911,3.7911,3.7911,3.7887,3.7848,3.7833,3.7835,3.7821,3.7848,3.7885,3.7887,3.7665,3.7274,3.7196,3.7457,3.7717,3.7861,3.7835,3.7911,3.7911,3.7772,3.7645,3.753,3.7366,3.7133,3.6933,3.6733,3.6675,3.6558,3.6464,3.6429,3.644,3.6476,3.6511,3.6558,3.6653,3.6618,3.6499,3.6452,3.6465,3.6417,3.6417,3.6417,3.6417,3.6417,3.6417,3.6417,3.6428,3.6452,3.6546,3.6675,3.6886,3.7085,3.7445,3.7654,3.8224,3.8866,3.9309,3.9749,4.0312,4.099,4.1367,4.1717,4.2063,4.2423,4.2632,4.286,4.311,4.325,4.3295,4.3305,4.3305,3.8803,3.799,3.8002,3.7387,3.6468,3.6417,3.6417,3.6417,3.6417,3.6417,3.6417,3.6417,3.6417,3.6417,3.6417,3.6417,3.6417,3.6417,3.6394,3.6335,3.6169,3.6062,3.5955,3.55,3.5488,3.5536,3.5344,3.5572,3.5931,3.6063,3.6169,3.6299,3.6346,3.6417,3.6429,3.6558,3.6675,3.678,3.7168,3.7528,3.7772,3.7877,3.79,3.7911,3.7911,3.7911,3.7911,3.7911,3.7911,3.7911,3.7911,3.7911,3.7911,3.7911,3.7875,3.781,3.7797,3.7823,3.7887,3.7911,3.7911,3.7911,3.7911,3.7877,3.7796,3.7634,3.7447,3.7144,3.7062,3.698,3.6839,3.671,3.6593,3.6582,3.6617,3.6651,3.6686,3.6769,3.6852,3.684,3.6769,3.6605,3.6535,3.6465,3.6417,3.6417,3.6417,3.6417,3.6417,3.6417,3.6417,3.6441,3.6523,3.6639,3.684,3.7003,3.7201,3.7295,3.7916,3.8587,3.902,3.9574,4.024,4.0834,4.122,4.1727,4.2224,4.2561,4.2749,4.295,4.315,4.324,4.3305,4.3305,4.3305,3.8394,3.7804,3.7928,3.7374,3.6468,3.6417,3.6417,3.6417,3.6417,3.6417,3.6417,3.6417,3.6417,3.6417,3.6417,3.6417,3.6417,3.6417,3.6311,3.6205,3.6027,3.5836,3.556,3.5308,3.5247,3.5114,3.509,3.5296,3.5633,3.58,3.5847,3.5979,3.6109,3.6276,3.6405,3.6592,3.6862,3.7155,3.7505,3.7785,3.7877,3.7911,3.7911,3.7911,3.7911,3.7911,3.7911,3.7911,3.7911,3.7911,3.7911,3.7911,3.7911,3.7911,3.79,3.79,3.7887,3.7887,3.7911,3.7911,3.7911,3.7911,3.7911,3.79,3.7877,3.7808,3.7691,3.7575,3.7413,3.7261,3.712,3.7015,3.691,3.6863,3.6863,3.6874,3.6932,3.7003,3.705,3.7038,3.7027,3.6899,3.6724,3.6594,3.6523,3.6499,3.6487,3.6476,3.6453,3.6417,3.6417,3.6417,3.6511,3.6627,3.6851,3.705,3.7388,3.7596,3.8111,3.8677,3.8977,3.9508,4.0294,4.0823,4.1209,4.1754,4.2373,4.2638,4.2769,4.2945,4.3155,4.324,4.3305,4.3305,4.3305,3.7693,3.7443,3.7829,3.7387,3.643,3.6417,3.6417,3.6417,3.6417,3.6417,3.6417,3.6417,3.6417,3.6417,3.6417,3.6417,3.6417,3.6417,3.6241,3.6074,3.5872,3.5584,3.5247,3.503,3.4908,3.4799,3.4848,3.5138,3.5476,3.5644,3.5704,3.5788,3.6086,3.6216,3.6393,3.6616,3.6921,3.7411,3.7714,3.7877,3.7911,3.7911,3.7911,3.7911,3.7911,3.7911,3.7911,3.7911,3.7911,3.7911,3.7911,3.7911,3.7911,3.7911,3.7911,3.7911,3.7911,3.7911,3.7911,3.7911,3.7911,3.7911,3.7911,3.7911,3.79,3.7911,3.79,3.7829,3.7726,3.7599,3.7495,3.7284,3.7156,3.7121,3.7144,3.7166,3.7201,3.7295,3.7365,3.74,3.7365,3.7237,3.7051,3.6781,3.6664,3.6605,3.657,3.6558,3.6558,3.6559,3.6618,3.6677,3.6851,3.7002,3.7222,3.7422,3.7641,3.8088,3.8609,3.9022,3.9475,3.9946,4.0595,4.1015,4.1346,4.1916,4.2613,4.2694,4.2789,4.304,4.324,4.326,4.3305,4.3305,4.3305,3.6617,3.6917,3.7655,3.7362,3.6417,3.6417,3.6417,3.6417,3.6417,3.6417,3.6417,3.6417,3.6417,3.6417,3.6417,3.6417,3.6417,3.6417,3.6217,3.5979,3.5704,3.5344,3.4981,3.4726,3.4665,3.4787,3.4896,3.5199,3.55,3.5692,3.5931,3.6263,3.6228,3.6322,3.6428,3.657,3.698,3.7436,3.7726,3.7877,3.79,3.7911,3.7911,3.7911,3.7911,3.7911,3.7911,3.7911,3.7911,3.7911,3.7911,3.7911,3.7911,3.7911,3.7911,3.7911,3.7911,3.7911,3.7911,3.7911,3.7911,3.7911,3.7911,3.7911,3.7911,3.7874,3.7874,3.7848,3.774,3.7697,3.7572,3.7447,3.739,3.7355,3.7401,3.7447,3.7517,3.7657,3.7714,3.776,3.7691,3.7528,3.7447,3.7215,3.6958,3.6875,3.6851,3.684,3.6887,3.6898,3.6968,3.7073,3.7307,3.7526,3.7797,3.8128,3.8693,3.9184,3.967,3.9954,4.0258,4.0724,4.1128,4.1426,4.1837,4.2338,4.2709,4.2795,4.2905,4.316,4.3305,4.3305,4.3305,4.3305,4.3305,3.5979,3.5867,3.6504,3.6637,3.6417,3.6417,3.6417,3.6417,3.6417,3.6417,3.6417,3.6417,3.6417,3.6393,3.6406,3.6417,3.6417,3.6417,3.6121,3.586,3.5584,3.5175,3.4811,3.4799,3.4896,3.4945,3.5126,3.5572,3.6038,3.5943,3.6169,3.6394,3.6311,3.6051,3.6086,3.6464,3.6968,3.7366,3.7611,3.7726,3.79,3.7911,3.7911,3.7911,3.7911,3.7911,3.7911,3.7911,3.7911,3.7911,3.7911,3.7911,3.7911,3.7911,3.7911,3.7911,3.7911,3.7911,3.7911,3.7911,3.7911,3.7911,3.7911,3.7887,3.7821,3.7612,3.764,3.764,3.7601,3.7506,3.7757,3.7737,3.7716,3.7645,3.7634,3.7691,3.7762,3.7854,3.7877,3.7842,3.7831,3.7762,3.7714,3.7657,3.739,3.7168,3.7144,3.712,3.7179,3.7237,3.7295,3.7479,3.7721,3.8156,3.8434,3.9095,3.9801,4.0247,4.0667,4.087,4.1075,4.1352,4.1732,4.202,4.2209,4.2556,4.2785,4.2875,4.3026,4.323,4.329,4.3305,4.3305,4.3305,4.3305,3.4948,3.5005,3.5275,3.5661,3.6039,3.6216,3.6263,3.6299,3.637,3.6417,3.6417,3.6417,3.6417,3.6368,3.618,3.6106,3.6018,3.5895,3.5724,3.5549,3.5385,3.5149,3.5066,3.5151,3.5416,3.5356,3.568,3.6192,3.6428,3.6287,3.6311,3.6323,3.6264,3.6039,3.5967,3.6299,3.6875,3.7261,3.7494,3.7645,3.7865,3.7911,3.7911,3.7911,3.7911,3.7911,3.7911,3.7911,3.7911,3.7911,3.7911,3.7911,3.7911,3.7911,3.7911,3.79,3.7887,3.7887,3.7887,3.7911,3.7911,3.7911,3.7911,3.7808,3.7599,3.7353,3.7588,3.7483,3.7377,3.7442,3.7887,3.7865,3.7854,3.7772,3.7783,3.7831,3.7842,3.79,3.79,3.7888,3.7968,3.8192,3.8299,3.8292,3.8042,3.7739,3.7518,3.7482,3.7482,3.7528,3.7586,3.7826,3.8132,3.8641,3.9153,3.9801,4.0441,4.0933,4.1328,4.1646,4.1875,4.2087,4.2247,4.2466,4.2633,4.2769,4.29,4.3046,4.3155,4.326,4.329,4.3305,4.3305,4.3305,4.3305,3.3392,3.4342,3.4092,3.4434,3.5065,3.5776,3.5967,3.6015,3.624,3.637,3.6358,3.6358,3.6296,3.6183,3.575,3.5586,3.541,3.5094,3.4968,3.5098,3.5161,3.5258,3.5493,3.5688,3.589,3.6248,3.645,3.658,3.6621,3.6465,3.6339,3.6063,3.5927,3.6043,3.5989,3.6252,3.664,3.7073,3.7378,3.7599,3.7842,3.7911,3.7911,3.79,3.7769,3.773,3.7717,3.7717,3.7704,3.7717,3.7861,3.7887,3.7911,3.7911,3.7874,3.7808,3.7821,3.7821,3.7823,3.7848,3.7743,3.7704,3.7612,3.7416,3.7246,3.73,3.747,3.7222,3.7403,3.7691,3.7874,3.79,3.79,3.7911,3.7911,3.7991,3.8018,3.8096,3.8135,3.8383,3.8566,3.8725,3.8907,3.896,3.8713,3.8404,3.8022,3.7869,3.7826,3.7785,3.7795,3.8146,3.8508,3.9064,3.964,4.0434,4.1064,4.1573,4.1906,4.2117,4.2322,4.246,4.2649,4.2895,4.2965,4.2996,4.313,4.3295,4.329,4.329,4.329,4.3305,4.3305,4.3305,4.3305,3.1454,3.1692,3.1916,3.2164,3.2703,3.4631,3.5464,3.5548,3.5908,3.6121,3.6134,3.6134,3.5778,3.5458,3.5314,3.5085,3.4773,3.4858,3.4791,3.461,3.4785,3.5055,3.5377,3.5785,3.6144,3.6539,3.6802,3.6672,3.6404,3.6303,3.5875,3.5529,3.5386,3.5519,3.5981,3.63,3.6417,3.698,3.7237,3.7423,3.7816,3.7848,3.7835,3.7797,3.747,3.7312,3.7312,3.7312,3.7312,3.7364,3.751,3.7756,3.7782,3.7782,3.7639,3.7418,3.7287,3.7103,3.6867,3.6711,3.6895,3.7024,3.6998,3.675,3.6502,3.6554,3.6713,3.7,3.7261,3.7573,3.7795,3.7887,3.7913,3.79,3.7965,3.8176,3.8293,3.8436,3.8579,3.9024,3.9286,3.9339,3.9456,3.9613,3.9443,3.9143,3.8777,3.8279,3.8103,3.7991,3.797,3.8421,3.8857,3.9441,4.008,4.0717,4.1312,4.1787,4.2115,4.2357,4.2571,4.2707,4.2855,4.2996,4.3105,4.3215,4.324,4.326,4.3305,4.3305,4.3305,4.3305,4.3305,4.3305,4.3305,3.0087,3.0185,3.0491,3.0662,3.1113,3.3289,3.4378,3.4581,3.4913,3.5067,3.5042,3.5113,3.4941,3.4574,3.4513,3.4512,3.4111,3.4099,3.4417,3.4229,3.4435,3.4913,3.5376,3.569,3.6042,3.6468,3.6596,3.648,3.5971,3.581,3.5522,3.5149,3.4758,3.5241,3.5696,3.5786,3.5856,3.6346,3.6607,3.6758,3.7055,3.7183,3.722,3.7103,3.6907,3.6684,3.6684,3.6698,3.6698,3.6817,3.7026,3.7312,3.7312,3.7233,3.7065,3.6778,3.6647,3.6488,3.6279,3.5913,3.6123,3.6279,3.6123,3.6123,3.6175,3.6449,3.6711,3.6935,3.7118,3.7495,3.7848,3.7928,3.8137,3.8161,3.8436,3.8672,3.8842,3.8999,3.9102,3.9535,3.9874,3.9914,4.0058,4.0162,4.0226,3.9886,3.9535,3.9037,3.8527,3.8378,3.8328,3.8713,3.9076,3.9542,4.0143,4.0827,4.1427,4.1989,4.2242,4.2409,4.2623,4.2762,4.2927,4.3016,4.2965,4.2985,4.3135,4.3205,4.321,4.3265,4.3305,4.3305,4.3305,4.3305,4.3305,2.9285,2.9774,2.9823,2.9928,3.0449,3.1793,3.2747,3.3284,3.3331,3.3378,3.3377,3.3764,3.3762,3.3647,3.3558,3.3538,3.3525,3.3333,3.3654,3.402,3.4197,3.4835,3.5363,3.5698,3.5926,3.6049,3.6143,3.6056,3.5476,3.5171,3.5035,3.4962,3.4719,3.496,3.5049,3.5078,3.5283,3.582,3.6079,3.6237,3.6459,3.6358,3.6436,3.6371,3.6214,3.6109,3.6083,3.6085,3.6085,3.6125,3.6201,3.6201,3.6162,3.6123,3.6099,3.6072,3.6072,3.5903,3.5796,3.5404,3.543,3.5626,3.5848,3.5979,3.6175,3.6436,3.683,3.7118,3.7377,3.7691,3.7991,3.8306,3.8633,3.888,3.9181,3.9378,3.9535,3.9639,3.9678,3.9953,4.0292,4.0514,4.0816,4.0959,4.0697,4.0567,4.0279,4.0109,3.9586,3.8932,3.8931,3.9059,3.939,3.9597,4.0196,4.0877,4.1313,4.1821,4.2091,4.2288,4.2525,4.2678,4.2682,4.2684,4.2677,4.2708,4.2739,4.2915,4.311,4.3165,4.314,4.3285,4.3285,4.3305,4.3305,2.7886,2.8052,2.8208,2.8402,2.8783,2.9713,3.1112,3.2664,3.2794,3.2864,3.3039,3.3294,3.3053,3.2614,3.3034,3.3009,3.3024,3.3118,3.3386,3.3702,3.4031,3.4553,3.4984,3.5355,3.5681,3.592,3.5937,3.5609,3.5028,3.4619,3.4268,3.409,3.4284,3.4373,3.4446,3.4371,3.497,3.5434,3.5653,3.5782,3.5913,3.5953,3.5966,3.5924,3.565,3.5547,3.5521,3.5511,3.5511,3.5524,3.59,3.607,3.6109,3.6083,3.6007,3.5519,3.5208,3.4868,3.4865,3.4763,3.4868,3.5247,3.5537,3.5484,3.5772,3.6397,3.6974,3.7274,3.7653,3.8006,3.8359,3.8698,3.9051,3.9416,3.9716,3.9939,4.0083,4.0201,4.0266,4.0514,4.0841,4.0906,4.126,4.1234,4.1011,4.1012,4.0972,4.0828,4.0501,3.9795,3.9462,3.957,3.9656,3.9863,4.0281,4.0915,4.1258,4.161,4.1909,4.2154,4.2285,4.2385,4.2356,4.2424,4.253,4.2413,4.2237,4.2558,4.3152,4.2903,4.2858,4.308,4.3255,4.328,4.331,2.7335,2.743,2.7547,2.782,2.8196,2.864,2.9854,3.1216,3.1484,3.16,3.1774,3.2153,3.2159,3.1999,3.2509,3.2783,3.2653,3.3136,3.3468,3.3668,3.3907,3.4317,3.4675,3.4866,3.5069,3.5351,3.5361,3.5027,3.4567,3.4122,3.374,3.394,3.3876,3.4,3.4191,3.4336,3.4594,3.4968,3.521,3.5327,3.5418,3.5482,3.543,3.5428,3.5088,3.5012,3.4972,3.4962,3.4949,3.4946,3.5338,3.5417,3.5404,3.5378,3.5338,3.4905,3.4711,3.4528,3.4554,3.4776,3.4959,3.5299,3.568,3.6007,3.6201,3.6698,3.7103,3.7444,3.7928,3.8359,3.8725,3.909,3.9495,3.9899,4.0174,4.0448,4.0593,4.0737,4.0946,4.1155,4.1247,4.1234,4.1286,4.1286,4.1273,4.1207,4.1181,4.1142,4.0854,4.0345,4.0042,4.0019,4.0048,4.0148,4.0575,4.098,4.1373,4.1696,4.1892,4.2085,4.2136,4.2172,4.2203,4.2324,4.2481,4.2358,4.2276,4.2803,4.3251,4.2969,4.2837,4.3088,4.3275,4.3294,4.3305,2.7511,2.7701,2.7702,2.8066,2.8418,2.8546,2.8987,2.9508,2.9988,3.0011,3.0251,3.0771,3.1313,3.1626,3.2257,3.2616,3.2743,3.3163,3.3473,3.3681,3.3863,3.4156,3.4245,3.4364,3.4454,3.4384,3.4413,3.4551,3.4232,3.3979,3.3979,3.4107,3.4118,3.4212,3.4324,3.4345,3.4491,3.4585,3.4637,3.4653,3.4572,3.4465,3.4387,3.4489,3.4463,3.445,3.445,3.4413,3.4397,3.4421,3.4447,3.4515,3.4554,3.4567,3.4502,3.4476,3.4437,3.4424,3.4531,3.4855,3.5208,3.5704,3.6332,3.6737,3.6959,3.7077,3.7429,3.7627,3.8058,3.8372,3.8698,3.9064,3.9456,3.9809,4.0109,4.0397,4.0645,4.0842,4.1116,4.1286,4.1286,4.1286,4.1286,4.1286,4.1286,4.1286,4.1286,4.1286,4.1129,4.075,4.0605,4.0485,4.0527,4.0578,4.0771,4.1164,4.157,4.1851,4.1941,4.1995,4.2041,4.2055,4.2061,4.201,4.1969,4.2404,4.2579,4.2797,4.294,4.3121,4.3062,4.3218,4.3309,4.3329,4.3213,2.8172,2.8242,2.8583,2.8827,2.8954,2.9162,2.9324,2.9543,2.9943,3.025,3.0521,3.0971,3.1373,3.1717,3.231,3.2669,3.282,3.3174,3.3398,3.3545,3.3725,3.3873,3.3894,3.3945,3.3903,3.3937,3.4031,3.4212,3.4178,3.4178,3.4209,3.4272,3.4262,3.4283,3.4366,3.4366,3.4366,3.4387,3.4387,3.4387,3.4387,3.4387,3.4387,3.4387,3.4387,3.4387,3.4387,3.4387,3.4387,3.4397,3.4397,3.441,3.441,3.4387,3.4387,3.4387,3.4387,3.4387,3.4593,3.4988,3.5469,3.5966,3.6569,3.7142,3.7495,3.7601,3.7732,3.7875,3.8097,3.8385,3.8661,3.9051,3.9391,3.9718,3.9992,4.0293,4.0594,4.0868,4.1168,4.1207,4.1207,4.1194,4.1181,4.1234,4.1286,4.1286,4.1286,4.1286,4.1286,4.1064,4.1037,4.0945,4.1036,4.111,4.1161,4.1196,4.1535,4.176,4.1859,4.1912,4.1959,4.1882,4.1814,4.1456,4.1381,4.198,4.2258,4.1975,4.2194,4.282,4.3086,4.3154,4.3362,4.3446,4.3209,2.8523,2.8745,2.9116,2.9267,2.9324,2.9554,2.9726,2.9897,3.0306,3.0724,3.1071,3.1373,3.1661,3.1992,3.2517,3.281,3.2907,3.3227,3.3377,3.346,3.3556,3.3681,3.3691,3.367,3.3734,3.3755,3.3842,3.3989,3.4102,3.4073,3.4042,3.4105,3.4102,3.4157,3.423,3.4285,3.4324,3.4387,3.4387,3.441,3.441,3.441,3.4397,3.4387,3.4387,3.4387,3.4387,3.4387,3.4387,3.4387,3.4387,3.4387,3.4387,3.4387,3.4387,3.4387,3.4387,3.4397,3.4633,3.509,3.568,3.6164,3.6961,3.7599,3.7704,3.7795,3.7808,3.7965,3.8318,3.8594,3.8777,3.909,3.9378,3.9678,3.9757,3.9913,4.0044,4.0163,4.0318,4.0332,4.0345,4.0345,4.041,4.0697,4.0763,4.0919,4.0972,4.122,4.1246,4.109,4.1142,4.1168,4.1115,4.1207,4.1257,4.1243,4.1345,4.1572,4.1758,4.1871,4.191,4.1739,4.154,4.1431,4.149,4.1873,4.1974,4.1811,4.2215,4.2969,4.3063,4.3031,4.3253,4.341,4.3113,2.8943,2.9359,2.9612,2.9715,2.9772,2.9977,3.0216,3.0476,3.0847,3.1339,3.1738,3.1815,3.2091,3.2388,3.2671,3.2898,3.3068,3.3206,3.3313,3.3377,3.3515,3.3503,3.3535,3.3588,3.3588,3.362,3.3683,3.3713,3.3787,3.3787,3.3787,3.3713,3.3744,3.3821,3.3992,3.4118,3.4202,3.4304,3.4382,3.4465,3.4463,3.4424,3.441,3.4387,3.4387,3.4387,3.4387,3.4387,3.4387,3.4387,3.4387,3.4387,3.4387,3.4387,3.4387,3.4387,3.4387,3.4387,3.4593,3.526,3.5744,3.6319,3.7286,3.7756,3.7808,3.7911,3.7911,3.8044,3.8397,3.8579,3.8762,3.8881,3.9156,3.9352,3.9365,3.9443,3.9482,3.9574,3.9626,3.9638,3.9639,3.9639,3.9822,4.0096,4.0253,4.0423,4.0632,4.0946,4.1063,4.0789,4.0646,4.071,4.071,4.088,4.1181,4.122,4.1206,4.1373,4.1573,4.1771,4.184,4.1612,4.1569,4.1765,4.1892,4.1884,4.2046,4.2059,4.2575,4.2915,4.2908,4.2817,4.2997,4.3073,4.289,3.017,3.0646,3.0703,3.0792,3.0949,3.1005,3.116,3.1427,3.166,3.1968,3.2212,3.2441,3.2604,3.2669,3.2907,3.3068,3.3092,3.3176,3.3154,3.3199,3.3283,3.3251,3.3249,3.3358,3.3368,3.3409,3.3484,3.3545,3.3554,3.3617,3.3681,3.3649,3.366,3.3715,3.3768,3.3915,3.4107,3.4235,3.4478,3.4633,3.4855,3.475,3.4437,3.4387,3.4387,3.4387,3.4387,3.4387,3.4387,3.4387,3.4387,3.4387,3.4387,3.4387,3.4387,3.4387,3.4387,3.4387,3.4698,3.5182,3.56,3.6149,3.6959,3.7496,3.7652,3.7911,3.7911,3.7911,3.8122,3.8122,3.8227,3.8227,3.841,3.8516,3.8581,3.8764,3.887,3.9169,3.9404,3.9404,3.9404,3.9404,3.9443,3.9626,3.9691,3.9822,3.9913,4.0214,4.0528,4.0358,4.0162,4.0227,4.0292,4.071,4.1064,4.1037,4.105,4.1206,4.1309,4.1339,4.1389,4.1422,4.146,4.1622,4.1572,4.1493,4.1709,4.1982,4.2116,4.2318,4.2505,4.2602,4.2749,4.286,4.2759]},{"header":{"parameterUnit":"m.s-1","parameterCategory":1,"la1":31.0,"la2":29.5877,"lo1":-88.7671,"lo2":-86.6584,"dy":0.0162,"dx":0.0185,"nx":115,"ny":88,"refTime":"2024-06-11T06:00:00:Z","depth":0,"parameterNumber":3,"parameterNumberName":"V-component_of_WINDS"},"data":[0.0,0.0,0.0,0.0,0.0,0.0,0.0,0.0,0.0,0.0,0.0,0.0,0.0,0.0,0.0,0.0,0.0,0.0,0.0,0.0,0.0,0.0,0.0,0.0,0.0,0.0,0.0,0.0,0.0,0.0,0.0,0.0,0.0,0.0,0.0,0.0,0.0,0.0,0.0,0.0,0.0,0.0,0.0,0.0,0.0,0.0,0.0,0.0,0.0,0.0,0.0,0.0,0.0,0.0,0.0,0.0,0.0,0.0,0.0,0.0,0.0,0.0,0.0,0.0,0.0,0.0,0.0,0.0,0.0,0.0,0.0,0.0,0.0,0.0,0.0,0.0,0.0,0.0,0.0,0.0,0.0,0.0,0.0,0.0,0.0,0.0,0.0,0.0,0.0,0.0,0.0,0.0,0.0,0.0,0.0,0.0,0.0,0.0,0.0,0.0,0.0,0.0,0.0,0.0,0.0,0.0,0.0,0.0,0.0,0.0,0.0,0.0,0.0,0.0,0.0,0.0,0.0,0.0,0.0,0.0,0.0,0.0,0.0,0.0,0.0,0.0,0.0,0.0,0.0,0.0,0.0,0.0,0.0,0.0,0.0,0.0,0.0,0.0,0.0,0.0,0.0,0.0,0.0,0.0,0.0,0.0,0.0,0.0,0.0,0.0,0.0,0.0,0.0,0.0,0.0,0.0,0.0,0.0,0.0,0.0,0.0,0.0,0.0,0.0,0.0,0.0,0.0,0.0,0.0,0.0,0.0,0.0,0.0,0.0,0.0,0.0,0.0,0.0,0.0,0.0,0.0,0.0,0.0,0.0,0.0,0.0,0.0,0.0,0.0,0.0,0.0,0.0,0.0,0.0,0.0,0.0,0.0,0.0,0.0,0.0,0.0,0.0,0.0,0.0,0.0,0.0,0.0,0.0,0.0,0.0,0.0,0.0,0.0,0.0,0.0,0.0,0.0,0.0,0.0,0.0,0.0,0.0,0.0,0.0,0.0,0.0,0.0,0.0,0.0,0.0,0.0,0.0,0.0,0.0,0.0,0.0,0.0,0.0,0.0,0.0,0.0,0.0,0.0,0.0,0.0,0.0,0.0,0.0,0.0,0.0,0.0,0.0,0.0,0.0,0.0,0.0,0.0,0.0,0.0,0.0,0.0,0.0,0.0,0.0,0.0,0.0,0.0,0.0,0.0,0.0,0.0,0.0,0.0,0.0,0.0,0.0,0.0,0.0,0.0,0.0,0.0,0.0,0.0,0.0,0.0,0.0,0.0,0.0,0.0,0.0,0.0,0.0,0.0,0.0,0.0,0.0,0.0,0.0,0.0,0.0,0.0,0.0,0.0,0.0,0.0,0.0,0.0,0.0,0.0,0.0,0.0,0.0,0.0,0.0,0.0,0.0,0.0,0.0,0.0,0.0,0.0,0.0,0.0,0.0,0.0,0.0,0.0,0.0,0.0,0.0,0.0,0.0,0.0,0.0,0.0,0.0,0.0,0.0,0.0,0.0,0.0,0.0,0.0,0.0,0.0,0.0,0.0,0.0,0.0,0.0,0.0,0.0,0.0,0.0,0.0,0.0,0.0,0.0,0.0,0.0,0.0,0.0,0.0,0.0,0.0,0.0,0.0,0.0,0.0,0.0,0.0,0.0,0.0,0.0,0.0,0.0,0.0,0.0,0.0,0.0,0.0,0.0,0.0,0.0,0.0,0.0,0.0,0.0,0.0,0.0,0.0,0.0,0.0,0.0,0.0,0.0,0.0,0.0,0.0,0.0,0.0,0.0,0.0,0.0,0.0,0.0,0.0,0.0,0.0,0.0,0.0,0.0,0.0,0.0,0.0,0.0,0.0,0.0,0.0,0.0,0.0,0.0,0.0,0.0,0.0,0.0,0.0,0.0,0.0,0.0,0.0,0.0,0.0,0.0,0.0,0.0,0.0,0.0,0.0,0.0,0.0,0.0,0.0,0.0,0.0,0.0,0.0,0.0,0.0,0.0,0.0,0.0,0.0,0.0,0.0,0.0,0.0,0.0,0.0,0.0,0.0,0.0,0.0,0.0,0.0,0.0,0.0,0.0,0.0,0.0,0.0,0.0,0.0,0.0,0.0,0.0,0.0,0.0,0.0,0.0,0.0,0.0,0.0,0.0,0.0,0.0,0.0,0.0,0.0,0.0,0.0,0.0,0.0,0.0,0.0,0.0,0.0,0.0,0.0,0.0,0.0,0.0,0.0,0.0,0.0,0.0,0.0,0.0,0.0,0.0,0.0,0.0,0.0,0.0,0.0,0.0,0.0,0.0,0.0,0.0,0.0,0.0,0.0,0.0,0.0,0.0,0.0,0.0,0.0,0.0,0.0,0.0,0.0,0.0,0.0,0.0,0.0,0.0,0.0,0.0,0.0,0.0,0.0,0.0,0.0,0.0,0.0,0.0,0.0,0.0,0.0,0.0,0.0,0.0,0.0,0.0,0.0,0.0,0.0,0.0,0.0,0.0,0.0,0.0,0.0,0.0,0.0,0.0,0.0,0.0,0.0,0.0,0.0,0.0,0.0,0.0,0.0,0.0,0.0,0.0,0.0,0.0,0.0,0.0,0.0,0.0,0.0,0.0,0.0,0.0,0.0,0.0,0.0,0.0,0.0,0.0,0.0,0.0,0.0,0.0,0.0,0.0,0.0,0.0,0.0,0.0,0.0,0.0,0.0,0.0,0.0,0.0,0.0,0.0,0.0,0.0,0.0,0.0,0.0,0.0,0.0,0.0,0.0,0.0,0.0,0.0,0.0,0.0,0.0,0.0,0.0,0.0,0.0,0.0,0.0,0.0,0.0,0.0,0.0,0.0,0.0,0.0,0.0,0.0,0.0,0.0,0.0,0.0,0.0,0.0,0.0,0.0,0.0,0.0,0.0,0.0,0.0,0.0,0.0,0.0,0.0,0.0,0.0,0.0,0.0,0.0,0.0,0.0,0.0,0.0,0.0,0.0,0.0,0.0,0.0,0.0,0.0,0.0,0.0,0.0,0.0,0.0,0.0,0.0,0.0,0.0,0.0,0.0,0.0,0.0,0.0,0.0,0.0,0.0,0.0,0.0,0.0,0.0,0.0,0.0,0.0,0.0,0.0,0.0,0.0,0.0,0.0,0.0,0.0,0.0,0.0,0.0,0.0,0.0,0.0,0.0,0.0,0.0,0.0,0.0,0.0,0.0,0.0,0.0,0.0,0.0,0.0,0.0,0.0,0.0,0.0,0.0,0.0,0.0,0.0,0.0,0.0,0.0,0.0,0.0,0.0,0.0,0.0,0.0,0.0,0.0,0.0,0.0,0.0,0.0,0.0,0.0,0.0,0.0,0.0,0.0,0.0,0.0,0.0,0.0,0.0,0.0,0.0,0.0,0.0,0.0,0.0,0.0,0.0,0.0,0.0,0.0,0.0,0.0,0.0,0.0,0.0,0.0,0.0,0.0,0.0,0.0,0.0,0.0,0.0,0.0,0.0,0.0,0.0,0.0,0.0,0.0,0.0,0.0,0.0,0.0,0.0,0.0,0.0,0.0,0.0,0.0,0.0,0.0,0.0,0.0,0.0,0.0,0.0,0.0,0.0,0.0,0.0,0.0,0.0,0.0,0.0,0.0,0.0,0.0,0.0,0.0,0.0,0.0,0.0,0.0,0.0,0.0,0.0,0.0,0.0,0.0,0.0,0.0,0.0,0.0,0.0,0.0,0.0,0.0,0.0,0.0,0.0,0.0,0.0,0.0,0.0,0.0,0.0,0.0,0.0,0.0,0.0,0.0,0.0,0.0,0.0,0.0,0.0,0.0,0.0,0.0,0.0,0.0,0.0,0.0,0.0,0.0,0.0,0.0,0.0,0.0,0.0,0.0,0.0,0.0,0.0,0.0,0.0,0.0,0.0,0.0,0.0,0.0,0.0,0.0,0.0,0.0,0.0,0.0,0.0,0.0,0.0,0.0,0.0,0.0,0.0,0.0,0.0,0.0,0.0,0.0,0.0,0.0,0.0,0.0,0.0,0.0,0.0,0.0,0.0,0.0,0.0,0.0,0.0,0.0,0.0,0.0,0.0,0.0,0.0,0.0,0.0,0.0,0.0,0.0,0.0,0.0,0.0,0.0,0.0,0.0,0.0,0.0,0.0,0.0,0.0,0.0,0.0,0.0,0.0,0.0,0.0,0.0,0.0,0.0,0.0,0.0,0.0,0.0,0.0,0.0,0.0,0.0,0.0,0.0,0.0,0.0,0.0,0.0,0.0,0.0,0.0,0.0,0.0,0.0,1.1428,0.0,0.0,0.0,0.0,0.0,0.0,0.0,0.0,0.0,0.0,0.0,0.0,0.0,0.0,0.0,0.0,0.0,0.0,0.0,0.0,0.0,0.0,0.0,0.0,0.0,0.0,0.0,0.0,0.0,0.0,0.0,0.0,0.0,0.0,0.0,0.0,0.0,0.0,0.0,0.0,0.0,0.0,0.0,0.0,0.0,0.0,0.0,0.0,0.0,0.0,0.0,0.0,0.0,0.0,0.0,0.0,0.0,0.0,0.0,0.0,0.0,0.0,0.0,0.0,0.0,0.0,0.0,0.0,0.0,0.0,0.0,0.0,0.0,0.0,0.0,0.0,0.0,0.0,0.0,0.0,0.0,0.0,0.0,0.0,0.0,0.0,0.0,0.0,0.0,0.0,0.0,0.0,0.0,0.0,0.0,0.0,0.0,0.0,0.0,0.0,0.0,0.0,0.0,0.0,0.0,0.0,0.0,0.0,0.0,0.0,1.2088,1.2088,1.2088,1.1899,1.1531,0.0,0.0,0.0,0.0,0.0,0.0,0.0,0.0,0.0,0.0,0.0,0.0,0.0,0.0,0.0,0.0,0.0,0.0,0.0,0.0,0.0,0.0,0.0,0.0,0.0,0.0,0.0,0.0,0.0,0.0,0.0,0.0,0.0,0.0,0.0,0.0,0.0,0.0,0.0,0.0,0.0,0.0,0.0,0.0,0.0,0.0,0.0,0.0,0.0,0.0,0.0,0.0,0.0,0.0,0.0,0.0,0.0,0.0,0.0,0.0,0.0,0.0,0.0,0.0,0.0,0.0,0.0,0.0,0.0,0.0,0.0,0.0,0.0,0.0,0.0,0.0,0.0,0.0,0.0,0.0,0.0,0.0,0.0,0.0,0.0,0.0,0.0,0.0,0.0,0.0,0.0,0.0,0.0,0.0,0.0,0.0,0.0,0.0,0.0,0.0,0.0,0.0,0.0,0.0,0.0,0.0,0.0,0.0,0.0,0.0,0.0,0.0,1.2088,1.1923,1.1593,0.0,0.0,0.0,0.0,0.0,0.0,0.0,0.0,0.0,0.0,0.0,0.0,0.0,0.0,0.0,0.0,0.0,0.0,0.0,0.0,0.0,0.0,0.0,0.0,0.0,0.0,0.0,0.0,0.0,0.0,0.0,0.0,0.0,0.0,0.0,0.0,0.0,0.0,0.0,0.0,0.0,0.0,0.0,0.0,0.0,0.0,0.0,0.0,0.0,0.0,0.0,0.0,0.0,0.0,0.0,0.0,0.0,0.0,0.0,0.0,0.0,0.0,0.0,0.0,0.0,0.0,0.0,0.0,0.0,0.0,0.0,0.0,0.0,0.0,0.0,0.0,0.0,0.0,0.0,0.0,0.0,0.0,0.0,0.0,0.0,0.0,0.0,0.0,0.0,0.0,0.0,0.0,0.0,0.0,0.0,0.0,0.0,0.0,0.0,0.0,0.0,0.0,0.0,0.0,0.0,0.0,0.0,0.0,0.0,0.0,1.2088,1.2088,1.2088,0.0,1.1798,0.0,0.0,0.0,0.0,0.0,0.0,0.0,0.0,0.0,0.0,0.0,0.0,0.0,0.0,0.0,0.0,0.0,0.0,0.0,0.0,0.0,0.0,0.0,0.0,0.0,0.0,0.0,0.0,0.0,0.0,0.0,0.0,0.0,0.0,0.0,0.0,0.0,0.0,0.0,0.0,0.0,0.0,0.0,0.0,0.0,0.0,0.0,0.0,0.0,0.0,0.0,0.0,0.0,0.0,0.0,0.0,0.0,0.0,0.0,0.0,0.0,0.0,0.0,0.0,0.0,0.0,0.0,0.0,0.0,0.0,0.0,0.0,0.0,0.0,0.0,0.0,0.0,0.0,0.0,0.0,0.0,0.0,0.0,0.0,0.0,0.0,0.0,0.0,0.0,0.0,0.0,0.0,0.0,0.0,0.0,0.0,0.0,0.0,0.0,0.0,0.0,0.0,0.0,0.0,0.0,0.0,0.0,0.0,0.0,0.0,1.2088,1.2088,1.1868,1.1653,0.0,0.0,0.0,0.0,0.0,0.0,0.0,0.0,0.0,0.0,0.0,0.0,0.0,0.0,0.0,0.0,0.0,0.0,0.0,0.0,0.0,0.0,0.0,0.0,0.0,0.0,0.0,0.0,0.0,0.0,0.0,0.0,0.0,0.0,0.0,0.0,0.0,0.0,0.0,0.0,0.0,0.0,0.0,0.0,0.0,0.0,0.0,0.0,0.0,0.0,0.0,0.0,0.0,0.0,0.0,0.0,0.0,0.0,0.0,0.0,0.0,0.0,0.0,0.0,0.0,0.0,0.0,0.0,0.0,0.0,0.0,0.0,0.0,0.0,0.0,0.0,0.0,0.0,0.0,0.0,0.0,0.0,0.0,0.0,0.0,0.0,0.0,0.0,0.0,0.0,0.0,0.0,0.0,0.0,0.0,0.0,0.0,0.0,0.0,0.0,0.0,0.0,0.0,0.0,0.0,0.0,0.0,0.0,0.0,0.0,1.2088,0.0,1.207,1.1718,1.1401,1.1209,0.0,0.0,0.0,0.0,0.0,0.0,0.0,0.0,0.0,0.0,0.0,0.0,0.0,0.0,0.0,0.0,0.0,0.0,0.0,0.0,0.0,0.0,0.0,0.0,0.0,0.0,0.0,0.0,0.0,0.0,0.0,0.0,0.0,0.0,0.0,0.0,0.0,0.0,0.0,0.0,0.0,0.0,0.0,0.0,0.0,0.0,0.0,0.0,0.0,0.0,0.0,0.0,0.0,0.0,0.0,0.0,0.0,0.0,0.0,0.0,0.0,0.0,0.0,0.0,0.0,0.0,0.0,0.0,0.0,0.0,0.0,0.0,0.0,0.0,0.0,0.0,0.0,0.0,0.0,0.0,0.0,0.0,0.0,0.0,0.0,0.0,0.0,0.0,0.0,0.0,0.0,0.0,0.0,0.0,0.0,0.0,0.0,0.0,0.0,0.0,0.0,0.0,0.0,0.0,0.0,0.0,0.0,0.0,0.0,1.2088,1.2088,1.2085,1.1721,1.1401,0.0,0.0,0.0,0.0,0.0,0.0,0.0,0.0,0.0,0.0,0.0,0.0,0.0,0.0,0.0,0.0,0.0,0.0,0.0,0.0,0.0,0.0,0.0,0.0,0.0,0.0,0.0,0.0,0.0,0.0,0.0,0.0,0.0,0.0,0.0,0.0,0.0,0.0,0.0,0.0,0.0,0.0,0.0,0.0,0.0,0.0,0.0,0.0,0.0,0.0,0.0,0.0,0.0,0.0,0.0,0.0,0.0,0.0,0.0,0.0,0.0,0.0,0.0,0.0,0.0,0.0,0.0,0.0,0.0,0.0,0.0,0.0,0.0,0.0,0.0,0.0,0.0,0.0,0.0,0.0,0.0,0.0,0.0,0.0,0.0,0.0,0.0,0.0,0.0,0.0,0.0,0.0,0.0,0.0,0.0,0.0,0.0,0.0,0.0,0.0,0.0,0.0,0.0,0.0,0.0,0.0,0.0,0.0,0.0,1.2088,1.2088,1.2088,1.2082,1.1469,1.1151,0.0,0.0,0.0,0.0,0.0,0.0,0.0,0.0,0.0,0.0,0.0,0.0,0.0,0.0,0.0,0.0,0.0,0.0,0.0,0.0,0.0,0.0,0.0,0.0,0.0,0.0,0.0,0.0,0.0,0.0,0.0,0.0,0.0,0.0,0.0,0.0,0.0,0.0,0.0,0.0,0.0,0.0,0.0,0.0,0.0,0.0,0.0,0.0,0.0,0.0,0.0,0.0,0.0,0.0,0.0,0.0,0.0,0.0,0.0,0.0,0.0,0.0,0.0,0.0,0.0,0.0,0.0,0.0,0.0,0.0,0.0,0.0,0.0,0.0,0.0,0.0,0.0,0.0,0.0,0.0,0.0,0.0,0.0,0.0,0.0,0.0,0.0,0.0,0.0,0.0,0.0,0.0,0.0,0.0,0.0,0.0,0.0,0.0,0.0,0.0,0.0,0.0,0.0,0.0,0.0,0.0,0.0,0.0,0.0,1.2088,0.0,1.2088,0.0,1.1495,1.1167,0.0,0.0,0.0,0.0,0.0,0.0,0.0,0.0,0.0,0.0,0.0,0.0,0.0,0.0,0.0,0.0,0.0,0.0,0.0,0.0,0.0,0.0,0.0,0.0,0.0,0.0,0.0,0.0,0.0,0.0,0.0,0.0,0.0,0.0,0.0,0.0,0.0,0.0,0.0,0.0,0.0,0.0,0.0,0.0,0.0,0.0,0.0,0.0,0.0,0.0,0.0,0.0,0.0,0.0,0.0,0.0,0.0,0.0,0.0,0.0,0.0,0.0,0.0,0.0,0.0,0.0,0.0,0.0,0.0,0.0,0.0,0.0,0.0,0.0,0.0,0.0,0.0,0.0,0.0,0.0,0.0,0.0,0.0,0.0,0.0,0.0,0.0,0.0,0.0,0.0,0.0,0.0,0.0,0.0,0.0,0.0,0.0,0.0,0.0,0.0,0.0,0.0,0.0,0.0,0.0,0.0,0.0,0.0,1.2116,1.2095,1.2088,1.2095,1.2092,1.1813,1.1539,0.0,0.0,0.0,0.0,0.0,0.0,0.0,0.0,0.0,0.0,0.0,0.0,0.0,0.0,0.0,0.0,0.0,0.0,0.0,0.0,0.0,0.0,0.0,0.0,0.0,0.0,0.0,0.0,0.0,0.0,0.0,0.0,0.0,0.0,0.0,0.0,0.0,0.0,0.0,0.0,0.0,0.0,0.0,0.0,0.0,0.0,0.0,0.0,0.0,0.0,0.0,0.0,0.0,0.0,0.0,0.0,0.0,0.0,0.0,0.0,0.0,0.0,0.0,0.0,0.0,0.0,0.0,0.0,0.0,0.0,0.0,0.0,0.0,0.0,0.0,0.0,0.0,0.0,0.0,0.0,0.0,0.0,0.0,0.0,0.0,0.0,0.0,0.0,0.0,0.0,0.0,0.0,0.0,0.0,0.0,0.0,0.0,0.0,0.0,0.0,0.0,0.0,0.0,0.0,0.0,0.0,0.0,0.0,0.0,1.2104,1.2088,1.215,1.2212,1.1886,1.1608,0.0,0.0,0.0,0.0,0.0,0.0,0.0,0.0,0.0,0.0,0.0,0.0,0.0,0.0,0.0,0.0,0.0,0.0,0.0,0.0,0.0,0.0,0.0,0.0,0.0,0.0,0.0,0.0,0.0,0.0,0.0,0.0,0.0,0.0,0.0,0.0,0.0,0.0,0.0,0.0,0.0,0.0,0.0,0.0,0.0,0.0,0.0,0.0,0.0,0.0,0.0,0.0,0.0,0.0,0.0,0.0,0.0,0.0,0.0,0.0,0.0,0.0,0.0,0.0,0.0,0.0,0.0,0.0,0.0,0.0,0.0,0.0,0.0,0.0,0.0,0.0,0.0,0.0,0.0,0.0,0.0,0.0,0.0,0.0,0.0,0.0,0.0,0.0,0.0,0.0,0.0,0.0,0.0,0.0,0.0,0.0,0.0,0.0,0.0,0.0,0.0,0.0,0.0,0.0,0.0,0.0,0.0,0.0,0.0,1.2663,1.2634,1.2701,1.2845,1.2494,1.2219,1.2029,0.0,0.0,0.0,0.0,0.0,0.0,0.0,0.0,0.0,0.0,0.0,0.0,0.0,0.0,0.0,0.0,0.0,0.0,0.0,0.0,0.0,0.0,0.0,0.0,0.0,0.0,0.0,0.0,0.0,0.0,0.0,0.0,0.0,0.0,0.0,0.0,0.0,0.0,0.0,0.0,0.0,0.0,0.0,0.0,0.0,0.0,0.0,0.0,0.0,0.0,0.0,0.0,0.0,0.0,0.0,0.0,0.0,0.0,0.0,0.0,0.0,0.0,0.0,0.0,0.0,0.0,0.0,0.0,0.0,0.0,0.0,0.0,0.0,0.0,0.0,0.0,0.0,0.0,0.0,0.0,0.0,0.0,0.0,0.0,0.0,0.0,0.0,0.0,0.0,0.0,0.0,0.0,0.0,0.0,0.0,0.0,0.0,0.0,0.0,0.0,0.0,0.0,0.0,0.0,0.0,0.0,0.0,0.0,1.3675,1.368,1.3718,1.382,1.3512,1.321,0.0,0.0,0.0,0.0,0.0,0.0,0.0,0.0,0.0,0.0,0.0,0.0,0.0,0.0,0.0,0.0,0.0,0.0,0.0,0.0,0.0,0.0,0.0,0.0,0.0,0.0,0.0,0.0,0.0,0.0,0.0,0.0,0.0,0.0,0.0,0.0,0.0,0.0,0.0,0.0,0.0,0.0,0.0,0.0,0.0,0.0,0.0,0.0,0.0,0.0,0.0,0.0,0.0,0.0,0.0,0.0,0.0,0.0,0.0,0.0,0.0,0.0,0.0,0.0,0.0,0.0,0.0,0.0,0.0,0.0,0.0,0.0,0.0,0.0,0.0,0.0,0.0,0.0,0.0,0.0,0.0,0.0,0.0,0.0,0.0,0.0,0.0,0.0,0.0,0.0,0.0,0.0,0.0,0.0,0.0,0.0,0.0,0.0,0.0,0.0,0.0,0.0,0.0,0.0,0.0,0.0,0.0,0.0,0.0,1.4641,1.5335,1.53,1.4429,1.4072,1.3703,0.0,0.0,0.0,0.0,0.0,0.0,0.0,0.0,0.0,0.0,0.0,0.0,0.0,0.0,0.0,0.0,0.0,0.0,0.0,0.0,0.0,0.0,0.0,0.0,0.0,0.0,0.0,0.0,0.0,0.0,0.0,0.0,0.0,0.0,0.0,0.0,0.0,0.0,0.0,0.0,0.0,0.0,0.0,0.0,0.0,0.0,0.0,0.0,0.0,0.0,0.0,0.0,0.0,0.0,0.0,0.0,0.0,0.0,0.0,0.0,0.0,0.0,0.0,0.0,0.0,0.0,0.0,0.0,0.0,0.0,0.0,0.0,0.0,0.0,0.0,0.0,0.0,0.0,0.0,0.0,0.0,0.0,0.0,0.0,0.0,0.0,0.0,0.0,0.0,0.0,0.0,0.0,0.0,0.0,0.0,0.0,0.0,0.0,0.0,0.0,0.0,0.0,0.0,0.0,0.0,0.0,0.0,0.0,1.4895,1.5611,1.6611,1.6729,1.5879,1.5209,1.4666,0.0,0.0,0.0,0.0,0.0,0.0,0.0,0.0,0.0,0.0,0.0,0.0,0.0,0.0,0.0,0.0,0.0,0.0,0.0,0.0,0.0,0.0,0.0,0.0,0.0,0.0,0.0,0.0,0.0,0.0,0.0,0.0,0.0,0.0,0.0,0.0,0.0,0.0,0.0,0.0,0.0,0.0,0.0,0.0,0.0,0.0,0.0,0.0,0.0,0.0,0.0,0.0,0.0,0.0,0.0,0.0,0.0,0.0,0.0,0.0,0.0,0.0,0.0,0.0,0.0,0.0,0.0,0.0,0.0,0.0,0.0,0.0,0.0,0.0,0.0,0.0,0.0,0.0,0.0,0.0,0.0,0.0,0.0,0.0,0.0,0.0,0.0,0.0,0.0,0.0,0.0,0.0,0.0,0.0,0.0,0.0,0.0,0.0,0.0,0.0,0.0,0.0,0.0,0.0,0.0,0.0,0.0,0.0,1.5567,1.6539,1.7505,1.7888,1.7647,1.6588,1.5822,0.0,0.0,0.0,0.0,0.0,0.0,0.0,0.0,0.0,0.0,0.0,0.0,0.0,0.0,0.0,0.0,0.0,0.0,0.0,0.0,0.0,0.0,0.0,0.0,0.0,0.0,0.0,0.0,0.0,0.0,0.0,0.0,0.0,0.0,0.0,0.0,0.0,0.0,0.0,0.0,0.0,0.0,0.0,0.0,0.0,0.0,0.0,0.0,0.0,0.0,0.0,0.0,0.0,0.0,0.0,0.0,0.0,0.0,0.0,0.0,0.0,0.0,0.0,0.0,0.0,0.0,0.0,0.0,0.0,0.0,0.0,0.0,0.0,0.0,0.0,0.0,0.0,0.0,0.0,0.0,0.0,0.0,0.0,0.0,0.0,0.0,0.0,0.0,0.0,0.0,0.0,0.0,0.0,0.0,0.0,0.0,0.0,0.0,0.0,0.0,0.0,0.0,0.0,0.0,0.0,0.0,0.0,0.0,1.6117,1.6945,1.7642,1.8052,1.8139,1.7091,1.6322,0.0,0.0,0.0,0.0,0.0,0.0,0.0,0.0,0.0,0.0,0.0,0.0,0.0,0.0,0.0,0.0,0.0,0.0,0.0,0.0,0.0,0.0,0.0,0.0,0.0,0.0,0.0,0.0,0.0,0.0,0.0,0.0,0.0,0.0,0.0,0.0,0.0,0.0,0.0,0.0,0.0,0.0,0.0,0.0,0.0,0.0,0.0,0.0,1.3991,0.0,0.0,0.0,0.0,0.0,0.0,0.0,0.0,0.0,0.0,0.0,0.0,0.0,0.0,0.0,0.0,0.0,0.0,0.0,0.0,0.0,0.0,0.0,0.0,0.0,0.0,0.0,0.0,0.0,0.0,0.0,0.0,0.0,0.0,0.0,0.0,0.0,0.0,0.0,0.0,0.0,0.0,0.0,0.0,0.0,0.0,0.0,0.0,0.0,0.0,0.0,0.0,0.0,0.0,0.0,0.0,0.0,0.0,0.0,1.6413,1.7485,1.7923,1.8228,1.8348,1.7654,1.6993,0.0,0.0,0.0,0.0,0.0,0.0,0.0,0.0,0.0,0.0,0.0,0.0,0.0,0.0,0.0,0.0,0.0,0.0,0.0,0.0,0.0,0.0,0.0,0.0,0.0,0.0,0.0,0.0,0.0,0.0,0.0,0.0,0.0,0.0,0.0,0.0,0.0,0.0,0.0,0.0,0.0,0.0,0.0,0.0,0.0,0.0,0.0,0.0,0.0,0.0,0.0,0.0,0.0,0.0,0.0,0.0,0.0,0.0,0.0,0.0,0.0,0.0,0.0,0.0,0.0,0.0,0.0,0.0,0.0,0.0,0.0,0.0,0.0,0.0,0.0,0.0,0.0,0.0,0.0,0.0,0.0,0.0,0.0,0.0,0.0,0.0,0.0,0.0,0.0,0.0,0.0,0.0,0.0,0.0,0.0,0.0,0.0,0.0,0.0,0.0,0.0,0.0,0.0,0.0,0.0,0.0,0.0,1.5747,1.6658,1.7949,1.8195,1.8364,1.8489,1.8103,1.7579,1.693,0.0,0.0,0.0,0.0,0.0,0.0,0.0,0.0,0.0,0.0,0.0,0.0,0.0,0.0,0.0,0.0,0.0,0.0,0.0,0.0,0.0,0.0,0.0,0.0,0.0,0.0,0.0,0.0,0.0,0.0,0.0,0.0,0.0,0.0,0.0,0.0,0.0,0.0,1.1896,1.2436,0.0,0.0,0.0,0.0,0.0,0.0,0.0,0.0,1.4929,0.0,0.0,0.0,0.0,0.0,0.0,0.0,0.0,0.0,0.0,0.0,0.0,0.0,0.0,0.0,0.0,0.0,0.0,0.0,0.0,0.0,0.0,0.0,0.0,0.0,0.0,0.0,0.0,0.0,0.0,0.0,0.0,0.0,0.0,0.0,0.0,0.0,0.0,0.0,0.0,0.0,0.0,0.0,0.0,0.0,0.0,0.0,0.0,0.0,0.0,0.0,0.0,0.0,0.0,0.0,0.0,1.5187,1.6096,1.7032,1.797,1.8203,1.8364,1.8496,1.8121,1.7739,1.7364,0.0,0.0,0.0,0.0,0.0,0.0,0.0,0.0,0.0,0.0,0.0,0.0,0.0,0.0,0.0,0.0,0.0,0.0,0.0,0.0,0.0,0.0,0.0,0.0,0.0,0.0,0.0,0.0,0.0,0.0,0.0,0.0,0.0,0.0,0.0,0.0,0.0,0.0,0.0,1.3163,1.3421,0.0,0.0,0.0,0.0,0.0,0.0,0.0,0.0,1.5071,0.0,0.0,0.0,0.0,0.0,0.0,0.0,0.0,0.0,0.0,0.0,0.0,0.0,0.0,0.0,0.0,0.0,0.0,0.0,0.0,0.0,0.0,0.0,0.0,0.0,0.0,0.0,0.0,0.0,0.0,0.0,0.0,0.0,0.0,0.0,0.0,0.0,0.0,0.0,0.0,0.0,0.0,0.0,0.0,0.0,0.0,0.0,0.0,0.0,0.0,0.0,0.0,0.0,0.0,0.0,1.542,1.6504,1.7406,1.8149,1.8557,1.8781,1.8806,1.8383,1.8003,0.0,0.0,0.0,0.0,0.0,0.0,0.0,0.0,0.0,0.0,0.0,0.0,0.0,0.0,0.0,0.0,0.0,0.0,0.0,0.0,0.0,0.0,0.0,0.0,0.0,0.0,0.0,0.0,0.0,0.0,0.0,0.0,0.0,0.0,0.0,0.0,0.0,0.0,0.0,0.0,1.3282,1.3584,1.4101,0.0,0.0,0.0,0.0,0.0,0.0,1.565,1.5741,0.0,0.0,0.0,0.0,0.0,0.0,0.0,0.0,0.0,0.0,0.0,0.0,0.0,0.0,0.0,0.0,0.0,0.0,0.0,0.0,0.0,0.0,0.0,0.0,0.0,0.0,0.0,0.0,0.0,0.0,0.0,0.0,0.0,0.0,0.0,0.0,0.0,0.0,0.0,0.0,0.0,0.0,0.0,0.0,0.0,0.0,0.0,0.0,0.0,0.0,0.0,0.0,0.0,0.0,0.0,1.5747,1.6907,1.7863,1.8543,1.8977,1.9215,1.9224,1.8696,1.8191,0.0,0.0,0.0,0.0,0.0,0.0,0.0,0.0,0.0,0.0,0.0,0.0,0.0,0.0,0.0,0.0,0.0,0.0,0.0,0.0,0.0,0.0,0.0,0.0,0.0,0.0,0.0,0.0,0.0,0.0,0.0,0.0,0.0,0.0,0.0,0.0,0.0,0.0,0.0,0.0,0.0,1.3932,1.479,1.5073,0.0,0.0,0.0,0.0,1.6367,1.6563,0.0,0.0,0.0,0.0,0.0,0.0,0.0,0.0,0.0,0.0,0.0,0.0,0.0,0.0,0.0,0.0,0.0,0.0,0.0,0.0,0.0,0.0,0.0,0.0,0.0,0.0,0.0,0.0,0.0,0.0,0.0,0.0,0.0,0.0,0.0,0.0,0.0,0.0,0.0,0.0,0.0,0.0,0.0,0.0,0.0,0.0,0.0,0.0,0.0,0.0,0.0,0.0,0.0,0.0,0.0,0.0,1.624,1.7357,1.8424,1.9377,1.9297,1.9376,1.9682,1.8866,1.8236,0.0,0.0,0.0,0.0,0.0,0.0,0.0,0.0,0.0,0.0,0.0,0.0,0.0,0.0,0.0,0.0,0.0,0.0,0.0,0.0,0.0,0.0,0.0,0.0,0.0,0.0,0.0,0.0,0.0,0.0,0.0,0.0,0.0,0.0,0.0,0.0,0.0,0.0,0.0,0.0,0.0,1.5026,1.5891,1.624,1.6399,0.0,0.0,1.7076,1.7297,1.7361,0.0,0.0,0.0,0.0,0.0,0.0,0.0,0.0,0.0,0.0,0.0,0.0,0.0,0.0,0.0,0.0,0.0,0.0,0.0,0.0,0.0,0.0,0.0,0.0,0.0,0.0,0.0,0.0,0.0,0.0,0.0,0.0,0.0,0.0,0.0,0.0,0.0,0.0,0.0,0.0,0.0,0.0,0.0,0.0,0.0,0.0,0.0,0.0,0.0,0.0,0.0,0.0,0.0,0.0,0.0,1.5871,1.6608,1.7886,1.9015,1.99,1.989,1.9991,2.0187,1.9288,1.8573,0.0,0.0,0.0,0.0,0.0,0.0,0.0,0.0,0.0,0.0,0.0,0.0,0.0,0.0,0.0,0.0,0.0,0.0,0.0,0.0,0.0,0.0,0.0,0.0,0.0,0.0,0.0,0.0,0.0,0.0,0.0,0.0,0.0,0.0,0.0,0.0,0.0,0.0,0.0,0.0,0.0,0.0,1.6563,1.716,0.0,0.0,0.0,1.8365,1.8307,0.0,0.0,0.0,0.0,0.0,0.0,0.0,0.0,0.0,0.0,0.0,0.0,0.0,0.0,0.0,0.0,0.0,0.0,0.0,0.0,0.0,0.0,0.0,0.0,0.0,0.0,0.0,0.0,0.0,0.0,0.0,0.0,0.0,0.0,0.0,0.0,0.0,0.0,0.0,0.0,0.0,0.0,0.0,0.0,0.0,0.0,0.0,0.0,0.0,0.0,0.0,0.0,0.0,0.0,0.0,0.0,0.0,1.7172,1.8529,1.9647,2.048,2.0438,2.0502,2.0711,1.9684,0.0,0.0,0.0,0.0,0.0,0.0,0.0,0.0,0.0,0.0,0.0,0.0,0.0,0.0,0.0,0.0,0.0,0.0,0.0,0.0,0.0,0.0,0.0,0.0,0.0,0.0,0.0,1.1988,0.0,0.0,0.0,0.0,0.0,0.0,0.0,0.0,0.0,0.0,0.0,0.0,0.0,0.0,1.6093,1.7366,1.816,1.8693,0.0,0.0,1.9571,1.9454,1.9667,1.9576,0.0,0.0,0.0,0.0,0.0,0.0,0.0,0.0,0.0,0.0,0.0,0.0,0.0,0.0,0.0,0.0,0.0,0.0,0.0,0.0,0.0,0.0,0.0,0.0,0.0,0.0,0.0,0.0,0.0,0.0,0.0,0.0,0.0,0.0,0.0,0.0,0.0,0.0,0.0,0.0,0.0,0.0,0.0,0.0,0.0,0.0,0.0,0.0,0.0,0.0,0.0,0.0,0.0,0.0,0.0,1.8187,1.9273,2.035,2.1339,2.0747,2.0739,2.1379,1.9905,1.899,0.0,0.0,0.0,0.0,0.0,0.0,0.0,0.0,0.0,0.0,0.0,0.0,0.0,0.0,0.0,0.0,0.0,0.0,0.0,0.0,0.0,0.0,0.0,0.0,0.0,0.0,0.0,0.0,0.0,0.0,0.0,0.0,0.0,0.0,0.0,0.0,0.0,0.0,0.0,0.0,0.0,1.7529,1.8543,1.9367,2.0037,0.0,2.0363,2.0371,2.08,2.0513,2.0033,1.9347,0.0,0.0,0.0,0.0,0.0,0.0,0.0,0.0,0.0,0.0,0.0,0.0,0.0,0.0,0.0,0.0,0.0,0.0,0.0,0.0,0.0,0.0,0.0,0.0,0.0,0.0,0.0,0.0,0.0,0.0,0.0,0.0,0.0,0.0,0.0,0.0,0.0,0.0,0.0,0.0,0.0,0.0,0.0,0.0,0.0,0.0,0.0,0.0,0.0,0.0,0.0,0.0,0.0,1.735,1.8894,1.9685,2.0668,2.1781,2.1225,2.119,2.1781,2.0407,1.9407,0.0,0.0,0.0,0.0,0.0,0.0,0.0,0.0,0.0,0.0,0.0,0.0,0.0,0.0,0.0,0.0,0.0,0.0,0.0,0.0,0.0,0.0,0.0,0.0,0.0,0.0,0.0,0.0,1.4661,1.4892,1.5265,0.0,0.0,0.0,0.0,0.0,0.0,0.0,0.0,0.0,0.0,1.7816,1.9046,1.9719,0.0,0.0,2.0773,2.1081,2.1367,2.132,2.1152,2.0864,1.9648,0.0,0.0,0.0,0.0,0.0,0.0,0.0,0.0,0.0,0.0,0.0,0.0,0.0,0.0,0.0,0.0,0.0,0.0,0.0,0.0,0.0,0.0,0.0,0.0,0.0,0.0,0.0,0.0,0.0,0.0,0.0,0.0,0.0,0.0,0.0,0.0,0.0,0.0,0.0,0.0,0.0,0.0,0.0,0.0,0.0,0.0,0.0,0.0,0.0,0.0,0.0,0.0,1.7833,1.9528,2.0217,2.1094,2.2174,2.1688,2.1658,2.203,2.1041,2.0114,0.0,0.0,0.0,0.0,0.0,0.0,0.0,0.0,0.0,0.0,0.0,0.0,0.0,0.0,0.0,0.0,0.0,0.0,0.0,0.0,0.0,0.0,0.0,0.0,0.0,0.0,0.0,0.0,1.5161,1.5315,1.5684,0.0,0.0,0.0,0.0,0.0,0.0,0.0,0.0,0.0,0.0,1.8592,1.9761,2.0268,2.0544,2.0635,2.1031,2.1432,2.1701,2.167,2.1637,2.1708,0.0,0.0,0.0,0.0,0.0,0.0,0.0,0.0,0.0,0.0,0.0,0.0,0.0,0.0,0.0,0.0,0.0,0.0,0.0,0.0,0.0,0.0,0.0,0.0,0.0,0.0,0.0,1.4391,0.0,0.0,1.456,0.0,0.0,0.0,0.0,0.0,0.0,0.0,0.0,0.0,0.0,0.0,0.0,0.0,0.0,0.0,0.0,0.0,0.0,0.0,0.0,0.0,0.0,1.8593,2.0064,2.0922,2.1709,2.2371,2.2126,2.2098,2.228,2.183,2.1113,2.0139,0.0,0.0,0.0,0.0,0.0,0.0,0.0,0.0,0.0,0.0,0.0,0.0,0.0,0.0,0.0,0.0,0.0,0.0,0.0,0.0,0.0,0.0,0.0,0.0,0.0,0.0,1.5687,1.5747,1.5786,0.0,0.0,0.0,0.0,0.0,0.0,0.0,0.0,0.0,0.0,1.9297,2.0165,2.0758,2.1196,2.1345,2.1184,2.1174,2.1339,2.1738,2.1478,2.1272,0.0,0.0,0.0,0.0,0.0,0.0,0.0,0.0,0.0,0.0,0.0,0.0,0.0,0.0,0.0,0.0,0.0,0.0,0.0,0.0,0.0,0.0,0.0,0.0,0.0,0.0,0.0,1.6548,1.6881,0.0,0.0,0.0,0.0,0.0,0.0,0.0,0.0,0.0,0.0,0.0,2.1349,2.1176,0.0,0.0,0.0,0.0,0.0,0.0,0.0,0.0,0.0,0.0,0.0,0.0,1.8837,2.08,2.119,2.1871,2.2948,2.2682,2.2587,2.2687,2.2332,2.1282,1.9455,0.0,0.0,0.0,0.0,0.0,0.0,0.0,0.0,0.0,0.0,0.0,0.0,0.0,0.0,0.0,0.0,0.0,0.0,0.0,0.0,0.0,0.0,0.0,0.0,0.0,1.6315,0.0,0.0,0.0,0.0,0.0,0.0,0.0,0.0,0.0,0.0,0.0,1.9268,2.008,2.0473,2.0825,2.123,2.1191,2.108,0.0,0.0,0.0,0.0,0.0,0.0,0.0,0.0,0.0,0.0,0.0,0.0,0.0,0.0,2.2678,2.2417,2.2081,2.1868,2.2003,0.0,0.0,0.0,0.0,0.0,0.0,0.0,0.0,0.0,0.0,0.0,0.0,0.0,0.0,1.9174,1.9375,1.8436,0.0,0.0,0.0,0.0,0.0,0.0,0.0,0.0,2.2417,2.3156,2.3809,2.3561,2.3214,0.0,2.2417,2.1078,0.0,0.0,0.0,0.0,0.0,0.0,0.0,0.0,1.9772,2.1592,2.2044,2.2669,2.3548,2.3392,2.319,2.3009,2.2479,2.1461,1.9917,1.8825,1.7625,0.0,0.0,0.0,0.0,0.0,0.0,0.0,0.0,0.0,0.0,0.0,0.0,0.0,0.0,0.0,0.0,0.0,0.0,0.0,0.0,0.0,0.0,0.0,1.6942,0.0,0.0,0.0,0.0,0.0,0.0,0.0,0.0,0.0,1.9192,1.9865,2.078,2.1809,2.1721,2.1612,2.1789,0.0,0.0,0.0,0.0,0.0,0.0,0.0,2.3038,2.3682,2.3748,2.3876,2.4374,2.4437,2.4774,2.5741,0.0,0.0,2.4983,2.456,2.4392,2.4687,2.4721,2.4729,2.4815,2.4776,2.4667,0.0,0.0,0.0,0.0,0.0,0.0,0.0,0.0,2.2271,2.228,0.0,2.1796,0.0,0.0,0.0,0.0,2.0572,2.2263,0.0,0.0,2.5217,2.616,2.6951,2.6315,2.5866,2.5607,2.4905,2.3961,2.2697,2.0209,0.0,0.0,0.0,0.0,0.0,0.0,2.135,2.245,2.3385,2.4002,2.4207,2.4216,2.389,2.3248,2.2362,2.1769,2.1499,2.0426,1.9102,1.7544,1.6848,0.0,0.0,0.0,0.0,0.0,0.0,0.0,0.0,0.0,0.0,0.0,0.0,0.0,0.0,0.0,0.0,0.0,0.0,0.0,0.0,1.7266,0.0,0.0,0.0,0.0,0.0,0.0,0.0,0.0,0.0,0.0,2.0818,2.1369,2.2276,2.3398,0.0,0.0,0.0,0.0,2.2383,2.1998,2.2483,2.2887,2.2848,2.3511,2.4151,2.4528,0.0,0.0,2.6717,2.7099,2.7513,2.8277,2.818,2.7871,2.7069,2.6845,2.6922,2.7298,2.739,2.7551,2.7705,2.761,2.7452,2.7613,0.0,0.0,0.0,0.0,2.4709,2.5423,2.6216,2.5391,2.5306,2.5684,2.4501,0.0,0.0,0.0,0.0,0.0,0.0,2.6336,2.7473,2.8597,2.9503,3.0161,2.9816,2.9321,2.8706,2.8106,2.699,2.5433,2.4394,2.2406,1.9509,0.0,0.0,0.0,0.0,2.2131,2.3472,2.3822,2.4225,2.4758,2.4676,2.4395,2.3934,2.3416,2.2822,2.2094,2.1387,2.0427,1.9164,1.7897,0.0,0.0,0.0,0.0,0.0,0.0,0.0,0.0,0.0,0.0,0.0,0.0,0.0,0.0,0.0,0.0,0.0,0.0,0.0,1.7928,1.8209,1.8326,0.0,0.0,0.0,0.0,0.0,0.0,0.0,0.0,0.0,2.4299,2.4789,2.4988,0.0,0.0,2.459,2.3987,2.3509,2.3066,2.2665,2.2899,0.0,2.3735,2.4477,2.5241,2.5955,2.6804,2.756,2.8065,2.8241,2.8446,2.8888,2.8938,2.8919,2.9082,2.8609,2.8293,2.8506,2.9061,2.9535,2.9632,3.0002,3.0138,3.114,2.8963,2.796,2.7441,2.7289,2.7757,2.8402,2.9117,2.8506,2.8444,2.8692,2.7694,2.7011,2.6593,2.6266,0.0,0.0,0.0,2.8967,2.9819,3.0734,3.1401,3.1783,3.155,3.1067,3.0474,3.0009,2.9065,2.7685,2.7132,2.5648,2.324,0.0,0.0,2.2474,2.3161,2.3936,2.4827,2.5007,2.5163,2.5335,2.507,2.4721,2.4312,2.3935,2.336,2.2631,2.2101,2.1299,2.0207,1.9099,1.8037,0.0,0.0,0.0,0.0,0.0,0.0,0.0,0.0,0.0,0.0,0.0,1.546,1.6106,0.0,0.0,0.0,1.7609,1.8511,1.9432,1.9771,0.0,0.0,0.0,0.0,0.0,0.0,0.0,2.268,2.4515,2.5994,2.6418,2.7233,2.7419,2.6349,2.6146,2.5824,2.509,0.0,2.4153,2.3748,2.4039,2.4408,2.478,2.5676,2.6716,2.7766,2.8506,2.9097,2.9424,2.9442,2.9493,2.9697,2.9668,2.9666,3.0043,2.963,2.9387,2.9743,3.0564,3.1218,3.1319,3.1858,3.2006,3.4234,3.3537,3.152,3.0499,3.0239,3.0747,3.0944,3.0936,3.142,3.1403,3.1019,3.0956,3.0371,2.9473,2.9451,0.0,2.9523,3.0747,3.1356,3.1482,3.1977,3.2294,3.244,3.2082,3.1716,3.1389,3.1032,3.0436,2.9658,2.8817,2.8186,2.768,2.5912,2.495,2.4887,2.5775,2.6305,2.6346,2.6641,2.6521,2.5975,2.546,2.4982,2.4504,2.4044,2.358,2.3113,2.2626,2.187,2.0831,2.0338,1.9207,1.731,0.0,0.0,0.0,0.0,0.0,0.0,0.0,0.0,0.0,0.0,0.0,0.0,0.0,0.0,0.0,1.9614,0.0,2.1076,2.18,0.0,0.0,0.0,2.3517,2.3276,2.4715,2.5574,2.5179,0.0,0.0,2.7499,2.8772,2.937,2.8361,2.7451,2.6633,2.5999,2.5766,2.5493,2.5076,2.5538,2.5928,2.5946,2.7009,2.8285,2.9473,3.0171,3.0409,3.0601,3.0535,3.0517,3.0612,3.0403,3.0133,3.0091,3.0085,3.0276,3.0733,3.1732,3.2538,3.2648,3.3071,3.328,3.5778,3.559,3.5062,3.4,3.2666,3.2626,3.2955,3.3447,3.2998,3.2811,3.2825,3.2307,3.1956,3.1706,3.1721,3.1721,3.1742,3.2569,3.2941,3.3003,3.356,3.3855,3.3897,3.3648,3.336,3.3,3.2482,3.1846,3.1093,3.0438,2.9669,2.8841,2.8648,2.7922,2.6706,2.6902,2.7244,2.7648,2.7579,2.7208,2.6537,2.614,2.5483,2.4528,2.4542,2.4092,2.3138,2.3002,2.242,2.1376,2.1061,2.016,1.8551,1.8088,0.0,0.0,0.0,0.0,0.0,0.0,0.0,0.0,0.0,1.7925,1.8549,0.0,1.953,0.0,2.14,2.2492,2.3042,2.3819,0.0,0.0,2.5692,2.6179,2.6325,2.7626,2.8173,2.7284,2.8235,2.8848,2.8549,2.8869,2.9195,2.9345,2.8765,2.8143,2.767,2.7133,2.6635,2.6247,2.6409,2.6713,2.6946,2.8078,2.9294,3.012,3.047,3.0694,3.0896,3.0902,3.084,3.0736,3.0641,3.0451,3.0212,3.0228,3.0305,3.0417,3.1575,3.2656,3.2741,3.3734,3.4361,3.6568,3.6306,3.6277,3.57,3.4748,3.4639,3.4851,3.5186,3.4775,3.4648,3.4727,3.4339,3.4194,3.4194,3.4171,3.4194,3.4231,3.4574,3.475,3.4742,3.4806,3.4858,3.482,3.4334,3.3957,3.3678,3.3116,3.2534,3.1937,3.1207,3.0498,2.9882,2.9821,2.9337,2.8467,2.8417,2.8423,2.8442,2.8121,2.7612,2.6991,2.6781,2.6026,2.4688,2.4739,2.4164,2.2809,2.2791,2.2331,2.1288,2.1298,2.0769,1.9523,1.9347,1.885,0.0,0.0,0.0,0.0,0.0,0.0,0.0,0.0,0.0,0.0,0.0,2.1257,2.2361,2.3977,2.5106,2.5498,2.6414,2.7273,2.7936,2.8341,2.8681,2.8861,2.9767,2.9971,2.8876,2.9415,2.9706,2.9353,2.9283,2.9405,2.9767,2.9819,2.9509,2.8712,2.8035,2.751,2.7142,2.7124,2.7503,2.827,2.9351,3.0458,3.1459,3.1863,3.2111,3.244,3.2512,3.2473,3.2354,3.2094,3.1781,3.1552,3.096,3.0588,3.0664,3.1435,3.2263,3.2553,3.3671,3.4373,3.7157,3.661,3.6619,3.661,3.6605,3.6628,3.6505,3.6301,3.6319,3.6345,3.6387,3.6363,3.6387,3.6387,3.6345,3.6342,3.6333,3.6324,3.6277,3.6263,3.5767,3.5523,3.5476,3.4744,3.4264,3.4065,3.3561,3.3131,3.2704,3.1754,3.119,3.0972,3.0381,3.007,3.0054,2.9991,2.9645,2.9023,2.8477,2.7993,2.7503,2.7374,2.6561,2.5105,2.4879,2.4097,2.2633,2.2524,2.2072,2.1135,2.1393,2.114,2.0225,2.0738,2.0448,0.0,1.9756,0.0,0.0,0.0,0.0,0.0,0.0,0.0,0.0,2.2716,2.3643,2.5212,2.6882,2.7952,2.8107,2.9254,3.0234,3.0837,3.1009,3.1037,3.1057,3.1409,3.123,3.0096,3.0393,3.0473,2.9863,2.9779,2.9814,3.008,3.0611,3.0717,2.9864,2.924,2.8797,2.8341,2.814,2.8828,3.0104,3.0884,3.173,3.3041,3.3478,3.3849,3.4212,3.4293,3.4335,3.4272,3.3751,3.3378,3.341,3.2251,3.1367,3.1211,3.1706,3.2156,3.2362,3.3255,3.3919,3.8445,3.8337,3.8322,3.8322,3.8328,3.8337,3.7559,3.6324,3.6467,3.6643,3.6787,3.6787,3.6772,3.6769,3.6617,3.6523,3.652,3.6378,3.6277,3.6277,3.6199,3.6127,3.6112,3.5975,3.5779,3.5583,3.5196,3.4819,3.4414,3.338,3.2768,3.2531,3.1965,3.159,3.1394,0.0,0.0,0.0,2.9045,2.8706,2.8571,2.7733,2.6943,2.6197,2.5276,0.0,2.3859,2.3096,2.2416,2.192,2.1937,0.0,0.0,0.0,0.0,0.0,0.0,0.0,0.0,0.0,0.0,0.0,2.4091,2.4146,2.4089,2.5941,2.7304,2.7669,2.9322,3.0418,3.0463,3.1702,3.2555,3.2708,3.3145,3.3291,3.288,3.261,3.2046,3.0928,3.0727,3.0483,2.998,2.9779,3.0153,3.0972,3.123,3.1615,3.2249,3.1812,3.141,3.1046,3.0772,3.1227,3.234,3.2718,3.3111,3.3811,3.4106,3.4322,3.4478,3.4502,3.4437,3.4489,3.4288,3.4152,3.4019,3.3674,3.3152,3.2449,3.2696,3.2867,3.2128,3.2902,3.3704,3.9597,3.9283,3.9283,3.9116,0.0,3.8791,3.8313,3.7563,3.7644,3.7728,3.7827,3.7836,3.7851,3.7836,3.7734,3.7626,3.7541,3.7441,3.7341,3.7215,3.693,3.6794,3.6794,3.6452,3.6247,3.6131,3.5712,3.5452,3.5295,3.4209,3.3582,3.3476,3.2899,3.2434,3.2092,3.1394,3.0646,2.9801,2.9493,2.9195,2.8885,2.8109,2.7311,2.6524,2.5761,0.0,0.0,0.0,0.0,0.0,0.0,0.0,0.0,0.0,0.0,2.3209,2.3892,2.4329,2.4372,2.5158,2.5965,2.6642,2.7795,2.7892,2.6592,2.8519,2.9814,2.9917,3.1611,3.2727,3.2778,3.3927,3.4727,3.4741,3.5007,3.4935,3.4317,3.4015,3.3339,3.2111,3.1749,3.1509,3.105,3.0984,3.1323,3.2125,3.2717,3.3219,3.3663,3.3146,3.2495,3.2287,3.234,3.2754,3.3665,3.4054,3.4549,3.5271,3.5626,3.5798,3.6072,3.6123,3.6136,3.6109,3.59,3.5648,3.5498,3.5014,3.4351,3.3728,3.3484,3.324,3.2581,3.2965,3.3366,4.0582,4.0089,4.0075,3.9764,3.9241,3.9123,3.9005,3.8907,0.0,0.0,0.0,3.8901,3.8907,3.8892,3.8865,3.8769,3.8599,3.8525,3.8413,3.8244,3.7713,3.7453,3.7424,3.6887,3.664,3.6622,3.615,3.6036,3.6159,3.509,3.4537,3.448,3.3901,3.3298,3.2648,3.1925,3.1048,3.0104,2.9945,2.9681,2.917,2.8601,2.7871,2.7004,2.6363,2.5471,2.4289,2.4302,2.4056,2.3534,2.378,2.4053,2.4332,2.4785,2.5089,2.5244,2.5907,2.6305,2.6334,2.7498,2.8543,2.9319,3.0909,3.1095,2.9319,3.0727,3.1777,3.1981,3.3578,3.4609,3.4725,3.5769,3.6437,3.6321,3.6417,3.6144,3.5345,3.5138,3.4495,3.3293,3.2945,3.279,3.2511,3.2462,3.2756,3.3446,3.421,3.4963,3.4954,3.4271,3.3673,3.3771,3.3936,3.4148,3.495,3.5364,3.5896,3.684,3.7091,3.734,3.7743,3.7911,3.7911,3.7691,3.7456,3.7181,3.7078,3.6304,3.5398,3.497,3.4379,3.3817,3.3469,3.338,3.3366,4.1273,4.1159,4.1183,4.1114,4.098,4.0412,3.9851,3.9301,3.9147,3.915,3.9325,3.9325,3.9334,3.9325,3.9132,3.9035,3.8995,3.8655,3.8478,3.845,3.8204,3.8072,3.8072,3.7984,3.7941,3.7922,3.766,3.7656,3.7745,3.6981,3.658,3.6479,3.5923,3.4941,3.3756,3.3184,3.2295,3.1033,3.0554,3.0286,3.0174,2.9456,2.8976,2.8782,2.7368,2.6646,2.6689,2.5751,2.5378,2.5708,2.5681,2.5768,2.6051,2.6704,2.7128,2.7299,2.7919,2.8288,2.8339,2.9493,3.0721,3.1858,3.2753,3.284,3.206,3.2692,3.3404,3.3956,3.4779,3.5476,3.5978,3.6707,3.6963,3.6475,3.6823,3.6781,3.5835,3.5402,3.495,3.4307,3.3943,3.3748,3.3697,3.3626,3.4035,3.489,3.5322,3.571,3.6324,3.6263,3.6104,3.6369,3.6322,3.6475,3.6788,3.7094,3.7256,3.7683,3.773,3.773,3.7861,3.7911,3.7911,3.7911,3.7795,3.7743,3.773,3.7668,3.6983,3.6241,3.5814,3.5478,3.4645,3.4445,3.4148,4.2232,4.1967,4.1952,4.1718,4.1373,4.1064,4.0765,4.0487,4.0394,3.9961,3.9412,3.9397,3.9397,3.9397,3.9301,3.9195,3.9086,3.8903,3.8719,3.8497,3.8413,3.831,3.8212,3.831,3.8376,3.8366,3.8273,3.8315,3.8449,3.7924,3.7582,3.7438,3.6608,3.5777,3.5039,3.4283,3.3501,3.2654,3.1451,3.0695,3.0406,2.9733,2.9365,2.9374,2.8513,2.7945,2.764,2.7383,2.7201,2.7079,2.7152,2.7448,2.7995,2.841,2.8972,2.9704,3.0045,3.0371,3.0749,3.1636,3.2412,3.3,3.3624,3.4016,3.4082,3.4352,3.4651,3.4954,3.5825,3.6581,3.6995,3.7574,3.785,3.7671,3.7627,3.7252,3.6574,3.6427,3.6076,3.5302,3.5465,3.5603,3.5387,3.5366,3.5581,3.6255,3.6374,3.6652,3.7207,3.7144,3.7063,3.7249,3.7201,3.7294,3.7645,3.7727,3.7773,3.7901,3.79,3.7911,3.7911,3.7911,3.7911,3.7911,3.7911,3.7911,3.7911,3.79,3.7583,3.7173,3.6683,3.6241,3.5716,3.5257,3.4595,4.302,4.2586,4.2601,4.2211,4.1637,4.1637,4.1538,4.1413,4.1388,4.0825,3.9924,3.9849,3.9849,3.9849,3.9849,3.9776,3.9603,3.9414,3.9171,3.8869,3.8648,3.8488,3.8371,3.8492,3.8581,3.8571,3.8562,3.8677,3.8806,3.851,3.8197,3.7881,3.7048,3.6484,3.6221,3.5354,3.4669,3.4136,3.2781,3.162,3.0799,3.0203,2.9929,2.9955,2.974,2.9354,2.8843,2.9135,2.9154,2.8788,2.898,2.9431,3.0047,3.0181,3.0705,3.1612,3.1728,3.2018,3.2672,3.3196,3.3561,3.3713,3.4277,3.4835,3.5334,3.5674,3.5834,3.5935,3.6756,3.7448,3.776,3.8064,3.8392,3.8513,3.8124,3.7699,3.7421,3.7619,3.7619,3.6873,3.7257,3.7494,3.7337,3.7228,3.721,3.7285,3.7306,3.7377,3.7564,3.7599,3.7599,3.7588,3.7599,3.7657,3.7877,3.79,3.7888,3.7911,3.7911,3.7911,3.7911,3.7911,3.7911,3.7911,3.7911,3.7911,3.7911,3.7911,3.777,3.7461,3.7131,3.6816,3.6502,3.5896,3.5147,4.327,4.3225,4.318,4.2871,4.2326,4.2296,4.1972,4.1493,4.1428,4.1343,4.1214,4.1214,4.1199,4.1224,4.1179,4.113,4.1057,4.0375,3.9995,3.9841,3.9127,3.8754,3.8762,3.8754,3.8773,3.8778,3.8773,3.8903,3.9044,3.8852,3.8566,3.8165,3.7701,3.7269,3.6886,3.6381,3.5786,3.5087,3.4739,3.3702,3.2037,3.1418,3.1221,3.1402,3.0862,3.077,3.1062,3.1066,3.1163,3.1589,3.1744,3.1975,3.2167,3.2213,3.2271,3.2402,3.2424,3.27,3.3335,3.3468,3.3777,3.4275,3.4939,3.534,3.5508,3.6455,3.7114,3.7126,3.7383,3.7781,3.8287,3.8091,3.7915,3.8028,3.7924,3.7991,3.8473,3.871,3.9039,3.9916,3.9198,3.8935,3.891,3.8673,3.8422,3.8016,3.7816,3.7737,3.7808,3.7819,3.7831,3.7842,3.7854,3.7854,3.7911,3.7911,3.7911,3.7911,3.7911,3.7911,3.7911,3.7911,3.7911,3.7911,3.7911,3.7911,3.7911,3.79,3.7819,3.7645,3.7438,3.7331,3.7048,3.6594,3.593,4.3305,4.3305,4.3305,4.316,4.293,4.293,4.2791,4.2542,4.2527,4.2527,4.2527,4.2527,4.2127,4.1428,4.1413,4.1413,4.1388,4.1019,4.0806,4.0629,3.9915,3.9493,3.9375,3.9112,3.8995,3.8989,3.9104,3.9195,3.9228,3.9062,3.8889,3.8705,3.8315,3.7943,3.7548,3.7226,3.6741,3.6094,3.5767,3.5161,3.4261,3.3108,3.2356,3.2105,3.2068,3.2019,3.2036,3.2129,3.2197,3.2188,3.2328,3.2622,3.3064,3.3095,3.3261,3.3578,3.3614,3.3744,3.4008,3.4387,3.4738,3.4991,3.5578,3.6077,3.6484,3.7012,3.733,3.7416,3.7507,3.7715,3.7988,3.765,3.7588,3.8023,3.8148,3.8386,3.8906,3.957,4.0046,4.0071,4.029,4.0222,3.9741,3.9125,3.8621,3.8247,3.8047,3.7923,3.7911,3.7911,3.7911,3.7911,3.7911,3.7911,3.7911,3.7911,3.7911,3.7911,3.7911,3.7911,3.7911,3.7911,3.7911,3.7911,3.7911,3.7911,3.7911,3.79,3.7867,3.7726,3.7737,3.7691,3.7599,3.7278,3.6868,4.3305,4.3305,4.3305,4.3305,4.3305,4.3305,4.3305,4.3305,4.3305,4.3305,4.3305,4.3305,4.2811,4.2013,4.1918,4.1908,4.1893,4.1762,4.1596,4.1378,4.0768,4.0386,4.0204,3.991,3.9731,3.9755,3.9905,3.9864,3.9666,3.9309,3.9165,3.9059,3.8802,3.8497,3.8174,3.7948,3.7639,3.7208,3.6831,3.6528,3.6095,3.5092,3.4005,3.3111,3.3133,3.3128,3.2976,3.3193,3.3202,3.2975,3.3003,3.323,3.3713,3.3757,3.3935,3.4347,3.4588,3.4667,3.469,3.5288,3.5645,3.5688,3.6223,3.6771,3.7195,3.7339,3.7397,3.7468,3.7422,3.7496,3.7801,3.7623,3.7828,3.8554,3.8805,3.9137,3.9722,4.057,4.095,4.0733,4.1194,4.1213,4.0311,3.9469,3.8823,3.8483,3.8181,3.7957,3.7923,3.7911,3.7911,3.7911,3.7911,3.7911,3.7911,3.7911,3.7911,3.7911,3.7911,3.7911,3.7911,3.7911,3.7911,3.7911,3.7911,3.7911,3.7911,3.79,3.7913,3.79,3.79,3.7888,3.7842,3.7701,3.7608,4.3305,4.3305,4.3305,4.3305,4.3305,4.3305,4.3305,4.3305,4.3305,4.3305,4.3305,4.3305,4.327,4.316,4.31,4.3195,4.31,4.2586,4.2331,4.2252,4.1629,4.1339,4.133,4.1309,4.1265,4.1096,4.11,4.087,4.0352,3.9711,3.9292,3.9134,3.9083,3.8962,3.8718,3.851,3.8432,3.8305,3.8102,3.7803,3.7333,3.7292,3.6306,3.4649,3.4034,3.4031,3.4258,3.4334,3.4392,3.4568,3.433,3.4295,3.4339,3.4324,3.4339,3.4478,3.4997,3.5348,3.5412,3.5918,3.6286,3.635,3.6872,3.7288,3.7388,3.743,3.7501,3.7505,3.7355,3.7455,3.8059,3.8189,3.8551,3.9278,3.9924,4.0507,4.118,4.1622,4.2115,4.2259,4.2066,4.1556,4.0752,4.0022,3.9397,3.8919,3.8483,3.8135,3.798,3.7923,3.7911,3.7911,3.7911,3.7911,3.7911,3.7911,3.7911,3.7911,3.7911,3.7911,3.7911,3.7911,3.7911,3.7911,3.7911,3.7911,3.7911,3.79,3.79,3.7911,3.7911,3.79,3.7911,3.7911,3.7842,4.3305,4.3305,4.3305,4.3305,4.3305,4.3305,4.3305,4.3305,4.3305,4.3305,4.3305,4.3305,4.3305,4.3305,4.3305,4.3305,4.3285,4.308,4.2975,4.2901,4.2331,4.2027,4.2006,4.1622,4.1413,4.1413,4.1413,4.1283,4.1005,4.0358,4.0001,3.9856,3.9471,3.9201,3.9031,3.8931,3.883,3.8705,3.8621,3.8471,3.824,3.7966,3.7403,3.6708,3.6096,3.5848,3.6001,3.5523,3.5269,3.5338,3.4757,3.4397,3.4397,3.4397,3.4594,3.4997,3.5253,3.5572,3.599,3.6586,3.693,3.6997,3.752,3.7895,3.7968,3.7755,3.761,3.7794,3.7804,3.8074,3.8624,3.8626,3.8865,3.9888,4.0636,4.1328,4.1932,4.2488,4.2808,4.2654,4.2189,4.1619,4.1177,4.0509,3.9889,3.9395,3.8843,3.843,3.8135,3.8001,3.7934,3.7911,3.7911,3.7911,3.7911,3.7911,3.7911,3.7911,3.7911,3.7911,3.7911,3.7911,3.7911,3.7911,3.7911,3.7911,3.7911,3.7911,3.7911,3.7911,3.7911,3.7911,3.7911,3.7911,3.7911,4.3305,4.3305,4.3305,4.3305,4.3305,4.3305,4.3305,4.3305,4.3305,4.3305,4.3305,4.3305,4.3305,4.3305,4.3305,4.3305,4.3305,4.33,4.3314,4.327,4.288,4.2681,4.2616,4.2217,4.2013,4.1983,4.1807,4.1718,4.1652,4.105,4.075,4.0681,4.0043,3.9666,3.9511,3.9305,3.9123,3.9007,3.8989,3.8989,3.8939,3.8613,3.8391,3.8317,3.794,3.7455,3.7017,3.6416,3.6083,3.5998,3.5409,3.5006,3.5015,3.5015,3.5204,3.5645,3.5906,3.6179,3.6611,3.7221,3.7593,3.7607,3.7997,3.8308,3.8186,3.7687,3.7659,3.7961,3.8192,3.8633,3.9678,3.9852,4.0086,4.096,4.1624,4.2187,4.2646,4.304,4.3081,4.2815,4.2404,4.1972,4.1612,4.111,4.0541,3.9922,3.9356,3.8935,3.8506,3.8315,3.8125,3.8023,3.8011,3.7979,3.7921,3.7911,3.7911,3.7911,3.7911,3.7911,3.7911,3.7911,3.7911,3.7911,3.7911,3.7911,3.7911,3.7911,3.7911,3.7911,3.7911,3.7911,3.7911,3.7911,3.7888,4.3305,4.3305,4.3305,4.3305,4.3305,4.3305,4.3305,4.3305,4.3305,4.3305,4.3305,4.3305,4.3305,4.3305,4.3305,4.3305,4.3305,4.3305,4.3305,4.3285,4.3255,4.3225,4.321,4.3135,4.309,4.3075,4.2661,4.2401,4.2356,4.1747,4.1403,4.1298,4.075,4.0393,4.0388,3.9798,3.9448,3.9421,3.9397,3.9355,3.9397,3.9301,3.9247,3.9286,3.9227,3.8612,3.7342,3.7036,3.689,3.6831,3.6438,3.6272,3.6132,3.6132,3.6248,3.6373,3.6887,3.7221,3.736,3.7839,3.811,3.8105,3.8323,3.8177,3.7855,3.7476,3.7549,3.8261,3.8635,3.9314,4.1035,4.1762,4.2141,4.2431,4.2766,4.31,4.321,4.326,4.322,4.2996,4.2724,4.2485,4.2106,4.1744,4.1258,4.057,4.0066,3.9642,3.9078,3.8841,3.865,3.8359,3.8179,3.8089,3.7988,3.7911,3.7911,3.7911,3.7911,3.7911,3.7911,3.7911,3.7911,3.7911,3.7911,3.7911,3.7911,3.7911,3.7911,3.7911,3.7911,3.7911,3.7911,3.79,3.7841,4.3305,4.3305,4.3305,4.3305,4.3305,4.3305,4.3305,4.3305,4.3305,4.3305,4.3305,4.3305,4.3305,4.3305,4.3305,4.3305,4.3305,4.3305,4.3305,4.3305,4.3305,4.3305,4.3305,4.3305,4.3305,4.3285,4.313,4.302,4.2895,4.2381,4.2071,4.1952,4.1418,4.1109,4.105,4.0451,4.0098,4.0043,3.9616,3.9397,3.9397,3.9397,3.9397,3.9397,3.9397,3.9149,3.8704,3.8003,3.7543,3.7389,3.6682,3.6277,3.6292,3.6277,3.6519,3.6945,3.7163,3.7511,3.7874,3.8086,3.8202,3.8143,3.7973,3.806,3.8289,3.8029,3.8383,3.9477,4.0154,4.0993,4.1922,4.2641,4.296,4.3005,4.3195,4.3305,4.3295,4.3175,4.3086,4.3006,4.283,4.2627,4.2455,4.2189,4.1761,4.1233,4.0653,4.0088,3.9706,3.9237,3.8897,3.8684,3.8472,3.8211,3.8089,3.7979,3.7911,3.7911,3.7911,3.7911,3.7911,3.7911,3.7911,3.7911,3.7911,3.7911,3.7911,3.7911,3.7911,3.7911,3.7911,3.7911,3.7911,3.7865,3.7783,4.3305,4.3305,4.3305,4.3305,4.3305,4.3305,4.3305,4.3305,4.3305,4.3305,4.3305,4.3305,4.3305,4.3305,4.3305,4.3305,4.3305,4.3305,4.3305,4.3305,4.3305,4.3305,4.3305,4.3305,4.3305,4.3305,4.3305,4.3305,4.3285,4.293,4.2741,4.2636,4.2101,4.1787,4.1703,4.1134,4.0765,4.0675,4.0142,3.9759,3.9714,3.9526,3.9397,3.9397,3.9397,3.9355,3.9253,3.861,3.8171,3.7967,3.737,3.7027,3.7012,3.7032,3.7206,3.7511,3.7641,3.7801,3.8144,3.8188,3.8062,3.7896,3.793,3.8058,3.8432,3.8385,3.9259,4.0548,4.1094,4.1768,4.2581,4.305,4.33,4.3314,4.33,4.3305,4.3285,4.3185,4.3125,4.311,4.302,4.29,4.2749,4.2617,4.2103,4.1588,4.1164,4.0565,4.0234,3.9776,3.9516,3.9187,3.8785,3.8504,3.8223,3.8055,3.7923,3.7911,3.7911,3.7911,3.7911,3.7911,3.7911,3.7911,3.7911,3.7911,3.7911,3.7911,3.7911,3.7911,3.79,3.7842,3.7808,3.7726,3.7645,4.3305,4.3305,4.3305,4.3305,4.3305,4.3305,4.3305,4.3305,4.3305,4.3305,4.3305,4.3305,4.3305,4.3305,4.3305,4.3305,4.3305,4.3305,4.3305,4.3305,4.3305,4.3305,4.3305,4.3305,4.3305,4.3305,4.3305,4.3305,4.33,4.3225,4.3305,4.3175,4.2711,4.2446,4.2316,4.1792,4.1458,4.1373,4.0801,4.0442,4.0322,3.9819,3.9442,3.9412,3.9397,3.9319,3.9177,3.886,3.8714,3.8694,3.8225,3.7999,3.813,3.8178,3.8086,3.813,3.8164,3.8077,3.8135,3.8164,3.7955,3.7533,3.8167,3.8623,3.8385,3.9147,4.0106,4.1289,4.1588,4.2073,4.2995,4.3285,4.3305,4.3305,4.3305,4.3305,4.3305,4.329,4.326,4.3285,4.328,4.324,4.3011,4.2911,4.23,4.175,4.1604,4.1101,4.0713,4.0389,4.0284,3.9859,3.9309,3.883,3.8538,3.8156,3.8013,3.7911,3.7911,3.7911,3.7911,3.7911,3.7911,3.7911,3.7911,3.7911,3.7911,3.7911,3.7911,3.7911,3.7854,3.7762,3.7657,3.7588,3.7388,4.3305,4.3305,4.3305,4.3305,4.3305,4.3305,4.3305,4.3305,4.3305,4.3305,4.3305,4.3305,4.3305,4.3305,4.3305,4.3305,4.3305,4.3305,4.3305,4.3305,4.3305,4.3305,4.3305,4.3305,4.3305,4.3305,4.3305,4.3305,4.3305,4.3305,4.3305,4.3305,4.3145,4.3035,4.2985,4.2436,4.2156,4.2041,4.1493,4.0885,4.0487,4.0292,3.9894,3.9427,3.9403,3.937,3.9292,3.898,3.8644,3.838,3.8263,3.8212,3.8212,3.8212,3.8212,3.8212,3.8197,3.7999,3.7728,3.7999,3.7912,3.7484,3.8341,3.8929,3.9341,4.0263,4.1216,4.2041,4.2516,4.2881,4.324,4.3305,4.3305,4.3305,4.3305,4.3305,4.3305,4.3305,4.3305,4.3305,4.3305,4.326,4.3076,4.2723,4.2302,4.2086,4.1779,4.1421,4.1159,4.0953,4.0823,4.0416,3.9892,3.932,3.883,3.8395,3.8089,3.7933,3.7911,3.7911,3.7911,3.7911,3.7911,3.7911,3.7911,3.7911,3.7911,3.7911,3.7911,3.7877,3.7737,3.7611,3.7482,3.7378,3.712,4.3564,4.3305,4.3305,4.3305,4.3305,4.3305,4.3305,4.3305,4.3305,4.3305,4.3305,4.3305,4.3305,4.3305,4.3305,4.3305,4.3305,4.3305,4.3305,4.3305,4.3305,4.3305,4.3305,4.3305,4.3305,4.3305,4.3305,4.3305,4.3305,4.3305,4.3305,4.3305,4.3305,4.3305,4.3255,4.299,4.2771,4.2666,4.2152,4.1607,4.1283,4.0969,4.0401,3.9862,3.9661,3.955,3.9087,3.8793,3.8519,3.8277,3.8212,3.8212,3.8212,3.8212,3.8212,3.8212,3.8212,3.8019,3.7874,3.8246,3.8313,3.8088,3.8834,3.9697,4.0307,4.1195,4.2101,4.2726,4.3115,4.327,4.3305,4.3305,4.3305,4.3305,4.3305,4.3305,4.3305,4.3305,4.3305,4.3305,4.33,4.3175,4.3005,4.2638,4.2372,4.2125,4.2069,4.1843,4.1667,4.1511,4.1311,4.094,4.0423,3.9823,3.9264,3.8787,3.8372,3.8182,3.7944,3.7933,3.7934,3.7923,3.7911,3.7911,3.7911,3.79,3.79,3.7877,3.7808,3.7726,3.7588,3.7401,3.7237,3.7121,3.6862,4.3963,4.3389,4.3334,4.3305,4.3305,4.3305,4.3305,4.3305,4.3305,4.3305,4.3305,4.3305,4.3305,4.3305,4.3305,4.3305,4.3305,4.3305,4.3305,4.3305,4.3305,4.3305,4.3305,4.3305,4.3305,4.3305,4.3305,4.3305,4.3305,4.3305,4.3305,4.3305,4.3305,4.3305,4.33,4.324,4.33,4.316,4.2746,4.2376,4.2112,4.1664,4.1022,4.0358,4.0155,3.9745,3.9128,3.8735,3.8574,3.8333,3.8236,3.8202,3.8212,3.8212,3.8212,3.8212,3.8212,3.8173,3.8265,3.8696,3.8942,3.866,3.988,4.087,4.108,4.1836,4.2632,4.3145,4.33,4.3305,4.3305,4.3305,4.3305,4.3305,4.3305,4.3305,4.3305,4.3305,4.3305,4.3305,4.3305,4.3005,4.2821,4.2756,4.2742,4.2317,4.2248,4.2123,4.207,4.2024,4.1835,4.1583,4.099,4.0312,3.976,3.9211,3.8787,3.844,3.8137,3.8013,3.7979,3.7956,3.7923,3.7911,3.7911,3.79,3.7913,3.7842,3.7727,3.7564,3.739,3.7133,3.6886,3.6805,3.6616,4.4222,4.4052,4.3514,4.3305,4.3305,4.3305,4.3305,4.3305,4.3305,4.3305,4.3305,4.3305,4.3305,4.3305,4.3305,4.3305,4.3305,4.3305,4.3305,4.3305,4.3305,4.3305,4.3305,4.3305,4.3305,4.3305,4.3305,4.3305,4.3305,4.3305,4.3305,4.3305,4.3305,4.3305,4.3305,4.3305,4.3305,4.3285,4.3145,4.2836,4.2447,4.2097,4.1559,4.0908,4.0612,4.0376,3.9988,3.9525,3.9205,3.8937,3.8565,3.8347,3.8231,3.8212,3.8231,3.8289,3.826,3.8231,3.8347,3.8884,3.9175,3.9257,4.0388,4.1341,4.1553,4.2317,4.2937,4.325,4.3305,4.3305,4.3305,4.3305,4.3305,4.3305,4.3305,4.3305,4.3305,4.3305,4.3305,4.3305,4.33,4.3225,4.307,4.2726,4.2628,4.2505,4.2446,4.2352,4.2415,4.2489,4.2325,4.2092,4.1583,4.0923,4.0388,3.9826,3.9287,3.8877,3.8508,3.8238,3.8192,3.8,3.7967,3.7933,3.7911,3.79,3.7913,3.7716,3.7576,3.739,3.7191,3.6933,3.671,3.6569,3.6499,4.4875,4.4267,4.3898,4.3584,4.3319,4.3305,4.3305,4.3305,4.3305,4.3305,4.3305,4.3305,4.3305,4.3305,4.3305,4.3305,4.3305,4.3305,4.3305,4.3305,4.3305,4.3305,4.3305,4.3305,4.3305,4.3305,4.3305,4.3305,4.3305,4.3305,4.3305,4.3305,4.3305,4.3305,4.3305,4.3305,4.3305,4.3305,4.329,4.3085,4.2718,4.2545,4.2016,4.1273,4.0739,4.0363,4.0164,3.9955,3.9756,3.9576,3.9276,3.8783,3.8304,3.8231,3.8333,3.8614,3.8681,3.8841,3.9155,3.9692,4.0142,4.0099,4.1204,4.179,4.2192,4.2712,4.3041,4.324,4.3305,4.3305,4.3305,4.3305,4.3305,4.3305,4.3305,4.3305,4.3305,4.3305,4.3305,4.3305,4.3305,4.3115,4.2895,4.2771,4.2656,4.2603,4.2917,4.2847,4.2832,4.2876,4.2745,4.2476,4.2061,4.1573,4.1054,4.0463,3.9812,3.9397,3.9022,3.8765,3.8607,3.8315,3.8011,3.7979,3.7934,3.7911,3.7865,3.7657,3.7437,3.725,3.7027,3.6769,3.6581,3.6499,3.6452,4.5568,4.4441,4.4337,4.3898,4.3349,4.3305,4.3305,4.3305,4.3305,4.3305,4.3305,4.3305,4.3305,4.3305,4.3305,4.3305,4.3305,4.3305,4.3305,4.3305,4.3305,4.3305,4.3305,4.3305,4.3305,4.3305,4.3305,4.3305,4.3305,4.3305,4.3305,4.3305,4.3305,4.3305,4.3305,4.3305,4.3305,4.3305,4.324,4.3155,4.2956,4.2836,4.2295,4.1607,4.1043,4.0671,4.0612,4.0424,4.0259,4.0234,4.0172,3.9523,3.8841,3.8522,3.8681,3.931,3.9334,3.9596,4.0099,4.0655,4.1018,4.1217,4.1853,4.2374,4.2603,4.2775,4.3006,4.317,4.325,4.3305,4.3305,4.3305,4.3305,4.3305,4.3305,4.3305,4.3305,4.3305,4.3305,4.3305,4.33,4.316,4.305,4.2945,4.2806,4.2771,4.3085,4.3295,4.324,4.318,4.3016,4.288,4.2501,4.2168,4.1688,4.1121,4.0477,4.0131,3.9697,3.932,3.9051,3.8675,3.8362,3.8059,3.798,3.7934,3.7795,3.7551,3.733,3.7121,3.6863,3.6604,3.6487,3.6417,3.6417,4.5847,4.508,4.4531,4.3908,4.3349,4.3305,4.3305,4.3305,4.3305,4.3305,4.3305,4.3305,4.3305,4.3305,4.3305,4.3305,4.3305,4.3305,4.3305,4.3305,4.3305,4.3305,4.3305,4.3354,4.3334,4.3305,4.3344,4.3364,4.3314,4.3305,4.3305,4.3305,4.3305,4.3305,4.3305,4.3305,4.329,4.324,4.3145,4.3046,4.2905,4.2643,4.2384,4.1929,4.1619,4.1584,4.1526,4.1207,4.0945,4.0887,4.0394,4.007,3.9867,3.9784,3.9857,3.991,3.9968,4.0249,4.0868,4.1057,4.1424,4.1798,4.2086,4.2238,4.2443,4.2642,4.284,4.304,4.319,4.329,4.3305,4.3305,4.3305,4.3305,4.3305,4.3305,4.3305,4.3305,4.3305,4.3305,4.33,4.3285,4.318,4.313,4.3055,4.3005,4.3175,4.3305,4.3295,4.324,4.3155,4.3056,4.2935,4.2638,4.2316,4.1733,4.1188,4.0951,4.0534,3.9946,3.9582,3.9084,3.872,3.8397,3.808,3.7944,3.7747,3.7494,3.7284,3.7109,3.6781,3.6439,3.6417,3.6417,3.6417,4.6312,4.5285,4.4955,4.4222,4.3404,4.3305,4.3305,4.3305,4.3305,4.3305,4.3305,4.3305,4.3305,4.3305,4.3305,4.3305,4.3305,4.3305,4.3305,4.3305,4.3305,4.3305,4.3354,4.3433,4.3508,4.3547,4.3581,4.3512,4.3334,4.3314,4.3314,4.3305,4.3305,4.3305,4.3305,4.3305,4.324,4.3145,4.3021,4.2875,4.2698,4.2382,4.2191,4.2133,4.2082,4.2082,4.2044,4.186,4.1613,4.1565,4.1308,4.1163,4.1105,4.1062,4.0955,4.0694,4.0636,4.0912,4.1478,4.1628,4.1802,4.2005,4.2082,4.2181,4.2341,4.2514,4.2662,4.284,4.3026,4.3145,4.3135,4.324,4.3305,4.3305,4.3305,4.3305,4.3305,4.3305,4.3285,4.3275,4.328,4.3265,4.33,4.327,4.33,4.3305,4.3305,4.3305,4.3305,4.327,4.324,4.3175,4.3076,4.2885,4.2638,4.225,4.1841,4.1629,4.122,4.0627,4.0131,3.9626,3.9118,3.8684,3.8406,3.8057,3.7749,3.7505,3.7295,3.7062,3.6723,3.6452,3.6417,3.6417,3.6417,4.6707,4.5289,4.5289,4.4531,4.3409,4.3305,4.3305,4.3305,4.3305,4.3305,4.3305,4.3305,4.3305,4.3305,4.3305,4.3305,4.3305,4.3305,4.3305,4.3309,4.3384,4.3394,4.3468,4.3655,4.3802,4.3773,4.3939,4.3832,4.3493,4.3414,4.3364,4.3324,4.3305,4.3305,4.3305,4.324,4.314,4.3036,4.2885,4.2668,4.2372,4.2181,4.2082,4.2082,4.2082,4.2082,4.2078,4.2034,4.1995,4.202,4.2005,4.2034,4.2053,4.2078,4.1831,4.142,4.1333,4.1623,4.1889,4.2049,4.202,4.2082,4.2082,4.2181,4.2294,4.2396,4.2514,4.2693,4.284,4.2985,4.3036,4.316,4.324,4.3295,4.326,4.323,4.32,4.316,4.3105,4.3135,4.321,4.325,4.3265,4.3305,4.3305,4.3305,4.3305,4.3305,4.3305,4.3305,4.327,4.325,4.317,4.3036,4.2855,4.2708,4.2393,4.2234,4.1692,4.1068,4.0617,4.0185,3.9593,3.8919,3.8575,3.8226,3.7874,3.7471,3.7203,3.691,3.6617,3.6452,3.6429,3.6417,3.6417,4.6707,4.53,4.5289,4.4531,4.3389,4.3305,4.3305,4.3305,4.3305,4.3305,4.3305,4.3305,4.3305,4.3305,4.3305,4.3305,4.3305,4.3305,4.3324,4.3374,4.3512,4.3626,4.3714,4.406,4.4069,4.4055,4.4185,4.4026,4.3734,4.3651,4.3537,4.3404,4.3364,4.3305,4.3295,4.316,4.3036,4.2945,4.2662,4.2372,4.2181,4.2113,4.2092,4.2082,4.2082,4.2082,4.2082,4.2082,4.2082,4.2082,4.2082,4.2082,4.2082,4.2082,4.2088,4.2015,4.2001,4.203,4.2078,4.2082,4.2082,4.2082,4.2082,4.2113,4.2185,4.2304,4.2443,4.2683,4.2729,4.2799,4.2895,4.3006,4.313,4.314,4.311,4.3056,4.3026,4.298,4.2935,4.292,4.298,4.312,4.3205,4.3265,4.3305,4.3305,4.3305,4.3305,4.3305,4.3305,4.3305,4.3285,4.319,4.3066,4.292,4.2779,4.2607,4.2551,4.1972,4.1357,4.0894,4.0358,3.9695,3.9111,3.8733,3.8215,3.7665,3.7284,3.7038,3.6805,3.657,3.6464,3.6417,3.6417,3.6417,4.7018,4.5531,4.5377,4.4541,4.3364,4.3305,4.3305,4.3305,4.3305,4.3305,4.3305,4.3305,4.3305,4.3305,4.3305,4.3305,4.3305,4.3305,4.3394,4.3508,4.3655,4.3837,4.4036,4.4214,4.4262,4.4368,4.4387,4.4249,4.4003,4.3866,4.3778,4.367,4.3537,4.3448,4.329,4.3105,4.2875,4.2648,4.2392,4.2195,4.2113,4.2082,4.2082,4.2082,4.2082,4.2082,4.2082,4.2082,4.2082,4.2082,4.2082,4.2082,4.2082,4.2082,4.2092,4.2092,4.2078,4.2078,4.2082,4.2082,4.2082,4.2082,4.2082,4.2092,4.2113,4.2175,4.2253,4.2331,4.2474,4.2581,4.2678,4.2769,4.286,4.29,4.29,4.2865,4.2815,4.2779,4.2739,4.2749,4.2759,4.2895,4.3045,4.3155,4.319,4.321,4.322,4.323,4.3275,4.3305,4.3305,4.3305,4.32,4.3051,4.291,4.2739,4.2469,4.2285,4.1796,4.1272,4.0962,4.0423,3.964,3.9122,3.8744,3.8156,3.7468,3.7166,3.7015,3.678,3.6534,3.6464,3.6417,3.6417,3.6417,4.7333,4.5854,4.5459,4.4531,4.3319,4.3305,4.3305,4.3305,4.3305,4.3305,4.3305,4.3305,4.3305,4.3305,4.3305,4.3305,4.3305,4.3305,4.3478,4.3616,4.3783,4.4017,4.4287,4.4435,4.4505,4.4591,4.4553,4.4349,4.4104,4.3968,4.3919,4.3826,4.3581,4.3473,4.33,4.3086,4.2825,4.2449,4.2232,4.2113,4.2082,4.2082,4.2082,4.2082,4.2082,4.2082,4.2082,4.2082,4.2082,4.2082,4.2082,4.2082,4.2082,4.2082,4.2082,4.2082,4.2082,4.2082,4.2082,4.2082,4.2082,4.2082,4.2082,4.2082,4.2092,4.2082,4.2092,4.2129,4.2222,4.2335,4.2427,4.2561,4.2673,4.2703,4.2683,4.2638,4.2607,4.2551,4.249,4.2459,4.249,4.2602,4.2764,4.297,4.307,4.312,4.315,4.316,4.316,4.3185,4.3135,4.3085,4.291,4.2754,4.2537,4.2414,4.2219,4.1817,4.1336,4.0919,4.0455,3.999,3.9331,3.8922,3.8598,3.7949,3.7165,3.7072,3.6992,3.6699,3.6464,3.644,3.6417,3.6417,3.6417,4.7506,4.6203,4.5553,4.4526,4.3305,4.3305,4.3305,4.3305,4.3305,4.3305,4.3305,4.3305,4.3305,4.3305,4.3305,4.3305,4.3305,4.3305,4.3498,4.3695,4.3895,4.4185,4.4473,4.4673,4.4695,4.46,4.4515,4.4301,4.4085,4.3929,4.3709,4.3409,4.3463,4.3359,4.327,4.315,4.2799,4.2453,4.2222,4.2113,4.2092,4.2082,4.2082,4.2082,4.2082,4.2082,4.2082,4.2082,4.2082,4.2082,4.2082,4.2082,4.2082,4.2082,4.2082,4.2082,4.2082,4.2082,4.2082,4.2082,4.2082,4.2082,4.2082,4.2082,4.2082,4.2063,4.2063,4.2034,4.2052,4.2143,4.2281,4.2443,4.2494,4.2525,4.2484,4.2443,4.2382,4.2284,4.2232,4.2191,4.2253,4.2372,4.2443,4.2647,4.2844,4.289,4.291,4.292,4.288,4.287,4.2809,4.2719,4.2541,4.2322,4.2001,4.1701,4.1177,4.071,4.0236,3.9954,3.9648,3.9198,3.8774,3.8483,3.8065,3.7478,3.7024,3.6956,3.6827,3.6558,3.6417,3.6417,3.6417,3.6417,3.6417,4.7502,4.6037,4.5508,4.4519,4.3305,4.3305,4.3305,4.3305,4.3305,4.3305,4.3305,4.3305,4.3305,4.33,4.3314,4.3305,4.3305,4.3305,4.3527,4.3793,4.4017,4.432,4.4581,4.4616,4.454,4.4502,4.4358,4.4002,4.3621,4.3699,4.3512,4.3324,4.3394,4.3636,4.3581,4.324,4.2809,4.2514,4.2325,4.2222,4.2092,4.2082,4.2082,4.2082,4.2082,4.2082,4.2082,4.2082,4.2082,4.2082,4.2082,4.2082,4.2082,4.2082,4.2082,4.2082,4.2082,4.2082,4.2082,4.2082,4.2082,4.2082,4.2082,4.2078,4.2005,4.1773,4.1827,4.1827,4.1783,4.1815,4.2141,4.2212,4.2257,4.2294,4.2304,4.2253,4.2216,4.2133,4.2113,4.2144,4.2154,4.2216,4.2232,4.2284,4.2494,4.2662,4.2683,4.2678,4.2652,4.2602,4.2551,4.2363,4.2147,4.1754,4.1419,4.0795,4.0106,3.9659,3.9229,3.9017,3.883,3.8477,3.8094,3.7835,3.7652,3.7259,3.6967,3.6862,3.6686,3.6476,3.6405,3.6417,3.6417,3.6417,3.6417,4.7419,4.6059,4.5507,4.4632,4.3646,4.3473,4.3409,4.3404,4.3344,4.3305,4.3305,4.3305,4.3305,4.327,4.307,4.3005,4.2901,4.2825,4.312,4.334,4.3575,4.4016,4.4282,4.4314,4.4102,4.4151,4.3889,4.3468,4.327,4.3414,4.3394,4.3384,4.3433,4.3646,4.3704,4.3404,4.289,4.2581,4.2402,4.2294,4.2123,4.2082,4.2082,4.2082,4.2082,4.2082,4.2082,4.2082,4.2082,4.2082,4.2082,4.2082,4.2082,4.2082,4.2082,4.2092,4.2078,4.2078,4.2078,4.2082,4.2082,4.2082,4.2082,4.199,4.1758,4.1507,4.1769,4.1652,4.1512,4.1584,4.2078,4.2123,4.2133,4.2181,4.217,4.2154,4.2144,4.2092,4.2092,4.2102,4.2214,4.2486,4.2652,4.2738,4.2646,4.268,4.2407,4.2412,4.2412,4.2372,4.232,4.208,4.175,4.1279,4.0766,4.0106,3.9461,3.895,3.856,3.8245,3.7995,3.773,3.7521,3.7303,3.7142,3.7015,3.6863,3.6663,3.6534,3.644,3.6405,3.6417,3.6417,3.6417,3.6417,4.7194,4.641,4.5525,4.4799,4.4182,4.3861,4.3704,4.369,4.3453,4.3344,4.3354,4.3329,4.3304,4.3169,4.2794,4.2574,4.234,4.1916,4.2021,4.2624,4.2749,4.3225,4.3563,4.3656,4.349,4.3319,4.32,4.3091,4.2902,4.2932,4.3115,4.3194,4.3078,4.3337,4.361,4.3443,4.309,4.2719,4.2504,4.2335,4.2144,4.2082,4.2082,4.2092,4.1947,4.1903,4.1889,4.1889,4.1874,4.1889,4.2049,4.2078,4.2082,4.2082,4.2063,4.199,4.2005,4.2005,4.203,4.2034,4.1918,4.1874,4.1773,4.1555,4.1366,4.1449,4.1638,4.1362,4.1541,4.186,4.2063,4.2092,4.2092,4.2082,4.2082,4.2194,4.2223,4.231,4.2353,4.2629,4.2832,4.3032,4.3235,4.3293,4.3042,4.2769,4.2297,4.2173,4.2264,4.2195,4.216,4.1789,4.143,4.0852,4.0294,3.9497,3.8841,3.8325,3.796,3.7756,3.7526,3.7339,3.7094,3.6839,3.6757,3.6722,3.6593,3.6429,3.6405,3.6405,3.6405,3.6417,3.6417,3.6417,3.6417,4.6115,4.5261,4.4744,4.4422,4.4221,4.4152,4.4089,4.4046,4.3754,4.3552,4.3567,4.3567,4.3354,4.3061,4.2673,4.2279,4.1879,4.1681,4.1762,4.1938,4.1894,4.2407,4.2773,4.2789,4.2743,4.2971,4.2876,4.242,4.211,4.2248,4.2074,4.2061,4.2359,4.2707,4.3262,4.3429,4.3305,4.2799,4.2602,4.2439,4.2115,4.2034,4.202,4.2001,4.1638,4.1439,4.1439,4.1439,4.1439,4.1497,4.1681,4.1932,4.1961,4.1961,4.1802,4.158,4.1435,4.1207,4.0945,4.0771,4.0999,4.112,4.1091,4.0815,4.0539,4.0597,4.0796,4.1115,4.1406,4.1729,4.1976,4.2078,4.2107,4.2092,4.2165,4.2422,4.2552,4.2687,4.2847,4.334,4.3656,4.3714,4.3845,4.4019,4.383,4.3496,4.309,4.2513,4.2434,4.2194,4.2055,4.1564,4.1103,4.0488,3.9884,3.9514,3.9118,3.8755,3.8108,3.7515,3.7272,3.7206,3.6886,3.6722,3.6592,3.6463,3.6464,3.644,3.6417,3.6417,3.6417,3.6417,3.6417,3.6417,3.6417,4.5456,4.4804,4.4573,4.4431,4.4331,4.4026,4.3804,4.3644,4.3404,4.328,4.3249,4.3192,4.3005,4.2624,4.2195,4.1867,4.1311,4.0864,4.0903,4.1087,4.1016,4.1355,4.1627,4.1719,4.1622,4.1951,4.1891,4.1551,4.1425,4.1513,4.1477,4.1359,4.1331,4.1767,4.2329,4.2483,4.2449,4.1927,4.1674,4.1593,4.138,4.1318,4.1337,4.1207,4.0989,4.0742,4.0742,4.0757,4.0757,4.0912,4.1144,4.1439,4.1439,4.1352,4.1188,4.0868,4.0723,4.0525,4.0292,3.9886,4.0118,4.0292,4.0118,4.0118,4.0176,4.0481,4.0771,4.1043,4.1246,4.1642,4.2034,4.2146,4.2378,4.2382,4.2687,4.2974,4.3162,4.3336,4.3427,4.3932,4.4309,4.4378,4.4538,4.4629,4.4676,4.4298,4.3932,4.3355,4.2789,4.2529,4.2311,4.1879,4.138,4.088,4.0428,3.9989,3.9593,3.9198,3.8665,3.8102,3.7627,3.7646,3.7131,3.6698,3.6757,3.6733,3.6557,3.6475,3.6499,3.6465,3.6417,3.6417,3.6417,3.6417,3.6417,4.5257,4.4984,4.4952,4.4764,4.4459,4.3509,4.2918,4.2602,4.2565,4.2602,4.2553,4.2447,4.2349,4.2041,4.1234,4.0821,4.0579,3.9901,3.9886,3.9986,4.004,4.0316,4.0479,4.0549,4.0607,4.0368,4.0362,4.0754,4.0743,4.0594,4.066,4.08,4.0673,4.0775,4.0879,4.0958,4.1039,4.0935,4.0915,4.0802,4.0603,4.0379,4.0466,4.0394,4.022,4.0104,4.0075,4.0099,4.0099,4.0142,4.0205,4.0205,4.0162,4.0118,4.0113,4.0084,4.0084,3.9896,3.9755,3.932,3.9349,3.9567,3.9813,3.9958,4.0176,4.0466,4.0926,4.1246,4.1512,4.186,4.2194,4.2567,4.293,4.3181,4.3515,4.3757,4.3932,4.4048,4.4091,4.4396,4.4774,4.5021,4.538,4.5514,4.5224,4.5079,4.4759,4.457,4.3964,4.3239,4.2977,4.2649,4.2103,4.1477,4.1061,4.0855,4.0665,4.0452,3.9943,3.9392,3.8818,3.8154,3.7679,3.7351,3.718,3.7085,3.6989,3.6815,3.6617,3.6582,3.6642,3.6441,3.6441,3.6417,3.6417,4.4089,4.4007,4.3907,4.3735,4.3486,4.2856,4.27,4.2907,4.2931,4.2853,4.2718,4.2495,4.2163,4.1861,4.1206,4.0649,4.0106,3.9622,3.9372,3.9307,3.9256,3.9422,3.9564,3.9678,3.978,3.9959,4.0022,3.9896,3.9811,3.965,3.9464,3.9411,3.9657,3.9476,3.9386,3.9322,3.981,4.0183,4.0276,4.0135,4.0017,3.9929,3.9944,3.9876,3.9571,3.9479,3.945,3.946,3.946,3.9475,3.9871,4.006,4.0104,4.0075,4.0012,3.9426,3.9102,3.8725,3.8701,3.8609,3.8725,3.9146,3.9489,3.9431,3.975,4.0423,4.1086,4.142,4.1841,4.2233,4.2625,4.3003,4.3395,4.3776,4.411,4.4356,4.4541,4.4672,4.4745,4.5021,4.5384,4.5456,4.5874,4.5845,4.5572,4.5598,4.5529,4.5369,4.5006,4.4197,4.3707,4.3373,4.2923,4.2329,4.2309,4.2161,4.1962,4.1723,4.1229,4.0641,3.9909,3.9202,3.8452,3.8115,3.8085,3.7834,3.7533,3.7405,3.7408,3.7069,3.7031,3.6713,3.6476,3.6477,3.6442,4.3559,4.35,4.3449,4.3251,4.3007,4.2736,4.2686,4.2696,4.2645,4.2535,4.2405,4.2069,4.1745,4.135,4.08,4.0304,3.9855,3.9403,3.9122,3.8924,3.8664,3.8746,3.8871,3.8936,3.8991,3.9262,3.9358,3.9159,3.9071,3.8995,3.8835,3.8765,3.8692,3.8557,3.8518,3.8598,3.8865,3.9264,3.9493,3.9494,3.9465,3.9407,3.9349,3.9325,3.8947,3.8884,3.8841,3.885,3.8836,3.8812,3.9247,3.9334,3.932,3.9291,3.9247,3.8744,3.8551,3.8347,3.8376,3.8623,3.8826,3.9204,3.9649,4.0012,4.0205,4.0757,4.1207,4.1609,4.2146,4.2625,4.3032,4.3438,4.3888,4.4313,4.4618,4.4922,4.5108,4.5267,4.55,4.5758,4.5859,4.5845,4.5903,4.5903,4.5888,4.5816,4.5787,4.5717,4.5398,4.4832,4.4447,4.4178,4.3729,4.3266,4.3321,4.3396,4.3266,4.3036,4.2653,4.1994,4.1136,4.0481,3.994,3.9468,3.9097,3.8942,3.8888,3.854,3.8391,3.812,3.7857,3.7601,3.7206,3.6672,3.6599,4.3471,4.3351,4.3327,4.3115,4.2884,4.2798,4.2548,4.2117,4.1993,4.1881,4.178,4.1325,4.1039,4.0823,4.0326,3.9986,3.9655,3.9304,3.9041,3.881,3.8677,3.8627,3.8495,3.8311,3.8624,3.8398,3.8346,3.8668,3.8586,3.8575,3.8575,3.8488,3.8478,3.8394,3.8268,3.8249,3.8433,3.8559,3.8617,3.855,3.8439,3.8299,3.8212,3.8304,3.8275,3.826,3.826,3.8241,3.8202,3.8207,3.8236,3.8333,3.8376,3.8391,3.8318,3.8289,3.8246,3.8231,3.8371,3.871,3.9102,3.9654,4.035,4.08,4.1047,4.1178,4.157,4.1812,4.2291,4.264,4.3003,4.3409,4.3845,4.4237,4.457,4.489,4.5166,4.5409,4.5714,4.5903,4.5903,4.5903,4.5903,4.5903,4.5903,4.5903,4.5903,4.5903,4.5729,4.5282,4.5097,4.4889,4.4641,4.4356,4.4445,4.4507,4.453,4.4319,4.3884,4.3345,4.2479,4.1941,4.1491,4.1014,4.0551,4.0549,4.0451,4.0106,3.978,3.9556,3.9244,3.8722,3.8149,3.7562,3.6948,4.3046,4.3,4.2727,4.2587,4.25,4.2357,4.2246,4.2069,4.1785,4.1564,4.1389,4.1053,4.0771,4.0505,4.0033,3.9741,3.9616,3.9295,3.9104,3.8953,3.8797,3.8668,3.8649,3.8579,3.8616,3.8612,3.8529,3.8394,3.8399,3.8399,3.8371,3.8315,3.8324,3.8305,3.823,3.823,3.823,3.8212,3.8212,3.8212,3.8212,3.8212,3.8212,3.8212,3.8212,3.8212,3.8212,3.8212,3.8212,3.8202,3.8202,3.8217,3.8217,3.8212,3.8212,3.8212,3.8212,3.8212,3.842,3.8879,3.9392,3.9944,4.0636,4.125,4.1642,4.1783,4.1928,4.2088,4.2335,4.2654,4.2984,4.3395,4.3772,4.4135,4.444,4.4799,4.5133,4.5438,4.5772,4.5816,4.5816,4.5801,4.5787,4.5845,4.5903,4.5903,4.5903,4.5903,4.5903,4.5656,4.5601,4.5474,4.5576,4.5457,4.5463,4.5353,4.5228,4.5126,4.4741,4.4262,4.3759,4.3181,4.262,4.237,4.2087,4.2072,4.1959,4.1633,4.1328,4.1103,4.0597,4.0066,3.9669,3.914,3.8144,4.2814,4.2642,4.2389,4.2262,4.2222,4.2085,4.1964,4.1818,4.1522,4.1215,4.0953,4.0747,4.0524,4.0288,3.9865,3.9625,3.9544,3.925,3.9123,3.9026,3.8943,3.881,3.88,3.8819,3.8764,3.8745,3.8695,3.8566,3.844,3.8492,3.8519,3.8464,3.844,3.8417,3.8352,3.8329,3.8268,3.8212,3.8212,3.8217,3.8217,3.8217,3.8202,3.8212,3.8212,3.8212,3.8212,3.8212,3.8212,3.8212,3.8212,3.8212,3.8212,3.8212,3.8212,3.8212,3.8212,3.8202,3.8463,3.8971,3.9649,4.0186,4.1072,4.1758,4.1874,4.1976,4.199,4.2165,4.2557,4.2886,4.309,4.3438,4.3757,4.4091,4.4179,4.4353,4.4498,4.4654,4.4803,4.4817,4.4832,4.4832,4.4904,4.5224,4.5296,4.5471,4.5529,4.5805,4.5834,4.5685,4.5743,4.5772,4.5688,4.5816,4.5745,4.5705,4.5692,4.5591,4.5447,4.5024,4.4479,4.4104,4.3726,4.3588,4.3531,4.3598,4.3418,4.306,4.2911,4.2712,4.2088,4.1419,4.1046,4.068,3.9853,4.2508,4.2222,4.2021,4.1948,4.1931,4.1785,4.1612,4.1422,4.1122,4.0773,4.0463,4.0403,4.0209,3.9996,3.9765,3.9577,3.9409,3.9268,3.9177,3.9123,3.9004,3.8989,3.8962,3.8916,3.8916,3.8889,3.8833,3.8782,3.8718,3.8718,3.8718,3.8782,3.8754,3.8714,3.859,3.8478,3.8404,3.8287,3.8269,3.8299,3.8275,3.8231,3.8217,3.8212,3.8212,3.8212,3.8212,3.8212,3.8212,3.8212,3.8212,3.8212,3.8212,3.8212,3.8212,3.8212,3.8212,3.8212,3.842,3.916,3.9697,4.0336,4.141,4.1932,4.199,4.2082,4.2082,4.2252,4.2644,4.2847,4.305,4.3206,4.3511,4.3728,4.3743,4.383,4.3874,4.3975,4.4033,4.4023,4.4048,4.4048,4.4251,4.4556,4.473,4.4919,4.5151,4.55,4.563,4.5325,4.5191,4.5238,4.5238,4.5427,4.5787,4.5805,4.5764,4.5824,4.5643,4.5435,4.5212,4.4917,4.4797,4.4935,4.4924,4.4744,4.4672,4.4418,4.4305,4.403,4.3544,4.2864,4.26,4.2189,4.1622,4.1645,4.1345,4.1303,4.1212,4.107,4.1028,4.0885,4.0681,4.05,4.0257,4.0113,3.9927,3.9794,3.9741,3.9544,3.9409,3.9415,3.9319,3.9337,3.9325,3.9228,3.9256,3.9232,3.9165,3.9156,3.9095,3.9031,3.8953,3.892,3.8865,3.881,3.8837,3.8828,3.8806,3.876,3.8631,3.8488,3.84,3.8418,3.8463,3.871,3.8594,3.8246,3.8212,3.8212,3.8212,3.8212,3.8212,3.8212,3.8212,3.8212,3.8212,3.8212,3.8212,3.8212,3.8212,3.8212,3.8212,3.8536,3.9073,3.9538,4.0147,4.1047,4.1667,4.1816,4.2082,4.2082,4.2082,4.2339,4.2339,4.2455,4.2455,4.2658,4.2799,4.2872,4.3075,4.3216,4.3525,4.3787,4.3787,4.3787,4.3787,4.383,4.4033,4.4106,4.4251,4.4353,4.4687,4.5035,4.4846,4.4629,4.4701,4.4774,4.5238,4.5656,4.5601,4.559,4.5739,4.5777,4.5486,4.5441,4.5727,4.5719,4.5572,4.5617,4.5531,4.5492,4.5267,4.5089,4.4765,4.4669,4.4333,4.4027,4.3591,4.2922]}]]